<?xml version="1.0" encoding="UTF-8" standalone="no" ?>
<gpx xmlns="http://www.topografix.com/GPX/1/1" xmlns:xsi="http://www.w3.org/2001/XMLSchema-instance" xsi:schemaLocation="http://www.topografix.com/GPX/1/1 http://www.topografix.com/GPX/1/1/gpx.xsd" version="1.1" creator="VisuGPX - https://www.visugpx.com">
  <metadata>
    <name>RANDO MEZERES GERBIZON 24 KM</name>
    <desc><![CDATA[RANDO MEZERES GERBISON 24 KM.DEPART ARRIVEE MEZERES.LES BREUX.PLANEZE.LE FAUX.GIRODON.GERBIZON.L.HERMCHIRAT BLANC.ROIRON]]></desc>
  </metadata>
  <trk>
    <name><![CDATA[15-FEV-24 15:50:16]]></name>
    <extensions>
      <line xmlns="http://www.topografix.com/GPX/gpx_style/0/2">
        <color>0000FF</color>
        <width>4</width>
      </line>
    </extensions>
    <trkseg>
      <trkpt lat="45.16056" lon="4.02099">
        <ele>939.35</ele>
        <time>2024-02-15T08:04:02Z</time>
      </trkpt>
      <trkpt lat="45.16054" lon="4.02098">
        <ele>939.35</ele>
        <time>2024-02-15T08:04:04Z</time>
      </trkpt>
      <trkpt lat="45.1604" lon="4.0208">
        <ele>939.83</ele>
        <time>2024-02-15T08:04:22Z</time>
      </trkpt>
      <trkpt lat="45.16026" lon="4.02068">
        <ele>939.35</ele>
        <time>2024-02-15T08:04:37Z</time>
      </trkpt>
      <trkpt lat="45.16018" lon="4.02066">
        <ele>938.38</ele>
        <time>2024-02-15T08:04:47Z</time>
      </trkpt>
      <trkpt lat="45.16012" lon="4.0207">
        <ele>937.9</ele>
        <time>2024-02-15T08:04:53Z</time>
      </trkpt>
      <trkpt lat="45.15993" lon="4.02101">
        <ele>935.98</ele>
        <time>2024-02-15T08:05:15Z</time>
      </trkpt>
      <trkpt lat="45.15982" lon="4.02125">
        <ele>933.58</ele>
        <time>2024-02-15T08:05:31Z</time>
      </trkpt>
      <trkpt lat="45.15976" lon="4.0215">
        <ele>932.62</ele>
        <time>2024-02-15T08:05:45Z</time>
      </trkpt>
      <trkpt lat="45.1597" lon="4.02174">
        <ele>930.69</ele>
        <time>2024-02-15T08:06:00Z</time>
      </trkpt>
      <trkpt lat="45.15963" lon="4.02201">
        <ele>930.21</ele>
        <time>2024-02-15T08:06:17Z</time>
      </trkpt>
      <trkpt lat="45.15957" lon="4.02225">
        <ele>928.77</ele>
        <time>2024-02-15T08:06:32Z</time>
      </trkpt>
      <trkpt lat="45.15951" lon="4.02253">
        <ele>927.33</ele>
        <time>2024-02-15T08:06:48Z</time>
      </trkpt>
      <trkpt lat="45.15946" lon="4.02279">
        <ele>926.85</ele>
        <time>2024-02-15T08:07:04Z</time>
      </trkpt>
      <trkpt lat="45.1594" lon="4.02304">
        <ele>925.41</ele>
        <time>2024-02-15T08:07:19Z</time>
      </trkpt>
      <trkpt lat="45.15935" lon="4.02334">
        <ele>921.56</ele>
        <time>2024-02-15T08:07:35Z</time>
      </trkpt>
      <trkpt lat="45.15934" lon="4.02346">
        <ele>921.08</ele>
        <time>2024-02-15T08:07:41Z</time>
      </trkpt>
      <trkpt lat="45.15933" lon="4.02371">
        <ele>921.56</ele>
        <time>2024-02-15T08:07:52Z</time>
      </trkpt>
      <trkpt lat="45.15935" lon="4.02399">
        <ele>920.6</ele>
        <time>2024-02-15T08:08:07Z</time>
      </trkpt>
      <trkpt lat="45.15935" lon="4.02408">
        <ele>922.04</ele>
        <time>2024-02-15T08:08:20Z</time>
      </trkpt>
      <trkpt lat="45.15935" lon="4.02426">
        <ele>922.52</ele>
        <time>2024-02-15T08:08:33Z</time>
      </trkpt>
      <trkpt lat="45.15937" lon="4.02448">
        <ele>920.6</ele>
        <time>2024-02-15T08:08:48Z</time>
      </trkpt>
      <trkpt lat="45.15937" lon="4.02472">
        <ele>920.6</ele>
        <time>2024-02-15T08:09:03Z</time>
      </trkpt>
      <trkpt lat="45.15937" lon="4.02496">
        <ele>919.64</ele>
        <time>2024-02-15T08:09:19Z</time>
      </trkpt>
      <trkpt lat="45.15937" lon="4.02503">
        <ele>919.64</ele>
        <time>2024-02-15T08:09:23Z</time>
      </trkpt>
      <trkpt lat="45.15939" lon="4.02515">
        <ele>918.68</ele>
        <time>2024-02-15T08:09:32Z</time>
      </trkpt>
      <trkpt lat="45.1594" lon="4.02522">
        <ele>917.72</ele>
        <time>2024-02-15T08:09:37Z</time>
      </trkpt>
      <trkpt lat="45.15943" lon="4.02535">
        <ele>916.75</ele>
        <time>2024-02-15T08:09:45Z</time>
      </trkpt>
      <trkpt lat="45.15946" lon="4.02543">
        <ele>916.27</ele>
        <time>2024-02-15T08:09:50Z</time>
      </trkpt>
      <trkpt lat="45.15954" lon="4.02568">
        <ele>911.47</ele>
        <time>2024-02-15T08:10:06Z</time>
      </trkpt>
      <trkpt lat="45.15956" lon="4.0257">
        <ele>910.99</ele>
        <time>2024-02-15T08:10:08Z</time>
      </trkpt>
      <trkpt lat="45.15972" lon="4.02606">
        <ele>905.7</ele>
        <time>2024-02-15T08:10:28Z</time>
      </trkpt>
      <trkpt lat="45.15981" lon="4.02632">
        <ele>904.26</ele>
        <time>2024-02-15T08:10:44Z</time>
      </trkpt>
      <trkpt lat="45.15987" lon="4.02661">
        <ele>905.22</ele>
        <time>2024-02-15T08:10:57Z</time>
      </trkpt>
      <trkpt lat="45.15993" lon="4.027">
        <ele>904.74</ele>
        <time>2024-02-15T08:11:16Z</time>
      </trkpt>
      <trkpt lat="45.15994" lon="4.0271">
        <ele>904.26</ele>
        <time>2024-02-15T08:11:25Z</time>
      </trkpt>
      <trkpt lat="45.15997" lon="4.02726">
        <ele>904.74</ele>
        <time>2024-02-15T08:11:34Z</time>
      </trkpt>
      <trkpt lat="45.15999" lon="4.02747">
        <ele>905.22</ele>
        <time>2024-02-15T08:11:46Z</time>
      </trkpt>
      <trkpt lat="45.16006" lon="4.02784">
        <ele>904.74</ele>
        <time>2024-02-15T08:12:03Z</time>
      </trkpt>
      <trkpt lat="45.16011" lon="4.02817">
        <ele>903.78</ele>
        <time>2024-02-15T08:12:20Z</time>
      </trkpt>
      <trkpt lat="45.16015" lon="4.02841">
        <ele>903.78</ele>
        <time>2024-02-15T08:12:32Z</time>
      </trkpt>
      <trkpt lat="45.16024" lon="4.02864">
        <ele>904.74</ele>
        <time>2024-02-15T08:12:47Z</time>
      </trkpt>
      <trkpt lat="45.16029" lon="4.02899">
        <ele>904.74</ele>
        <time>2024-02-15T08:13:05Z</time>
      </trkpt>
      <trkpt lat="45.16028" lon="4.02901">
        <ele>904.74</ele>
        <time>2024-02-15T08:13:07Z</time>
      </trkpt>
      <trkpt lat="45.16013" lon="4.02918">
        <ele>905.7</ele>
        <time>2024-02-15T08:13:21Z</time>
      </trkpt>
      <trkpt lat="45.15998" lon="4.02935">
        <ele>905.7</ele>
        <time>2024-02-15T08:13:40Z</time>
      </trkpt>
      <trkpt lat="45.15998" lon="4.02932">
        <ele>905.22</ele>
        <time>2024-02-15T08:13:43Z</time>
      </trkpt>
      <trkpt lat="45.15998" lon="4.02924">
        <ele>904.74</ele>
        <time>2024-02-15T08:13:55Z</time>
      </trkpt>
      <trkpt lat="45.15996" lon="4.02917">
        <ele>904.74</ele>
        <time>2024-02-15T08:13:59Z</time>
      </trkpt>
      <trkpt lat="45.1599" lon="4.02914">
        <ele>904.26</ele>
        <time>2024-02-15T08:14:04Z</time>
      </trkpt>
      <trkpt lat="45.15968" lon="4.02914">
        <ele>902.82</ele>
        <time>2024-02-15T08:14:20Z</time>
      </trkpt>
      <trkpt lat="45.15953" lon="4.02929">
        <ele>902.33</ele>
        <time>2024-02-15T08:14:35Z</time>
      </trkpt>
      <trkpt lat="45.15934" lon="4.02954">
        <ele>902.33</ele>
        <time>2024-02-15T08:14:54Z</time>
      </trkpt>
      <trkpt lat="45.15921" lon="4.02974">
        <ele>903.3</ele>
        <time>2024-02-15T08:15:11Z</time>
      </trkpt>
      <trkpt lat="45.15908" lon="4.0299">
        <ele>903.78</ele>
        <time>2024-02-15T08:15:28Z</time>
      </trkpt>
      <trkpt lat="45.15895" lon="4.03002">
        <ele>906.18</ele>
        <time>2024-02-15T08:15:41Z</time>
      </trkpt>
      <trkpt lat="45.1589" lon="4.03016">
        <ele>907.14</ele>
        <time>2024-02-15T08:15:49Z</time>
      </trkpt>
      <trkpt lat="45.15874" lon="4.03041">
        <ele>910.51</ele>
        <time>2024-02-15T08:16:06Z</time>
      </trkpt>
      <trkpt lat="45.15866" lon="4.03052">
        <ele>910.99</ele>
        <time>2024-02-15T08:16:15Z</time>
      </trkpt>
      <trkpt lat="45.15854" lon="4.03062">
        <ele>911.47</ele>
        <time>2024-02-15T08:16:24Z</time>
      </trkpt>
      <trkpt lat="45.15834" lon="4.03082">
        <ele>910.03</ele>
        <time>2024-02-15T08:16:43Z</time>
      </trkpt>
      <trkpt lat="45.15812" lon="4.03101">
        <ele>906.18</ele>
        <time>2024-02-15T08:17:03Z</time>
      </trkpt>
      <trkpt lat="45.15799" lon="4.03105">
        <ele>904.26</ele>
        <time>2024-02-15T08:17:12Z</time>
      </trkpt>
      <trkpt lat="45.15795" lon="4.03105">
        <ele>903.3</ele>
        <time>2024-02-15T08:17:16Z</time>
      </trkpt>
      <trkpt lat="45.1579" lon="4.03106">
        <ele>901.85</ele>
        <time>2024-02-15T08:17:20Z</time>
      </trkpt>
      <trkpt lat="45.15785" lon="4.03111">
        <ele>900.89</ele>
        <time>2024-02-15T08:17:24Z</time>
      </trkpt>
      <trkpt lat="45.15777" lon="4.03138">
        <ele>898.97</ele>
        <time>2024-02-15T08:17:39Z</time>
      </trkpt>
      <trkpt lat="45.15779" lon="4.03175">
        <ele>897.05</ele>
        <time>2024-02-15T08:18:00Z</time>
      </trkpt>
      <trkpt lat="45.15785" lon="4.03211">
        <ele>894.16</ele>
        <time>2024-02-15T08:18:19Z</time>
      </trkpt>
      <trkpt lat="45.15792" lon="4.0324">
        <ele>889.84</ele>
        <time>2024-02-15T08:18:32Z</time>
      </trkpt>
      <trkpt lat="45.15797" lon="4.03259">
        <ele>888.88</ele>
        <time>2024-02-15T08:18:45Z</time>
      </trkpt>
      <trkpt lat="45.15803" lon="4.03271">
        <ele>888.88</ele>
        <time>2024-02-15T08:18:57Z</time>
      </trkpt>
      <trkpt lat="45.15806" lon="4.03274">
        <ele>888.88</ele>
        <time>2024-02-15T08:19:01Z</time>
      </trkpt>
      <trkpt lat="45.15817" lon="4.03286">
        <ele>890.32</ele>
        <time>2024-02-15T08:19:16Z</time>
      </trkpt>
      <trkpt lat="45.15827" lon="4.03298">
        <ele>891.28</ele>
        <time>2024-02-15T08:19:29Z</time>
      </trkpt>
      <trkpt lat="45.15836" lon="4.03301">
        <ele>893.2</ele>
        <time>2024-02-15T08:19:41Z</time>
      </trkpt>
      <trkpt lat="45.15847" lon="4.03299">
        <ele>894.16</ele>
        <time>2024-02-15T08:19:54Z</time>
      </trkpt>
      <trkpt lat="45.1586" lon="4.03302">
        <ele>897.05</ele>
        <time>2024-02-15T08:20:09Z</time>
      </trkpt>
      <trkpt lat="45.15875" lon="4.033">
        <ele>899.93</ele>
        <time>2024-02-15T08:20:25Z</time>
      </trkpt>
      <trkpt lat="45.15888" lon="4.03295">
        <ele>900.89</ele>
        <time>2024-02-15T08:20:39Z</time>
      </trkpt>
      <trkpt lat="45.15901" lon="4.03288">
        <ele>901.37</ele>
        <time>2024-02-15T08:20:55Z</time>
      </trkpt>
      <trkpt lat="45.15916" lon="4.03278">
        <ele>902.33</ele>
        <time>2024-02-15T08:21:10Z</time>
      </trkpt>
      <trkpt lat="45.15921" lon="4.03274">
        <ele>902.82</ele>
        <time>2024-02-15T08:21:27Z</time>
      </trkpt>
      <trkpt lat="45.15943" lon="4.03245">
        <ele>903.3</ele>
        <time>2024-02-15T08:21:48Z</time>
      </trkpt>
      <trkpt lat="45.15965" lon="4.03226">
        <ele>903.78</ele>
        <time>2024-02-15T08:22:01Z</time>
      </trkpt>
      <trkpt lat="45.15967" lon="4.03225">
        <ele>903.78</ele>
        <time>2024-02-15T08:22:03Z</time>
      </trkpt>
      <trkpt lat="45.1598" lon="4.03224">
        <ele>904.74</ele>
        <time>2024-02-15T08:22:09Z</time>
      </trkpt>
      <trkpt lat="45.15996" lon="4.03221">
        <ele>906.66</ele>
        <time>2024-02-15T08:22:19Z</time>
      </trkpt>
      <trkpt lat="45.16008" lon="4.0322">
        <ele>907.14</ele>
        <time>2024-02-15T08:22:29Z</time>
      </trkpt>
      <trkpt lat="45.16022" lon="4.03219">
        <ele>908.1</ele>
        <time>2024-02-15T08:22:40Z</time>
      </trkpt>
      <trkpt lat="45.16036" lon="4.0322">
        <ele>907.14</ele>
        <time>2024-02-15T08:22:50Z</time>
      </trkpt>
      <trkpt lat="45.16051" lon="4.03222">
        <ele>907.62</ele>
        <time>2024-02-15T08:23:04Z</time>
      </trkpt>
      <trkpt lat="45.16062" lon="4.03235">
        <ele>907.62</ele>
        <time>2024-02-15T08:23:17Z</time>
      </trkpt>
      <trkpt lat="45.16068" lon="4.03247">
        <ele>907.62</ele>
        <time>2024-02-15T08:23:26Z</time>
      </trkpt>
      <trkpt lat="45.16074" lon="4.03257">
        <ele>906.66</ele>
        <time>2024-02-15T08:23:32Z</time>
      </trkpt>
      <trkpt lat="45.16085" lon="4.03279">
        <ele>906.66</ele>
        <time>2024-02-15T08:23:44Z</time>
      </trkpt>
      <trkpt lat="45.16094" lon="4.03298">
        <ele>905.7</ele>
        <time>2024-02-15T08:23:55Z</time>
      </trkpt>
      <trkpt lat="45.16104" lon="4.03315">
        <ele>905.7</ele>
        <time>2024-02-15T08:24:07Z</time>
      </trkpt>
      <trkpt lat="45.16117" lon="4.03346">
        <ele>905.7</ele>
        <time>2024-02-15T08:24:25Z</time>
      </trkpt>
      <trkpt lat="45.16129" lon="4.03371">
        <ele>905.7</ele>
        <time>2024-02-15T08:24:38Z</time>
      </trkpt>
      <trkpt lat="45.16139" lon="4.03385">
        <ele>906.66</ele>
        <time>2024-02-15T08:24:48Z</time>
      </trkpt>
      <trkpt lat="45.16151" lon="4.03391">
        <ele>908.1</ele>
        <time>2024-02-15T08:24:59Z</time>
      </trkpt>
      <trkpt lat="45.16165" lon="4.03392">
        <ele>909.54</ele>
        <time>2024-02-15T08:25:10Z</time>
      </trkpt>
      <trkpt lat="45.16177" lon="4.03394">
        <ele>910.03</ele>
        <time>2024-02-15T08:25:20Z</time>
      </trkpt>
      <trkpt lat="45.16191" lon="4.03403">
        <ele>912.91</ele>
        <time>2024-02-15T08:25:31Z</time>
      </trkpt>
      <trkpt lat="45.16203" lon="4.03413">
        <ele>915.31</ele>
        <time>2024-02-15T08:25:43Z</time>
      </trkpt>
      <trkpt lat="45.16212" lon="4.03423">
        <ele>915.79</ele>
        <time>2024-02-15T08:25:51Z</time>
      </trkpt>
      <trkpt lat="45.16223" lon="4.03438">
        <ele>917.24</ele>
        <time>2024-02-15T08:26:02Z</time>
      </trkpt>
      <trkpt lat="45.16236" lon="4.03452">
        <ele>920.12</ele>
        <time>2024-02-15T08:26:15Z</time>
      </trkpt>
      <trkpt lat="45.16248" lon="4.03467">
        <ele>921.56</ele>
        <time>2024-02-15T08:26:26Z</time>
      </trkpt>
      <trkpt lat="45.16258" lon="4.03479">
        <ele>922.04</ele>
        <time>2024-02-15T08:26:37Z</time>
      </trkpt>
      <trkpt lat="45.1627" lon="4.03496">
        <ele>923</ele>
        <time>2024-02-15T08:26:49Z</time>
      </trkpt>
      <trkpt lat="45.16281" lon="4.03517">
        <ele>922.52</ele>
        <time>2024-02-15T08:27:01Z</time>
      </trkpt>
      <trkpt lat="45.16292" lon="4.03535">
        <ele>923.96</ele>
        <time>2024-02-15T08:27:12Z</time>
      </trkpt>
      <trkpt lat="45.16304" lon="4.03553">
        <ele>923.96</ele>
        <time>2024-02-15T08:27:27Z</time>
      </trkpt>
      <trkpt lat="45.16321" lon="4.03577">
        <ele>924.45</ele>
        <time>2024-02-15T08:27:44Z</time>
      </trkpt>
      <trkpt lat="45.16328" lon="4.03591">
        <ele>923.96</ele>
        <time>2024-02-15T08:27:54Z</time>
      </trkpt>
      <trkpt lat="45.16332" lon="4.03596">
        <ele>923.48</ele>
        <time>2024-02-15T08:27:58Z</time>
      </trkpt>
      <trkpt lat="45.16345" lon="4.03616">
        <ele>918.2</ele>
        <time>2024-02-15T08:28:14Z</time>
      </trkpt>
      <trkpt lat="45.1636" lon="4.03637">
        <ele>916.27</ele>
        <time>2024-02-15T08:28:31Z</time>
      </trkpt>
      <trkpt lat="45.16373" lon="4.03657">
        <ele>917.24</ele>
        <time>2024-02-15T08:28:45Z</time>
      </trkpt>
      <trkpt lat="45.16374" lon="4.03659">
        <ele>917.72</ele>
        <time>2024-02-15T08:28:46Z</time>
      </trkpt>
      <trkpt lat="45.16385" lon="4.0368">
        <ele>919.16</ele>
        <time>2024-02-15T08:28:59Z</time>
      </trkpt>
      <trkpt lat="45.16388" lon="4.03683">
        <ele>919.16</ele>
        <time>2024-02-15T08:29:01Z</time>
      </trkpt>
      <trkpt lat="45.16394" lon="4.03687">
        <ele>919.64</ele>
        <time>2024-02-15T08:29:07Z</time>
      </trkpt>
      <trkpt lat="45.16406" lon="4.03704">
        <ele>918.68</ele>
        <time>2024-02-15T08:29:20Z</time>
      </trkpt>
      <trkpt lat="45.16417" lon="4.03719">
        <ele>917.72</ele>
        <time>2024-02-15T08:29:31Z</time>
      </trkpt>
      <trkpt lat="45.16418" lon="4.0372">
        <ele>917.72</ele>
        <time>2024-02-15T08:29:33Z</time>
      </trkpt>
      <trkpt lat="45.16433" lon="4.03731">
        <ele>917.24</ele>
        <time>2024-02-15T08:29:46Z</time>
      </trkpt>
      <trkpt lat="45.16448" lon="4.03743">
        <ele>916.75</ele>
        <time>2024-02-15T08:29:59Z</time>
      </trkpt>
      <trkpt lat="45.16462" lon="4.03751">
        <ele>917.24</ele>
        <time>2024-02-15T08:30:11Z</time>
      </trkpt>
      <trkpt lat="45.16465" lon="4.03754">
        <ele>916.75</ele>
        <time>2024-02-15T08:30:17Z</time>
      </trkpt>
      <trkpt lat="45.16468" lon="4.03758">
        <ele>916.75</ele>
        <time>2024-02-15T08:30:20Z</time>
      </trkpt>
      <trkpt lat="45.16485" lon="4.03764">
        <ele>916.75</ele>
        <time>2024-02-15T08:30:33Z</time>
      </trkpt>
      <trkpt lat="45.165" lon="4.03769">
        <ele>916.27</ele>
        <time>2024-02-15T08:30:44Z</time>
      </trkpt>
      <trkpt lat="45.16513" lon="4.03771">
        <ele>916.27</ele>
        <time>2024-02-15T08:30:54Z</time>
      </trkpt>
      <trkpt lat="45.1652" lon="4.03773">
        <ele>915.79</ele>
        <time>2024-02-15T08:30:59Z</time>
      </trkpt>
      <trkpt lat="45.16532" lon="4.03772">
        <ele>916.27</ele>
        <time>2024-02-15T08:31:09Z</time>
      </trkpt>
      <trkpt lat="45.16546" lon="4.03769">
        <ele>916.27</ele>
        <time>2024-02-15T08:31:19Z</time>
      </trkpt>
      <trkpt lat="45.16558" lon="4.03766">
        <ele>915.79</ele>
        <time>2024-02-15T08:31:28Z</time>
      </trkpt>
      <trkpt lat="45.16571" lon="4.03762">
        <ele>915.31</ele>
        <time>2024-02-15T08:31:37Z</time>
      </trkpt>
      <trkpt lat="45.16577" lon="4.0376">
        <ele>915.79</ele>
        <time>2024-02-15T08:31:42Z</time>
      </trkpt>
      <trkpt lat="45.16583" lon="4.03757">
        <ele>915.31</ele>
        <time>2024-02-15T08:31:47Z</time>
      </trkpt>
      <trkpt lat="45.16599" lon="4.03753">
        <ele>913.39</ele>
        <time>2024-02-15T08:31:58Z</time>
      </trkpt>
      <trkpt lat="45.16611" lon="4.03754">
        <ele>912.91</ele>
        <time>2024-02-15T08:32:06Z</time>
      </trkpt>
      <trkpt lat="45.16621" lon="4.03752">
        <ele>913.39</ele>
        <time>2024-02-15T08:32:15Z</time>
      </trkpt>
      <trkpt lat="45.16634" lon="4.03752">
        <ele>912.91</ele>
        <time>2024-02-15T08:32:25Z</time>
      </trkpt>
      <trkpt lat="45.16637" lon="4.03752">
        <ele>913.39</ele>
        <time>2024-02-15T08:32:29Z</time>
      </trkpt>
      <trkpt lat="45.16645" lon="4.03749">
        <ele>913.39</ele>
        <time>2024-02-15T08:32:36Z</time>
      </trkpt>
      <trkpt lat="45.16649" lon="4.03747">
        <ele>912.91</ele>
        <time>2024-02-15T08:32:39Z</time>
      </trkpt>
      <trkpt lat="45.16668" lon="4.03747">
        <ele>910.51</ele>
        <time>2024-02-15T08:32:53Z</time>
      </trkpt>
      <trkpt lat="45.1667" lon="4.03747">
        <ele>910.51</ele>
        <time>2024-02-15T08:32:55Z</time>
      </trkpt>
      <trkpt lat="45.16691" lon="4.03749">
        <ele>908.58</ele>
        <time>2024-02-15T08:33:10Z</time>
      </trkpt>
      <trkpt lat="45.16709" lon="4.03751">
        <ele>907.62</ele>
        <time>2024-02-15T08:33:23Z</time>
      </trkpt>
      <trkpt lat="45.1672" lon="4.03749">
        <ele>907.14</ele>
        <time>2024-02-15T08:33:32Z</time>
      </trkpt>
      <trkpt lat="45.1674" lon="4.03746">
        <ele>904.74</ele>
        <time>2024-02-15T08:33:48Z</time>
      </trkpt>
      <trkpt lat="45.16756" lon="4.03745">
        <ele>903.78</ele>
        <time>2024-02-15T08:34:00Z</time>
      </trkpt>
      <trkpt lat="45.16768" lon="4.03741">
        <ele>902.82</ele>
        <time>2024-02-15T08:34:11Z</time>
      </trkpt>
      <trkpt lat="45.16782" lon="4.03738">
        <ele>902.33</ele>
        <time>2024-02-15T08:34:22Z</time>
      </trkpt>
      <trkpt lat="45.16795" lon="4.03733">
        <ele>902.33</ele>
        <time>2024-02-15T08:34:35Z</time>
      </trkpt>
      <trkpt lat="45.1682" lon="4.03726">
        <ele>900.41</ele>
        <time>2024-02-15T08:34:51Z</time>
      </trkpt>
      <trkpt lat="45.1684" lon="4.03719">
        <ele>900.41</ele>
        <time>2024-02-15T08:35:08Z</time>
      </trkpt>
      <trkpt lat="45.16851" lon="4.03718">
        <ele>900.41</ele>
        <time>2024-02-15T08:35:23Z</time>
      </trkpt>
      <trkpt lat="45.16864" lon="4.0372">
        <ele>899.93</ele>
        <time>2024-02-15T08:35:35Z</time>
      </trkpt>
      <trkpt lat="45.16866" lon="4.03723">
        <ele>899.93</ele>
        <time>2024-02-15T08:35:37Z</time>
      </trkpt>
      <trkpt lat="45.16878" lon="4.03723">
        <ele>900.41</ele>
        <time>2024-02-15T08:35:53Z</time>
      </trkpt>
      <trkpt lat="45.16882" lon="4.03721">
        <ele>900.89</ele>
        <time>2024-02-15T08:36:00Z</time>
      </trkpt>
      <trkpt lat="45.16902" lon="4.03719">
        <ele>900.41</ele>
        <time>2024-02-15T08:36:14Z</time>
      </trkpt>
      <trkpt lat="45.16919" lon="4.03717">
        <ele>899.93</ele>
        <time>2024-02-15T08:36:27Z</time>
      </trkpt>
      <trkpt lat="45.16932" lon="4.03715">
        <ele>899.93</ele>
        <time>2024-02-15T08:36:37Z</time>
      </trkpt>
      <trkpt lat="45.16947" lon="4.03706">
        <ele>899.45</ele>
        <time>2024-02-15T08:36:49Z</time>
      </trkpt>
      <trkpt lat="45.16956" lon="4.03696">
        <ele>898.01</ele>
        <time>2024-02-15T08:37:02Z</time>
      </trkpt>
      <trkpt lat="45.16966" lon="4.03684">
        <ele>897.53</ele>
        <time>2024-02-15T08:37:15Z</time>
      </trkpt>
      <trkpt lat="45.16973" lon="4.03668">
        <ele>897.53</ele>
        <time>2024-02-15T08:37:30Z</time>
      </trkpt>
      <trkpt lat="45.16985" lon="4.03648">
        <ele>896.09</ele>
        <time>2024-02-15T08:37:44Z</time>
      </trkpt>
      <trkpt lat="45.16994" lon="4.03631">
        <ele>894.16</ele>
        <time>2024-02-15T08:37:55Z</time>
      </trkpt>
      <trkpt lat="45.16999" lon="4.03624">
        <ele>894.16</ele>
        <time>2024-02-15T08:38:02Z</time>
      </trkpt>
      <trkpt lat="45.17008" lon="4.03609">
        <ele>895.12</ele>
        <time>2024-02-15T08:38:17Z</time>
      </trkpt>
      <trkpt lat="45.17018" lon="4.03594">
        <ele>894.64</ele>
        <time>2024-02-15T08:38:28Z</time>
      </trkpt>
      <trkpt lat="45.17026" lon="4.03582">
        <ele>894.16</ele>
        <time>2024-02-15T08:38:38Z</time>
      </trkpt>
      <trkpt lat="45.17028" lon="4.03579">
        <ele>894.16</ele>
        <time>2024-02-15T08:38:40Z</time>
      </trkpt>
      <trkpt lat="45.17037" lon="4.03555">
        <ele>893.2</ele>
        <time>2024-02-15T08:38:55Z</time>
      </trkpt>
      <trkpt lat="45.17039" lon="4.03549">
        <ele>893.2</ele>
        <time>2024-02-15T08:38:57Z</time>
      </trkpt>
      <trkpt lat="45.17049" lon="4.03525">
        <ele>892.24</ele>
        <time>2024-02-15T08:39:14Z</time>
      </trkpt>
      <trkpt lat="45.17056" lon="4.03513">
        <ele>893.2</ele>
        <time>2024-02-15T08:39:27Z</time>
      </trkpt>
      <trkpt lat="45.17069" lon="4.03496">
        <ele>892.72</ele>
        <time>2024-02-15T08:39:41Z</time>
      </trkpt>
      <trkpt lat="45.17076" lon="4.03485">
        <ele>894.16</ele>
        <time>2024-02-15T08:39:56Z</time>
      </trkpt>
      <trkpt lat="45.17089" lon="4.03465">
        <ele>896.09</ele>
        <time>2024-02-15T08:40:12Z</time>
      </trkpt>
      <trkpt lat="45.17101" lon="4.03445">
        <ele>897.53</ele>
        <time>2024-02-15T08:40:25Z</time>
      </trkpt>
      <trkpt lat="45.1711" lon="4.03429">
        <ele>898.01</ele>
        <time>2024-02-15T08:40:39Z</time>
      </trkpt>
      <trkpt lat="45.17119" lon="4.03409">
        <ele>898.49</ele>
        <time>2024-02-15T08:40:51Z</time>
      </trkpt>
      <trkpt lat="45.1712" lon="4.03405">
        <ele>898.49</ele>
        <time>2024-02-15T08:40:54Z</time>
      </trkpt>
      <trkpt lat="45.17127" lon="4.03382">
        <ele>898.97</ele>
        <time>2024-02-15T08:41:08Z</time>
      </trkpt>
      <trkpt lat="45.17133" lon="4.03362">
        <ele>899.45</ele>
        <time>2024-02-15T08:41:24Z</time>
      </trkpt>
      <trkpt lat="45.17133" lon="4.0336">
        <ele>899.45</ele>
        <time>2024-02-15T08:41:25Z</time>
      </trkpt>
      <trkpt lat="45.17139" lon="4.03338">
        <ele>899.93</ele>
        <time>2024-02-15T08:41:37Z</time>
      </trkpt>
      <trkpt lat="45.17146" lon="4.03318">
        <ele>901.37</ele>
        <time>2024-02-15T08:41:50Z</time>
      </trkpt>
      <trkpt lat="45.17146" lon="4.03304">
        <ele>902.33</ele>
        <time>2024-02-15T08:42:03Z</time>
      </trkpt>
      <trkpt lat="45.17147" lon="4.03294">
        <ele>902.82</ele>
        <time>2024-02-15T08:42:21Z</time>
      </trkpt>
      <trkpt lat="45.17149" lon="4.03281">
        <ele>906.66</ele>
        <time>2024-02-15T08:42:34Z</time>
      </trkpt>
      <trkpt lat="45.17151" lon="4.03274">
        <ele>907.14</ele>
        <time>2024-02-15T08:42:38Z</time>
      </trkpt>
      <trkpt lat="45.17168" lon="4.03242">
        <ele>909.06</ele>
        <time>2024-02-15T08:43:00Z</time>
      </trkpt>
      <trkpt lat="45.17177" lon="4.03226">
        <ele>910.03</ele>
        <time>2024-02-15T08:43:25Z</time>
      </trkpt>
      <trkpt lat="45.17177" lon="4.03221">
        <ele>910.51</ele>
        <time>2024-02-15T08:43:49Z</time>
      </trkpt>
      <trkpt lat="45.17176" lon="4.0322">
        <ele>910.03</ele>
        <time>2024-02-15T08:44:12Z</time>
      </trkpt>
      <trkpt lat="45.17177" lon="4.03216">
        <ele>910.03</ele>
        <time>2024-02-15T08:44:34Z</time>
      </trkpt>
      <trkpt lat="45.1718" lon="4.03213">
        <ele>910.51</ele>
        <time>2024-02-15T08:45:02Z</time>
      </trkpt>
      <trkpt lat="45.17179" lon="4.03214">
        <ele>910.51</ele>
        <time>2024-02-15T08:45:25Z</time>
      </trkpt>
      <trkpt lat="45.17185" lon="4.03206">
        <ele>912.91</ele>
        <time>2024-02-15T08:45:42Z</time>
      </trkpt>
      <trkpt lat="45.17189" lon="4.03203">
        <ele>914.83</ele>
        <time>2024-02-15T08:45:45Z</time>
      </trkpt>
      <trkpt lat="45.17201" lon="4.03198">
        <ele>917.72</ele>
        <time>2024-02-15T08:45:56Z</time>
      </trkpt>
      <trkpt lat="45.17208" lon="4.03195">
        <ele>919.16</ele>
        <time>2024-02-15T08:46:10Z</time>
      </trkpt>
      <trkpt lat="45.17212" lon="4.03189">
        <ele>920.6</ele>
        <time>2024-02-15T08:46:33Z</time>
      </trkpt>
      <trkpt lat="45.17216" lon="4.03168">
        <ele>922.52</ele>
        <time>2024-02-15T08:46:46Z</time>
      </trkpt>
      <trkpt lat="45.17212" lon="4.03154">
        <ele>925.41</ele>
        <time>2024-02-15T08:47:10Z</time>
      </trkpt>
      <trkpt lat="45.17207" lon="4.03147">
        <ele>927.33</ele>
        <time>2024-02-15T08:47:32Z</time>
      </trkpt>
      <trkpt lat="45.17204" lon="4.03139">
        <ele>929.73</ele>
        <time>2024-02-15T08:47:52Z</time>
      </trkpt>
      <trkpt lat="45.17204" lon="4.03132">
        <ele>931.65</ele>
        <time>2024-02-15T08:48:14Z</time>
      </trkpt>
      <trkpt lat="45.172" lon="4.03115">
        <ele>935.02</ele>
        <time>2024-02-15T08:48:36Z</time>
      </trkpt>
      <trkpt lat="45.17198" lon="4.03096">
        <ele>940.31</ele>
        <time>2024-02-15T08:48:57Z</time>
      </trkpt>
      <trkpt lat="45.17207" lon="4.03082">
        <ele>946.07</ele>
        <time>2024-02-15T08:49:16Z</time>
      </trkpt>
      <trkpt lat="45.17209" lon="4.03068">
        <ele>949.44</ele>
        <time>2024-02-15T08:49:34Z</time>
      </trkpt>
      <trkpt lat="45.17207" lon="4.03054">
        <ele>953.28</ele>
        <time>2024-02-15T08:49:54Z</time>
      </trkpt>
      <trkpt lat="45.1721" lon="4.03046">
        <ele>958.57</ele>
        <time>2024-02-15T08:50:13Z</time>
      </trkpt>
      <trkpt lat="45.172" lon="4.03034">
        <ele>960.98</ele>
        <time>2024-02-15T08:50:34Z</time>
      </trkpt>
      <trkpt lat="45.17193" lon="4.03033">
        <ele>964.34</ele>
        <time>2024-02-15T08:50:55Z</time>
      </trkpt>
      <trkpt lat="45.17182" lon="4.03023">
        <ele>968.67</ele>
        <time>2024-02-15T08:51:12Z</time>
      </trkpt>
      <trkpt lat="45.17169" lon="4.03017">
        <ele>968.67</ele>
        <time>2024-02-15T08:51:33Z</time>
      </trkpt>
      <trkpt lat="45.17163" lon="4.03005">
        <ele>970.11</ele>
        <time>2024-02-15T08:51:50Z</time>
      </trkpt>
      <trkpt lat="45.17157" lon="4.02982">
        <ele>971.55</ele>
        <time>2024-02-15T08:52:13Z</time>
      </trkpt>
      <trkpt lat="45.17151" lon="4.02965">
        <ele>974.43</ele>
        <time>2024-02-15T08:52:34Z</time>
      </trkpt>
      <trkpt lat="45.17147" lon="4.02947">
        <ele>979.72</ele>
        <time>2024-02-15T08:52:58Z</time>
      </trkpt>
      <trkpt lat="45.17143" lon="4.02919">
        <ele>986.45</ele>
        <time>2024-02-15T08:53:21Z</time>
      </trkpt>
      <trkpt lat="45.17116" lon="4.02914">
        <ele>994.62</ele>
        <time>2024-02-15T08:53:44Z</time>
      </trkpt>
      <trkpt lat="45.17093" lon="4.02929">
        <ele>1004.23</ele>
        <time>2024-02-15T08:54:04Z</time>
      </trkpt>
      <trkpt lat="45.17079" lon="4.0293">
        <ele>1010</ele>
        <time>2024-02-15T08:54:22Z</time>
      </trkpt>
      <trkpt lat="45.17085" lon="4.0292">
        <ele>1014.33</ele>
        <time>2024-02-15T08:54:42Z</time>
      </trkpt>
      <trkpt lat="45.17094" lon="4.02886">
        <ele>1017.21</ele>
        <time>2024-02-15T08:55:04Z</time>
      </trkpt>
      <trkpt lat="45.17099" lon="4.02857">
        <ele>1014.33</ele>
        <time>2024-02-15T08:55:24Z</time>
      </trkpt>
      <trkpt lat="45.17088" lon="4.0284">
        <ele>1016.73</ele>
        <time>2024-02-15T08:55:42Z</time>
      </trkpt>
      <trkpt lat="45.17076" lon="4.02837">
        <ele>1019.13</ele>
        <time>2024-02-15T08:55:54Z</time>
      </trkpt>
      <trkpt lat="45.17066" lon="4.02831">
        <ele>1020.58</ele>
        <time>2024-02-15T08:56:06Z</time>
      </trkpt>
      <trkpt lat="45.17055" lon="4.02807">
        <ele>1022.02</ele>
        <time>2024-02-15T08:56:24Z</time>
      </trkpt>
      <trkpt lat="45.17048" lon="4.02797">
        <ele>1022.5</ele>
        <time>2024-02-15T08:56:28Z</time>
      </trkpt>
      <trkpt lat="45.17046" lon="4.02791">
        <ele>1025.86</ele>
        <time>2024-02-15T08:56:40Z</time>
      </trkpt>
      <trkpt lat="45.17055" lon="4.02766">
        <ele>1029.23</ele>
        <time>2024-02-15T08:57:00Z</time>
      </trkpt>
      <trkpt lat="45.17045" lon="4.02748">
        <ele>1028.75</ele>
        <time>2024-02-15T08:57:20Z</time>
      </trkpt>
      <trkpt lat="45.17042" lon="4.02744">
        <ele>1028.27</ele>
        <time>2024-02-15T08:57:43Z</time>
      </trkpt>
      <trkpt lat="45.17043" lon="4.02747">
        <ele>1027.31</ele>
        <time>2024-02-15T08:58:05Z</time>
      </trkpt>
      <trkpt lat="45.1705" lon="4.02743">
        <ele>1025.86</ele>
        <time>2024-02-15T08:58:09Z</time>
      </trkpt>
      <trkpt lat="45.17063" lon="4.02727">
        <ele>1025.86</ele>
        <time>2024-02-15T08:58:26Z</time>
      </trkpt>
      <trkpt lat="45.17068" lon="4.02724">
        <ele>1026.34</ele>
        <time>2024-02-15T08:58:42Z</time>
      </trkpt>
      <trkpt lat="45.17081" lon="4.02713">
        <ele>1029.23</ele>
        <time>2024-02-15T08:58:52Z</time>
      </trkpt>
      <trkpt lat="45.17092" lon="4.02706">
        <ele>1031.63</ele>
        <time>2024-02-15T08:59:02Z</time>
      </trkpt>
      <trkpt lat="45.17095" lon="4.02702">
        <ele>1033.55</ele>
        <time>2024-02-15T08:59:05Z</time>
      </trkpt>
      <trkpt lat="45.17107" lon="4.02689">
        <ele>1037.4</ele>
        <time>2024-02-15T08:59:21Z</time>
      </trkpt>
      <trkpt lat="45.17118" lon="4.02668">
        <ele>1036.44</ele>
        <time>2024-02-15T08:59:44Z</time>
      </trkpt>
      <trkpt lat="45.17126" lon="4.02647">
        <ele>1035.48</ele>
        <time>2024-02-15T08:59:58Z</time>
      </trkpt>
      <trkpt lat="45.17136" lon="4.02639">
        <ele>1036.44</ele>
        <time>2024-02-15T09:00:11Z</time>
      </trkpt>
      <trkpt lat="45.17165" lon="4.02653">
        <ele>1035.48</ele>
        <time>2024-02-15T09:00:32Z</time>
      </trkpt>
      <trkpt lat="45.17182" lon="4.02645">
        <ele>1033.55</ele>
        <time>2024-02-15T09:00:45Z</time>
      </trkpt>
      <trkpt lat="45.17204" lon="4.02624">
        <ele>1033.55</ele>
        <time>2024-02-15T09:01:05Z</time>
      </trkpt>
      <trkpt lat="45.17211" lon="4.02617">
        <ele>1031.15</ele>
        <time>2024-02-15T09:01:14Z</time>
      </trkpt>
      <trkpt lat="45.17228" lon="4.02617">
        <ele>1032.11</ele>
        <time>2024-02-15T09:01:29Z</time>
      </trkpt>
      <trkpt lat="45.17242" lon="4.02608">
        <ele>1033.07</ele>
        <time>2024-02-15T09:01:40Z</time>
      </trkpt>
      <trkpt lat="45.17248" lon="4.02599">
        <ele>1031.15</ele>
        <time>2024-02-15T09:01:47Z</time>
      </trkpt>
      <trkpt lat="45.17261" lon="4.02588">
        <ele>1031.63</ele>
        <time>2024-02-15T09:02:00Z</time>
      </trkpt>
      <trkpt lat="45.1727" lon="4.02576">
        <ele>1029.23</ele>
        <time>2024-02-15T09:02:12Z</time>
      </trkpt>
      <trkpt lat="45.17272" lon="4.02573">
        <ele>1028.75</ele>
        <time>2024-02-15T09:02:15Z</time>
      </trkpt>
      <trkpt lat="45.1729" lon="4.02569">
        <ele>1023.46</ele>
        <time>2024-02-15T09:02:29Z</time>
      </trkpt>
      <trkpt lat="45.17294" lon="4.02567">
        <ele>1022.98</ele>
        <time>2024-02-15T09:02:32Z</time>
      </trkpt>
      <trkpt lat="45.17308" lon="4.02561">
        <ele>1022.02</ele>
        <time>2024-02-15T09:02:46Z</time>
      </trkpt>
      <trkpt lat="45.17309" lon="4.0256">
        <ele>1021.54</ele>
        <time>2024-02-15T09:02:47Z</time>
      </trkpt>
      <trkpt lat="45.17329" lon="4.02561">
        <ele>1020.58</ele>
        <time>2024-02-15T09:03:04Z</time>
      </trkpt>
      <trkpt lat="45.17335" lon="4.02557">
        <ele>1019.13</ele>
        <time>2024-02-15T09:03:10Z</time>
      </trkpt>
      <trkpt lat="45.1734" lon="4.02554">
        <ele>1016.73</ele>
        <time>2024-02-15T09:03:16Z</time>
      </trkpt>
      <trkpt lat="45.17358" lon="4.02544">
        <ele>1009.04</ele>
        <time>2024-02-15T09:03:32Z</time>
      </trkpt>
      <trkpt lat="45.1736" lon="4.0254">
        <ele>1007.6</ele>
        <time>2024-02-15T09:03:38Z</time>
      </trkpt>
      <trkpt lat="45.17373" lon="4.02525">
        <ele>1002.31</ele>
        <time>2024-02-15T09:03:57Z</time>
      </trkpt>
      <trkpt lat="45.17386" lon="4.0252">
        <ele>998.47</ele>
        <time>2024-02-15T09:04:20Z</time>
      </trkpt>
      <trkpt lat="45.17391" lon="4.02498">
        <ele>993.66</ele>
        <time>2024-02-15T09:04:43Z</time>
      </trkpt>
      <trkpt lat="45.17401" lon="4.02466">
        <ele>988.37</ele>
        <time>2024-02-15T09:04:58Z</time>
      </trkpt>
      <trkpt lat="45.17407" lon="4.02455">
        <ele>985.97</ele>
        <time>2024-02-15T09:05:07Z</time>
      </trkpt>
      <trkpt lat="45.17408" lon="4.02449">
        <ele>985.01</ele>
        <time>2024-02-15T09:05:11Z</time>
      </trkpt>
      <trkpt lat="45.17406" lon="4.02429">
        <ele>983.09</ele>
        <time>2024-02-15T09:05:25Z</time>
      </trkpt>
      <trkpt lat="45.17408" lon="4.02413">
        <ele>980.68</ele>
        <time>2024-02-15T09:05:38Z</time>
      </trkpt>
      <trkpt lat="45.17407" lon="4.0241">
        <ele>980.2</ele>
        <time>2024-02-15T09:05:40Z</time>
      </trkpt>
      <trkpt lat="45.17406" lon="4.02389">
        <ele>975.88</ele>
        <time>2024-02-15T09:05:55Z</time>
      </trkpt>
      <trkpt lat="45.17401" lon="4.02366">
        <ele>973.47</ele>
        <time>2024-02-15T09:06:08Z</time>
      </trkpt>
      <trkpt lat="45.174" lon="4.0236">
        <ele>972.51</ele>
        <time>2024-02-15T09:06:12Z</time>
      </trkpt>
      <trkpt lat="45.17392" lon="4.02323">
        <ele>970.59</ele>
        <time>2024-02-15T09:06:29Z</time>
      </trkpt>
      <trkpt lat="45.17386" lon="4.02298">
        <ele>967.22</ele>
        <time>2024-02-15T09:06:44Z</time>
      </trkpt>
      <trkpt lat="45.17383" lon="4.02284">
        <ele>966.74</ele>
        <time>2024-02-15T09:06:54Z</time>
      </trkpt>
      <trkpt lat="45.17381" lon="4.02273">
        <ele>968.18</ele>
        <time>2024-02-15T09:06:59Z</time>
      </trkpt>
      <trkpt lat="45.17373" lon="4.02258">
        <ele>970.11</ele>
        <time>2024-02-15T09:07:12Z</time>
      </trkpt>
      <trkpt lat="45.17357" lon="4.0225">
        <ele>969.63</ele>
        <time>2024-02-15T09:07:26Z</time>
      </trkpt>
      <trkpt lat="45.17342" lon="4.02241">
        <ele>970.11</ele>
        <time>2024-02-15T09:07:40Z</time>
      </trkpt>
      <trkpt lat="45.1733" lon="4.02236">
        <ele>970.59</ele>
        <time>2024-02-15T09:07:53Z</time>
      </trkpt>
      <trkpt lat="45.17316" lon="4.0223">
        <ele>971.55</ele>
        <time>2024-02-15T09:08:06Z</time>
      </trkpt>
      <trkpt lat="45.17297" lon="4.02225">
        <ele>974.43</ele>
        <time>2024-02-15T09:08:20Z</time>
      </trkpt>
      <trkpt lat="45.17275" lon="4.02223">
        <ele>975.39</ele>
        <time>2024-02-15T09:08:35Z</time>
      </trkpt>
      <trkpt lat="45.17257" lon="4.02219">
        <ele>974.91</ele>
        <time>2024-02-15T09:08:48Z</time>
      </trkpt>
      <trkpt lat="45.17244" lon="4.02216">
        <ele>977.8</ele>
        <time>2024-02-15T09:08:59Z</time>
      </trkpt>
      <trkpt lat="45.17231" lon="4.02196">
        <ele>977.8</ele>
        <time>2024-02-15T09:09:11Z</time>
      </trkpt>
      <trkpt lat="45.17229" lon="4.0219">
        <ele>977.8</ele>
        <time>2024-02-15T09:09:17Z</time>
      </trkpt>
      <trkpt lat="45.17224" lon="4.02178">
        <ele>979.72</ele>
        <time>2024-02-15T09:09:25Z</time>
      </trkpt>
      <trkpt lat="45.17216" lon="4.02177">
        <ele>982.6</ele>
        <time>2024-02-15T09:09:31Z</time>
      </trkpt>
      <trkpt lat="45.17205" lon="4.02172">
        <ele>985.97</ele>
        <time>2024-02-15T09:09:41Z</time>
      </trkpt>
      <trkpt lat="45.17185" lon="4.02176">
        <ele>989.81</ele>
        <time>2024-02-15T09:09:56Z</time>
      </trkpt>
      <trkpt lat="45.17179" lon="4.02173">
        <ele>989.33</ele>
        <time>2024-02-15T09:10:02Z</time>
      </trkpt>
      <trkpt lat="45.17158" lon="4.02173">
        <ele>986.45</ele>
        <time>2024-02-15T09:10:17Z</time>
      </trkpt>
      <trkpt lat="45.17139" lon="4.02174">
        <ele>983.57</ele>
        <time>2024-02-15T09:10:31Z</time>
      </trkpt>
      <trkpt lat="45.17119" lon="4.0218">
        <ele>979.24</ele>
        <time>2024-02-15T09:10:47Z</time>
      </trkpt>
      <trkpt lat="45.17103" lon="4.02188">
        <ele>975.88</ele>
        <time>2024-02-15T09:11:00Z</time>
      </trkpt>
      <trkpt lat="45.17085" lon="4.02199">
        <ele>973.47</ele>
        <time>2024-02-15T09:11:14Z</time>
      </trkpt>
      <trkpt lat="45.1708" lon="4.02202">
        <ele>972.03</ele>
        <time>2024-02-15T09:11:19Z</time>
      </trkpt>
      <trkpt lat="45.17066" lon="4.0221">
        <ele>968.67</ele>
        <time>2024-02-15T09:11:30Z</time>
      </trkpt>
      <trkpt lat="45.17064" lon="4.02211">
        <ele>968.67</ele>
        <time>2024-02-15T09:11:32Z</time>
      </trkpt>
      <trkpt lat="45.17048" lon="4.02225">
        <ele>964.34</ele>
        <time>2024-02-15T09:11:49Z</time>
      </trkpt>
      <trkpt lat="45.17032" lon="4.02239">
        <ele>961.94</ele>
        <time>2024-02-15T09:12:03Z</time>
      </trkpt>
      <trkpt lat="45.17018" lon="4.0225">
        <ele>963.38</ele>
        <time>2024-02-15T09:12:15Z</time>
      </trkpt>
      <trkpt lat="45.16998" lon="4.02262">
        <ele>964.34</ele>
        <time>2024-02-15T09:12:32Z</time>
      </trkpt>
      <trkpt lat="45.1699" lon="4.02268">
        <ele>965.3</ele>
        <time>2024-02-15T09:12:45Z</time>
      </trkpt>
      <trkpt lat="45.16988" lon="4.02268">
        <ele>964.82</ele>
        <time>2024-02-15T09:12:48Z</time>
      </trkpt>
      <trkpt lat="45.16969" lon="4.02279">
        <ele>964.82</ele>
        <time>2024-02-15T09:13:02Z</time>
      </trkpt>
      <trkpt lat="45.16947" lon="4.02291">
        <ele>966.26</ele>
        <time>2024-02-15T09:13:17Z</time>
      </trkpt>
      <trkpt lat="45.16934" lon="4.02299">
        <ele>966.74</ele>
        <time>2024-02-15T09:13:28Z</time>
      </trkpt>
      <trkpt lat="45.16932" lon="4.02287">
        <ele>965.3</ele>
        <time>2024-02-15T09:13:39Z</time>
      </trkpt>
      <trkpt lat="45.16928" lon="4.02268">
        <ele>962.9</ele>
        <time>2024-02-15T09:13:49Z</time>
      </trkpt>
      <trkpt lat="45.16924" lon="4.02248">
        <ele>960.01</ele>
        <time>2024-02-15T09:14:00Z</time>
      </trkpt>
      <trkpt lat="45.16923" lon="4.02243">
        <ele>959.53</ele>
        <time>2024-02-15T09:14:04Z</time>
      </trkpt>
      <trkpt lat="45.16917" lon="4.02225">
        <ele>957.13</ele>
        <time>2024-02-15T09:14:16Z</time>
      </trkpt>
      <trkpt lat="45.16916" lon="4.0222">
        <ele>956.17</ele>
        <time>2024-02-15T09:14:21Z</time>
      </trkpt>
      <trkpt lat="45.16915" lon="4.02216">
        <ele>956.17</ele>
        <time>2024-02-15T09:14:23Z</time>
      </trkpt>
      <trkpt lat="45.16907" lon="4.02203">
        <ele>954.25</ele>
        <time>2024-02-15T09:14:34Z</time>
      </trkpt>
      <trkpt lat="45.16901" lon="4.02191">
        <ele>951.84</ele>
        <time>2024-02-15T09:14:41Z</time>
      </trkpt>
      <trkpt lat="45.16902" lon="4.02172">
        <ele>948</ele>
        <time>2024-02-15T09:14:51Z</time>
      </trkpt>
      <trkpt lat="45.169" lon="4.02148">
        <ele>947.52</ele>
        <time>2024-02-15T09:15:03Z</time>
      </trkpt>
      <trkpt lat="45.16899" lon="4.02146">
        <ele>947.52</ele>
        <time>2024-02-15T09:15:05Z</time>
      </trkpt>
      <trkpt lat="45.16892" lon="4.0213">
        <ele>946.07</ele>
        <time>2024-02-15T09:15:15Z</time>
      </trkpt>
      <trkpt lat="45.16888" lon="4.02122">
        <ele>945.11</ele>
        <time>2024-02-15T09:15:20Z</time>
      </trkpt>
      <trkpt lat="45.1688" lon="4.02102">
        <ele>945.11</ele>
        <time>2024-02-15T09:15:32Z</time>
      </trkpt>
      <trkpt lat="45.16864" lon="4.02073">
        <ele>944.63</ele>
        <time>2024-02-15T09:15:53Z</time>
      </trkpt>
      <trkpt lat="45.16841" lon="4.0206">
        <ele>941.75</ele>
        <time>2024-02-15T09:16:12Z</time>
      </trkpt>
      <trkpt lat="45.1683" lon="4.02034">
        <ele>936.46</ele>
        <time>2024-02-15T09:16:30Z</time>
      </trkpt>
      <trkpt lat="45.16822" lon="4.02024">
        <ele>933.1</ele>
        <time>2024-02-15T09:16:39Z</time>
      </trkpt>
      <trkpt lat="45.1682" lon="4.02015">
        <ele>932.62</ele>
        <time>2024-02-15T09:16:44Z</time>
      </trkpt>
      <trkpt lat="45.16805" lon="4.01989">
        <ele>927.33</ele>
        <time>2024-02-15T09:17:04Z</time>
      </trkpt>
      <trkpt lat="45.16797" lon="4.01963">
        <ele>922.04</ele>
        <time>2024-02-15T09:17:22Z</time>
      </trkpt>
      <trkpt lat="45.16781" lon="4.01932">
        <ele>916.27</ele>
        <time>2024-02-15T09:17:42Z</time>
      </trkpt>
      <trkpt lat="45.1678" lon="4.01909">
        <ele>913.39</ele>
        <time>2024-02-15T09:17:58Z</time>
      </trkpt>
      <trkpt lat="45.16779" lon="4.01876">
        <ele>910.99</ele>
        <time>2024-02-15T09:18:18Z</time>
      </trkpt>
      <trkpt lat="45.16766" lon="4.0185">
        <ele>902.82</ele>
        <time>2024-02-15T09:18:37Z</time>
      </trkpt>
      <trkpt lat="45.16768" lon="4.01835">
        <ele>899.93</ele>
        <time>2024-02-15T09:18:48Z</time>
      </trkpt>
      <trkpt lat="45.16763" lon="4.01816">
        <ele>898.49</ele>
        <time>2024-02-15T09:19:05Z</time>
      </trkpt>
      <trkpt lat="45.16783" lon="4.01808">
        <ele>898.97</ele>
        <time>2024-02-15T09:19:27Z</time>
      </trkpt>
      <trkpt lat="45.16801" lon="4.0179">
        <ele>901.37</ele>
        <time>2024-02-15T09:19:48Z</time>
      </trkpt>
      <trkpt lat="45.16807" lon="4.01782">
        <ele>903.3</ele>
        <time>2024-02-15T09:19:54Z</time>
      </trkpt>
      <trkpt lat="45.1682" lon="4.01766">
        <ele>902.33</ele>
        <time>2024-02-15T09:20:12Z</time>
      </trkpt>
      <trkpt lat="45.16836" lon="4.01742">
        <ele>902.82</ele>
        <time>2024-02-15T09:20:36Z</time>
      </trkpt>
      <trkpt lat="45.16862" lon="4.0172">
        <ele>904.26</ele>
        <time>2024-02-15T09:20:55Z</time>
      </trkpt>
      <trkpt lat="45.16889" lon="4.01707">
        <ele>906.66</ele>
        <time>2024-02-15T09:21:16Z</time>
      </trkpt>
      <trkpt lat="45.16904" lon="4.01705">
        <ele>907.62</ele>
        <time>2024-02-15T09:21:31Z</time>
      </trkpt>
      <trkpt lat="45.16909" lon="4.01707">
        <ele>908.1</ele>
        <time>2024-02-15T09:21:36Z</time>
      </trkpt>
      <trkpt lat="45.16926" lon="4.01718">
        <ele>912.91</ele>
        <time>2024-02-15T09:21:53Z</time>
      </trkpt>
      <trkpt lat="45.16936" lon="4.01726">
        <ele>916.75</ele>
        <time>2024-02-15T09:22:05Z</time>
      </trkpt>
      <trkpt lat="45.16945" lon="4.01731">
        <ele>921.08</ele>
        <time>2024-02-15T09:22:16Z</time>
      </trkpt>
      <trkpt lat="45.16964" lon="4.01737">
        <ele>924.93</ele>
        <time>2024-02-15T09:22:35Z</time>
      </trkpt>
      <trkpt lat="45.16968" lon="4.01732">
        <ele>925.89</ele>
        <time>2024-02-15T09:22:57Z</time>
      </trkpt>
      <trkpt lat="45.16973" lon="4.01731">
        <ele>926.85</ele>
        <time>2024-02-15T09:23:10Z</time>
      </trkpt>
      <trkpt lat="45.16976" lon="4.01731">
        <ele>926.37</ele>
        <time>2024-02-15T09:23:14Z</time>
      </trkpt>
      <trkpt lat="45.16994" lon="4.01722">
        <ele>923.96</ele>
        <time>2024-02-15T09:23:30Z</time>
      </trkpt>
      <trkpt lat="45.17" lon="4.01717">
        <ele>923</ele>
        <time>2024-02-15T09:23:42Z</time>
      </trkpt>
      <trkpt lat="45.17012" lon="4.01712">
        <ele>922.52</ele>
        <time>2024-02-15T09:23:52Z</time>
      </trkpt>
      <trkpt lat="45.17026" lon="4.01701">
        <ele>925.41</ele>
        <time>2024-02-15T09:24:02Z</time>
      </trkpt>
      <trkpt lat="45.17029" lon="4.01699">
        <ele>925.89</ele>
        <time>2024-02-15T09:24:05Z</time>
      </trkpt>
      <trkpt lat="45.17039" lon="4.01687">
        <ele>926.85</ele>
        <time>2024-02-15T09:24:14Z</time>
      </trkpt>
      <trkpt lat="45.17047" lon="4.01677">
        <ele>928.77</ele>
        <time>2024-02-15T09:24:23Z</time>
      </trkpt>
      <trkpt lat="45.17054" lon="4.01672">
        <ele>930.21</ele>
        <time>2024-02-15T09:24:30Z</time>
      </trkpt>
      <trkpt lat="45.17058" lon="4.01672">
        <ele>931.65</ele>
        <time>2024-02-15T09:24:34Z</time>
      </trkpt>
      <trkpt lat="45.17059" lon="4.01674">
        <ele>931.65</ele>
        <time>2024-02-15T09:24:36Z</time>
      </trkpt>
      <trkpt lat="45.17073" lon="4.01681">
        <ele>933.1</ele>
        <time>2024-02-15T09:24:49Z</time>
      </trkpt>
      <trkpt lat="45.17073" lon="4.01681">
        <ele>933.58</ele>
        <time>2024-02-15T09:24:50Z</time>
      </trkpt>
      <trkpt lat="45.17076" lon="4.01685">
        <ele>934.06</ele>
        <time>2024-02-15T09:24:54Z</time>
      </trkpt>
      <trkpt lat="45.17081" lon="4.0169">
        <ele>935.02</ele>
        <time>2024-02-15T09:25:00Z</time>
      </trkpt>
      <trkpt lat="45.1709" lon="4.01691">
        <ele>935.98</ele>
        <time>2024-02-15T09:25:11Z</time>
      </trkpt>
      <trkpt lat="45.17093" lon="4.01681">
        <ele>937.42</ele>
        <time>2024-02-15T09:25:25Z</time>
      </trkpt>
      <trkpt lat="45.17096" lon="4.01668">
        <ele>937.9</ele>
        <time>2024-02-15T09:25:44Z</time>
      </trkpt>
      <trkpt lat="45.17098" lon="4.01664">
        <ele>938.38</ele>
        <time>2024-02-15T09:26:04Z</time>
      </trkpt>
      <trkpt lat="45.17102" lon="4.01656">
        <ele>939.83</ele>
        <time>2024-02-15T09:26:28Z</time>
      </trkpt>
      <trkpt lat="45.171" lon="4.01652">
        <ele>940.31</ele>
        <time>2024-02-15T09:26:51Z</time>
      </trkpt>
      <trkpt lat="45.171" lon="4.01646">
        <ele>939.83</ele>
        <time>2024-02-15T09:27:16Z</time>
      </trkpt>
      <trkpt lat="45.17108" lon="4.01627">
        <ele>941.75</ele>
        <time>2024-02-15T09:27:37Z</time>
      </trkpt>
      <trkpt lat="45.17112" lon="4.01612">
        <ele>942.23</ele>
        <time>2024-02-15T09:27:56Z</time>
      </trkpt>
      <trkpt lat="45.1713" lon="4.01569">
        <ele>944.15</ele>
        <time>2024-02-15T09:28:17Z</time>
      </trkpt>
      <trkpt lat="45.17144" lon="4.01555">
        <ele>948.96</ele>
        <time>2024-02-15T09:28:39Z</time>
      </trkpt>
      <trkpt lat="45.17163" lon="4.01545">
        <ele>955.69</ele>
        <time>2024-02-15T09:29:00Z</time>
      </trkpt>
      <trkpt lat="45.17176" lon="4.01535">
        <ele>959.05</ele>
        <time>2024-02-15T09:29:20Z</time>
      </trkpt>
      <trkpt lat="45.17182" lon="4.01527">
        <ele>959.53</ele>
        <time>2024-02-15T09:29:34Z</time>
      </trkpt>
      <trkpt lat="45.17204" lon="4.01499">
        <ele>962.42</ele>
        <time>2024-02-15T09:29:56Z</time>
      </trkpt>
      <trkpt lat="45.17223" lon="4.01481">
        <ele>968.18</ele>
        <time>2024-02-15T09:30:16Z</time>
      </trkpt>
      <trkpt lat="45.17225" lon="4.0148">
        <ele>968.67</ele>
        <time>2024-02-15T09:30:18Z</time>
      </trkpt>
      <trkpt lat="45.17229" lon="4.01479">
        <ele>969.63</ele>
        <time>2024-02-15T09:30:22Z</time>
      </trkpt>
      <trkpt lat="45.17232" lon="4.01477">
        <ele>970.11</ele>
        <time>2024-02-15T09:30:27Z</time>
      </trkpt>
      <trkpt lat="45.17235" lon="4.01463">
        <ele>970.11</ele>
        <time>2024-02-15T09:30:36Z</time>
      </trkpt>
      <trkpt lat="45.17237" lon="4.01446">
        <ele>969.63</ele>
        <time>2024-02-15T09:30:45Z</time>
      </trkpt>
      <trkpt lat="45.17237" lon="4.01444">
        <ele>969.63</ele>
        <time>2024-02-15T09:30:46Z</time>
      </trkpt>
      <trkpt lat="45.17234" lon="4.01425">
        <ele>969.63</ele>
        <time>2024-02-15T09:30:57Z</time>
      </trkpt>
      <trkpt lat="45.17228" lon="4.01406">
        <ele>970.11</ele>
        <time>2024-02-15T09:31:08Z</time>
      </trkpt>
      <trkpt lat="45.17226" lon="4.01389">
        <ele>972.03</ele>
        <time>2024-02-15T09:31:20Z</time>
      </trkpt>
      <trkpt lat="45.17226" lon="4.01374">
        <ele>972.03</ele>
        <time>2024-02-15T09:31:28Z</time>
      </trkpt>
      <trkpt lat="45.17234" lon="4.01361">
        <ele>973.47</ele>
        <time>2024-02-15T09:31:39Z</time>
      </trkpt>
      <trkpt lat="45.17243" lon="4.01356">
        <ele>974.43</ele>
        <time>2024-02-15T09:31:49Z</time>
      </trkpt>
      <trkpt lat="45.17259" lon="4.01346">
        <ele>976.36</ele>
        <time>2024-02-15T09:32:03Z</time>
      </trkpt>
      <trkpt lat="45.17268" lon="4.01339">
        <ele>978.28</ele>
        <time>2024-02-15T09:32:13Z</time>
      </trkpt>
      <trkpt lat="45.17279" lon="4.01333">
        <ele>980.68</ele>
        <time>2024-02-15T09:32:24Z</time>
      </trkpt>
      <trkpt lat="45.1728" lon="4.01333">
        <ele>980.68</ele>
        <time>2024-02-15T09:32:25Z</time>
      </trkpt>
      <trkpt lat="45.17292" lon="4.0133">
        <ele>983.09</ele>
        <time>2024-02-15T09:32:36Z</time>
      </trkpt>
      <trkpt lat="45.17293" lon="4.0133">
        <ele>983.57</ele>
        <time>2024-02-15T09:32:37Z</time>
      </trkpt>
      <trkpt lat="45.17305" lon="4.01332">
        <ele>985.97</ele>
        <time>2024-02-15T09:32:49Z</time>
      </trkpt>
      <trkpt lat="45.17321" lon="4.01334">
        <ele>986.45</ele>
        <time>2024-02-15T09:33:00Z</time>
      </trkpt>
      <trkpt lat="45.17333" lon="4.0134">
        <ele>987.41</ele>
        <time>2024-02-15T09:33:10Z</time>
      </trkpt>
      <trkpt lat="45.17343" lon="4.0135">
        <ele>988.85</ele>
        <time>2024-02-15T09:33:20Z</time>
      </trkpt>
      <trkpt lat="45.17353" lon="4.01361">
        <ele>991.74</ele>
        <time>2024-02-15T09:33:30Z</time>
      </trkpt>
      <trkpt lat="45.17365" lon="4.01371">
        <ele>993.66</ele>
        <time>2024-02-15T09:33:40Z</time>
      </trkpt>
      <trkpt lat="45.17367" lon="4.01372">
        <ele>993.66</ele>
        <time>2024-02-15T09:33:41Z</time>
      </trkpt>
      <trkpt lat="45.17373" lon="4.0139">
        <ele>992.22</ele>
        <time>2024-02-15T09:33:51Z</time>
      </trkpt>
      <trkpt lat="45.17378" lon="4.01402">
        <ele>990.78</ele>
        <time>2024-02-15T09:33:57Z</time>
      </trkpt>
      <trkpt lat="45.17382" lon="4.01406">
        <ele>990.3</ele>
        <time>2024-02-15T09:34:01Z</time>
      </trkpt>
      <trkpt lat="45.17385" lon="4.01409">
        <ele>989.33</ele>
        <time>2024-02-15T09:34:05Z</time>
      </trkpt>
      <trkpt lat="45.17401" lon="4.01418">
        <ele>989.33</ele>
        <time>2024-02-15T09:34:17Z</time>
      </trkpt>
      <trkpt lat="45.17405" lon="4.0142">
        <ele>988.85</ele>
        <time>2024-02-15T09:34:21Z</time>
      </trkpt>
      <trkpt lat="45.1742" lon="4.01431">
        <ele>988.37</ele>
        <time>2024-02-15T09:34:33Z</time>
      </trkpt>
      <trkpt lat="45.17424" lon="4.01433">
        <ele>988.85</ele>
        <time>2024-02-15T09:34:37Z</time>
      </trkpt>
      <trkpt lat="45.17439" lon="4.01425">
        <ele>990.78</ele>
        <time>2024-02-15T09:34:48Z</time>
      </trkpt>
      <trkpt lat="45.17441" lon="4.01421">
        <ele>991.74</ele>
        <time>2024-02-15T09:34:53Z</time>
      </trkpt>
      <trkpt lat="45.17447" lon="4.014">
        <ele>993.66</ele>
        <time>2024-02-15T09:35:05Z</time>
      </trkpt>
      <trkpt lat="45.17451" lon="4.01376">
        <ele>994.14</ele>
        <time>2024-02-15T09:35:16Z</time>
      </trkpt>
      <trkpt lat="45.17449" lon="4.01356">
        <ele>996.06</ele>
        <time>2024-02-15T09:35:27Z</time>
      </trkpt>
      <trkpt lat="45.17443" lon="4.0134">
        <ele>996.06</ele>
        <time>2024-02-15T09:35:38Z</time>
      </trkpt>
      <trkpt lat="45.17439" lon="4.01326">
        <ele>995.58</ele>
        <time>2024-02-15T09:35:47Z</time>
      </trkpt>
      <trkpt lat="45.17435" lon="4.01312">
        <ele>995.1</ele>
        <time>2024-02-15T09:35:55Z</time>
      </trkpt>
      <trkpt lat="45.17434" lon="4.01301">
        <ele>995.1</ele>
        <time>2024-02-15T09:36:02Z</time>
      </trkpt>
      <trkpt lat="45.17435" lon="4.01288">
        <ele>996.06</ele>
        <time>2024-02-15T09:36:10Z</time>
      </trkpt>
      <trkpt lat="45.17435" lon="4.01273">
        <ele>998.95</ele>
        <time>2024-02-15T09:36:19Z</time>
      </trkpt>
      <trkpt lat="45.1744" lon="4.01263">
        <ele>1003.75</ele>
        <time>2024-02-15T09:36:30Z</time>
      </trkpt>
      <trkpt lat="45.17442" lon="4.01252">
        <ele>1006.64</ele>
        <time>2024-02-15T09:36:37Z</time>
      </trkpt>
      <trkpt lat="45.17443" lon="4.01227">
        <ele>1010.48</ele>
        <time>2024-02-15T09:36:52Z</time>
      </trkpt>
      <trkpt lat="45.17444" lon="4.01209">
        <ele>1013.37</ele>
        <time>2024-02-15T09:37:01Z</time>
      </trkpt>
      <trkpt lat="45.17444" lon="4.01197">
        <ele>1015.77</ele>
        <time>2024-02-15T09:37:14Z</time>
      </trkpt>
      <trkpt lat="45.17445" lon="4.01185">
        <ele>1016.25</ele>
        <time>2024-02-15T09:37:31Z</time>
      </trkpt>
      <trkpt lat="45.17447" lon="4.01152">
        <ele>1017.21</ele>
        <time>2024-02-15T09:37:51Z</time>
      </trkpt>
      <trkpt lat="45.17448" lon="4.01135">
        <ele>1018.17</ele>
        <time>2024-02-15T09:38:12Z</time>
      </trkpt>
      <trkpt lat="45.1745" lon="4.01132">
        <ele>1018.17</ele>
        <time>2024-02-15T09:38:35Z</time>
      </trkpt>
      <trkpt lat="45.17451" lon="4.01095">
        <ele>1023.46</ele>
        <time>2024-02-15T09:38:57Z</time>
      </trkpt>
      <trkpt lat="45.17453" lon="4.01059">
        <ele>1028.27</ele>
        <time>2024-02-15T09:39:17Z</time>
      </trkpt>
      <trkpt lat="45.17447" lon="4.01033">
        <ele>1029.71</ele>
        <time>2024-02-15T09:39:36Z</time>
      </trkpt>
      <trkpt lat="45.17449" lon="4.01014">
        <ele>1031.15</ele>
        <time>2024-02-15T09:39:47Z</time>
      </trkpt>
      <trkpt lat="45.17456" lon="4.01006">
        <ele>1028.75</ele>
        <time>2024-02-15T09:39:54Z</time>
      </trkpt>
      <trkpt lat="45.17462" lon="4.01">
        <ele>1027.79</ele>
        <time>2024-02-15T09:39:59Z</time>
      </trkpt>
      <trkpt lat="45.17479" lon="4.00989">
        <ele>1025.38</ele>
        <time>2024-02-15T09:40:13Z</time>
      </trkpt>
      <trkpt lat="45.1748" lon="4.00988">
        <ele>1025.38</ele>
        <time>2024-02-15T09:40:14Z</time>
      </trkpt>
      <trkpt lat="45.17491" lon="4.00983">
        <ele>1025.38</ele>
        <time>2024-02-15T09:40:22Z</time>
      </trkpt>
      <trkpt lat="45.17505" lon="4.00971">
        <ele>1026.34</ele>
        <time>2024-02-15T09:40:36Z</time>
      </trkpt>
      <trkpt lat="45.17508" lon="4.00969">
        <ele>1026.83</ele>
        <time>2024-02-15T09:40:45Z</time>
      </trkpt>
      <trkpt lat="45.17523" lon="4.00954">
        <ele>1029.71</ele>
        <time>2024-02-15T09:41:01Z</time>
      </trkpt>
      <trkpt lat="45.17536" lon="4.00937">
        <ele>1033.07</ele>
        <time>2024-02-15T09:41:16Z</time>
      </trkpt>
      <trkpt lat="45.17547" lon="4.00921">
        <ele>1035</ele>
        <time>2024-02-15T09:41:30Z</time>
      </trkpt>
      <trkpt lat="45.17562" lon="4.00909">
        <ele>1036.44</ele>
        <time>2024-02-15T09:41:44Z</time>
      </trkpt>
      <trkpt lat="45.17566" lon="4.00903">
        <ele>1036.92</ele>
        <time>2024-02-15T09:41:49Z</time>
      </trkpt>
      <trkpt lat="45.17571" lon="4.00892">
        <ele>1038.36</ele>
        <time>2024-02-15T09:41:55Z</time>
      </trkpt>
      <trkpt lat="45.17581" lon="4.00878">
        <ele>1039.32</ele>
        <time>2024-02-15T09:42:08Z</time>
      </trkpt>
      <trkpt lat="45.17593" lon="4.00877">
        <ele>1038.84</ele>
        <time>2024-02-15T09:42:17Z</time>
      </trkpt>
      <trkpt lat="45.17608" lon="4.00871">
        <ele>1036.44</ele>
        <time>2024-02-15T09:42:28Z</time>
      </trkpt>
      <trkpt lat="45.17627" lon="4.00856">
        <ele>1032.11</ele>
        <time>2024-02-15T09:42:46Z</time>
      </trkpt>
      <trkpt lat="45.17648" lon="4.00836">
        <ele>1029.71</ele>
        <time>2024-02-15T09:43:01Z</time>
      </trkpt>
      <trkpt lat="45.17658" lon="4.00825">
        <ele>1027.79</ele>
        <time>2024-02-15T09:43:14Z</time>
      </trkpt>
      <trkpt lat="45.1767" lon="4.00813">
        <ele>1026.83</ele>
        <time>2024-02-15T09:43:28Z</time>
      </trkpt>
      <trkpt lat="45.17684" lon="4.00795">
        <ele>1026.83</ele>
        <time>2024-02-15T09:43:43Z</time>
      </trkpt>
      <trkpt lat="45.17699" lon="4.00785">
        <ele>1026.34</ele>
        <time>2024-02-15T09:43:58Z</time>
      </trkpt>
      <trkpt lat="45.17715" lon="4.00774">
        <ele>1021.06</ele>
        <time>2024-02-15T09:44:14Z</time>
      </trkpt>
      <trkpt lat="45.17718" lon="4.00772">
        <ele>1020.58</ele>
        <time>2024-02-15T09:44:16Z</time>
      </trkpt>
      <trkpt lat="45.17723" lon="4.00769">
        <ele>1019.62</ele>
        <time>2024-02-15T09:44:31Z</time>
      </trkpt>
      <trkpt lat="45.17726" lon="4.00769">
        <ele>1018.65</ele>
        <time>2024-02-15T09:44:47Z</time>
      </trkpt>
      <trkpt lat="45.17731" lon="4.00757">
        <ele>1013.85</ele>
        <time>2024-02-15T09:45:00Z</time>
      </trkpt>
      <trkpt lat="45.17743" lon="4.00736">
        <ele>1012.41</ele>
        <time>2024-02-15T09:45:17Z</time>
      </trkpt>
      <trkpt lat="45.17756" lon="4.00714">
        <ele>1007.12</ele>
        <time>2024-02-15T09:45:35Z</time>
      </trkpt>
      <trkpt lat="45.17764" lon="4.00689">
        <ele>1000.39</ele>
        <time>2024-02-15T09:45:49Z</time>
      </trkpt>
      <trkpt lat="45.17768" lon="4.00683">
        <ele>999.91</ele>
        <time>2024-02-15T09:45:55Z</time>
      </trkpt>
      <trkpt lat="45.17784" lon="4.00663">
        <ele>994.14</ele>
        <time>2024-02-15T09:46:07Z</time>
      </trkpt>
      <trkpt lat="45.17785" lon="4.00662">
        <ele>991.74</ele>
        <time>2024-02-15T09:46:25Z</time>
      </trkpt>
      <trkpt lat="45.17783" lon="4.00662">
        <ele>989.81</ele>
        <time>2024-02-15T09:46:41Z</time>
      </trkpt>
      <trkpt lat="45.17786" lon="4.00663">
        <ele>988.85</ele>
        <time>2024-02-15T09:46:51Z</time>
      </trkpt>
      <trkpt lat="45.17786" lon="4.00666">
        <ele>988.37</ele>
        <time>2024-02-15T09:46:57Z</time>
      </trkpt>
      <trkpt lat="45.17791" lon="4.00676">
        <ele>988.37</ele>
        <time>2024-02-15T09:47:04Z</time>
      </trkpt>
      <trkpt lat="45.17802" lon="4.00688">
        <ele>987.89</ele>
        <time>2024-02-15T09:47:15Z</time>
      </trkpt>
      <trkpt lat="45.17813" lon="4.00692">
        <ele>987.89</ele>
        <time>2024-02-15T09:47:23Z</time>
      </trkpt>
      <trkpt lat="45.1782" lon="4.00678">
        <ele>987.41</ele>
        <time>2024-02-15T09:47:35Z</time>
      </trkpt>
      <trkpt lat="45.17834" lon="4.00656">
        <ele>980.68</ele>
        <time>2024-02-15T09:47:49Z</time>
      </trkpt>
      <trkpt lat="45.17837" lon="4.00656">
        <ele>979.72</ele>
        <time>2024-02-15T09:47:52Z</time>
      </trkpt>
      <trkpt lat="45.17841" lon="4.00663">
        <ele>975.39</ele>
        <time>2024-02-15T09:48:00Z</time>
      </trkpt>
      <trkpt lat="45.17853" lon="4.00672">
        <ele>972.03</ele>
        <time>2024-02-15T09:48:14Z</time>
      </trkpt>
      <trkpt lat="45.17866" lon="4.00675">
        <ele>969.63</ele>
        <time>2024-02-15T09:48:27Z</time>
      </trkpt>
      <trkpt lat="45.17876" lon="4.00681">
        <ele>967.22</ele>
        <time>2024-02-15T09:48:38Z</time>
      </trkpt>
      <trkpt lat="45.1789" lon="4.00693">
        <ele>963.86</ele>
        <time>2024-02-15T09:48:52Z</time>
      </trkpt>
      <trkpt lat="45.17898" lon="4.00701">
        <ele>962.9</ele>
        <time>2024-02-15T09:49:03Z</time>
      </trkpt>
      <trkpt lat="45.17904" lon="4.00709">
        <ele>962.9</ele>
        <time>2024-02-15T09:49:09Z</time>
      </trkpt>
      <trkpt lat="45.17908" lon="4.00713">
        <ele>962.42</ele>
        <time>2024-02-15T09:49:14Z</time>
      </trkpt>
      <trkpt lat="45.17917" lon="4.00718">
        <ele>961.46</ele>
        <time>2024-02-15T09:49:22Z</time>
      </trkpt>
      <trkpt lat="45.17922" lon="4.00726">
        <ele>960.49</ele>
        <time>2024-02-15T09:49:32Z</time>
      </trkpt>
      <trkpt lat="45.17928" lon="4.00731">
        <ele>960.49</ele>
        <time>2024-02-15T09:49:38Z</time>
      </trkpt>
      <trkpt lat="45.17932" lon="4.00735">
        <ele>960.49</ele>
        <time>2024-02-15T09:49:41Z</time>
      </trkpt>
      <trkpt lat="45.17955" lon="4.00737">
        <ele>959.05</ele>
        <time>2024-02-15T09:49:56Z</time>
      </trkpt>
      <trkpt lat="45.17962" lon="4.00734">
        <ele>954.73</ele>
        <time>2024-02-15T09:50:10Z</time>
      </trkpt>
      <trkpt lat="45.17978" lon="4.00734">
        <ele>950.88</ele>
        <time>2024-02-15T09:50:24Z</time>
      </trkpt>
      <trkpt lat="45.17982" lon="4.00736">
        <ele>950.4</ele>
        <time>2024-02-15T09:50:28Z</time>
      </trkpt>
      <trkpt lat="45.18007" lon="4.00734">
        <ele>949.92</ele>
        <time>2024-02-15T09:50:44Z</time>
      </trkpt>
      <trkpt lat="45.18031" lon="4.00738">
        <ele>949.44</ele>
        <time>2024-02-15T09:51:01Z</time>
      </trkpt>
      <trkpt lat="45.18035" lon="4.0074">
        <ele>949.44</ele>
        <time>2024-02-15T09:51:05Z</time>
      </trkpt>
      <trkpt lat="45.18047" lon="4.00746">
        <ele>948</ele>
        <time>2024-02-15T09:51:16Z</time>
      </trkpt>
      <trkpt lat="45.18069" lon="4.00749">
        <ele>949.92</ele>
        <time>2024-02-15T09:51:32Z</time>
      </trkpt>
      <trkpt lat="45.18087" lon="4.00752">
        <ele>949.92</ele>
        <time>2024-02-15T09:51:44Z</time>
      </trkpt>
      <trkpt lat="45.18102" lon="4.00754">
        <ele>949.92</ele>
        <time>2024-02-15T09:51:55Z</time>
      </trkpt>
      <trkpt lat="45.18104" lon="4.00754">
        <ele>950.4</ele>
        <time>2024-02-15T09:51:57Z</time>
      </trkpt>
      <trkpt lat="45.18109" lon="4.00758">
        <ele>950.4</ele>
        <time>2024-02-15T09:52:02Z</time>
      </trkpt>
      <trkpt lat="45.18127" lon="4.00768">
        <ele>949.92</ele>
        <time>2024-02-15T09:52:16Z</time>
      </trkpt>
      <trkpt lat="45.18135" lon="4.00776">
        <ele>948.48</ele>
        <time>2024-02-15T09:52:25Z</time>
      </trkpt>
      <trkpt lat="45.18145" lon="4.00783">
        <ele>947.04</ele>
        <time>2024-02-15T09:52:41Z</time>
      </trkpt>
      <trkpt lat="45.18145" lon="4.00782">
        <ele>947.04</ele>
        <time>2024-02-15T09:52:43Z</time>
      </trkpt>
      <trkpt lat="45.18176" lon="4.00794">
        <ele>948.48</ele>
        <time>2024-02-15T09:53:07Z</time>
      </trkpt>
      <trkpt lat="45.18196" lon="4.00801">
        <ele>948.96</ele>
        <time>2024-02-15T09:53:22Z</time>
      </trkpt>
      <trkpt lat="45.18198" lon="4.00803">
        <ele>948</ele>
        <time>2024-02-15T09:53:25Z</time>
      </trkpt>
      <trkpt lat="45.1822" lon="4.00814">
        <ele>946.07</ele>
        <time>2024-02-15T09:53:43Z</time>
      </trkpt>
      <trkpt lat="45.18237" lon="4.00822">
        <ele>946.56</ele>
        <time>2024-02-15T09:53:55Z</time>
      </trkpt>
      <trkpt lat="45.18243" lon="4.00826">
        <ele>944.63</ele>
        <time>2024-02-15T09:54:01Z</time>
      </trkpt>
      <trkpt lat="45.18254" lon="4.00831">
        <ele>941.75</ele>
        <time>2024-02-15T09:54:10Z</time>
      </trkpt>
      <trkpt lat="45.18259" lon="4.00828">
        <ele>941.75</ele>
        <time>2024-02-15T09:54:14Z</time>
      </trkpt>
      <trkpt lat="45.18261" lon="4.00812">
        <ele>940.79</ele>
        <time>2024-02-15T09:54:24Z</time>
      </trkpt>
      <trkpt lat="45.18267" lon="4.00798">
        <ele>937.9</ele>
        <time>2024-02-15T09:54:38Z</time>
      </trkpt>
      <trkpt lat="45.18279" lon="4.00788">
        <ele>934.54</ele>
        <time>2024-02-15T09:54:50Z</time>
      </trkpt>
      <trkpt lat="45.18283" lon="4.00782">
        <ele>935.02</ele>
        <time>2024-02-15T09:54:55Z</time>
      </trkpt>
      <trkpt lat="45.18289" lon="4.0078">
        <ele>933.58</ele>
        <time>2024-02-15T09:54:59Z</time>
      </trkpt>
      <trkpt lat="45.18298" lon="4.00774">
        <ele>930.69</ele>
        <time>2024-02-15T09:55:14Z</time>
      </trkpt>
      <trkpt lat="45.18306" lon="4.00765">
        <ele>927.33</ele>
        <time>2024-02-15T09:55:28Z</time>
      </trkpt>
      <trkpt lat="45.18322" lon="4.00753">
        <ele>923.48</ele>
        <time>2024-02-15T09:55:48Z</time>
      </trkpt>
      <trkpt lat="45.18337" lon="4.00739">
        <ele>917.24</ele>
        <time>2024-02-15T09:56:04Z</time>
      </trkpt>
      <trkpt lat="45.18362" lon="4.00738">
        <ele>912.91</ele>
        <time>2024-02-15T09:56:25Z</time>
      </trkpt>
      <trkpt lat="45.18379" lon="4.00739">
        <ele>910.51</ele>
        <time>2024-02-15T09:56:42Z</time>
      </trkpt>
      <trkpt lat="45.18385" lon="4.00742">
        <ele>906.18</ele>
        <time>2024-02-15T09:57:05Z</time>
      </trkpt>
      <trkpt lat="45.18405" lon="4.00748">
        <ele>905.22</ele>
        <time>2024-02-15T09:57:23Z</time>
      </trkpt>
      <trkpt lat="45.18413" lon="4.00749">
        <ele>904.74</ele>
        <time>2024-02-15T09:57:43Z</time>
      </trkpt>
      <trkpt lat="45.1846" lon="4.00752">
        <ele>907.62</ele>
        <time>2024-02-15T09:58:04Z</time>
      </trkpt>
      <trkpt lat="45.18477" lon="4.00753">
        <ele>908.58</ele>
        <time>2024-02-15T09:58:19Z</time>
      </trkpt>
      <trkpt lat="45.18491" lon="4.00756">
        <ele>906.66</ele>
        <time>2024-02-15T09:58:36Z</time>
      </trkpt>
      <trkpt lat="45.18508" lon="4.00762">
        <ele>902.82</ele>
        <time>2024-02-15T09:58:54Z</time>
      </trkpt>
      <trkpt lat="45.18513" lon="4.00762">
        <ele>902.82</ele>
        <time>2024-02-15T09:59:15Z</time>
      </trkpt>
      <trkpt lat="45.18522" lon="4.00758">
        <ele>902.82</ele>
        <time>2024-02-15T09:59:35Z</time>
      </trkpt>
      <trkpt lat="45.18531" lon="4.00755">
        <ele>903.78</ele>
        <time>2024-02-15T09:59:53Z</time>
      </trkpt>
      <trkpt lat="45.18533" lon="4.00755">
        <ele>903.78</ele>
        <time>2024-02-15T09:59:54Z</time>
      </trkpt>
      <trkpt lat="45.18554" lon="4.0076">
        <ele>902.82</ele>
        <time>2024-02-15T10:00:10Z</time>
      </trkpt>
      <trkpt lat="45.18574" lon="4.00772">
        <ele>900.41</ele>
        <time>2024-02-15T10:00:29Z</time>
      </trkpt>
      <trkpt lat="45.1859" lon="4.00778">
        <ele>898.01</ele>
        <time>2024-02-15T10:00:46Z</time>
      </trkpt>
      <trkpt lat="45.1861" lon="4.00792">
        <ele>893.68</ele>
        <time>2024-02-15T10:01:07Z</time>
      </trkpt>
      <trkpt lat="45.18619" lon="4.008">
        <ele>890.8</ele>
        <time>2024-02-15T10:01:23Z</time>
      </trkpt>
      <trkpt lat="45.18626" lon="4.00807">
        <ele>887.91</ele>
        <time>2024-02-15T10:01:43Z</time>
      </trkpt>
      <trkpt lat="45.18634" lon="4.00814">
        <ele>886.95</ele>
        <time>2024-02-15T10:01:58Z</time>
      </trkpt>
      <trkpt lat="45.18643" lon="4.00824">
        <ele>885.03</ele>
        <time>2024-02-15T10:02:19Z</time>
      </trkpt>
      <trkpt lat="45.18649" lon="4.00831">
        <ele>882.15</ele>
        <time>2024-02-15T10:02:39Z</time>
      </trkpt>
      <trkpt lat="45.18669" lon="4.00833">
        <ele>874.46</ele>
        <time>2024-02-15T10:02:54Z</time>
      </trkpt>
      <trkpt lat="45.18681" lon="4.00837">
        <ele>872.05</ele>
        <time>2024-02-15T10:03:08Z</time>
      </trkpt>
      <trkpt lat="45.18714" lon="4.00854">
        <ele>871.09</ele>
        <time>2024-02-15T10:03:24Z</time>
      </trkpt>
      <trkpt lat="45.18738" lon="4.00865">
        <ele>869.65</ele>
        <time>2024-02-15T10:03:37Z</time>
      </trkpt>
      <trkpt lat="45.18757" lon="4.00879">
        <ele>867.73</ele>
        <time>2024-02-15T10:03:47Z</time>
      </trkpt>
      <trkpt lat="45.18773" lon="4.0089">
        <ele>864.84</ele>
        <time>2024-02-15T10:04:00Z</time>
      </trkpt>
      <trkpt lat="45.18783" lon="4.00906">
        <ele>860.52</ele>
        <time>2024-02-15T10:04:15Z</time>
      </trkpt>
      <trkpt lat="45.18782" lon="4.00914">
        <ele>858.11</ele>
        <time>2024-02-15T10:04:21Z</time>
      </trkpt>
      <trkpt lat="45.1878" lon="4.00923">
        <ele>856.19</ele>
        <time>2024-02-15T10:04:26Z</time>
      </trkpt>
      <trkpt lat="45.18774" lon="4.00943">
        <ele>851.38</ele>
        <time>2024-02-15T10:04:39Z</time>
      </trkpt>
      <trkpt lat="45.18769" lon="4.00957">
        <ele>850.9</ele>
        <time>2024-02-15T10:04:52Z</time>
      </trkpt>
      <trkpt lat="45.18768" lon="4.00961">
        <ele>849.94</ele>
        <time>2024-02-15T10:04:55Z</time>
      </trkpt>
      <trkpt lat="45.18762" lon="4.00971">
        <ele>849.46</ele>
        <time>2024-02-15T10:05:01Z</time>
      </trkpt>
      <trkpt lat="45.18758" lon="4.00974">
        <ele>849.46</ele>
        <time>2024-02-15T10:05:04Z</time>
      </trkpt>
      <trkpt lat="45.18753" lon="4.00985">
        <ele>848.02</ele>
        <time>2024-02-15T10:05:11Z</time>
      </trkpt>
      <trkpt lat="45.18743" lon="4.01">
        <ele>845.62</ele>
        <time>2024-02-15T10:05:23Z</time>
      </trkpt>
      <trkpt lat="45.18742" lon="4.01002">
        <ele>845.14</ele>
        <time>2024-02-15T10:05:27Z</time>
      </trkpt>
      <trkpt lat="45.18732" lon="4.01012">
        <ele>845.14</ele>
        <time>2024-02-15T10:05:38Z</time>
      </trkpt>
      <trkpt lat="45.18719" lon="4.01019">
        <ele>843.69</ele>
        <time>2024-02-15T10:05:51Z</time>
      </trkpt>
      <trkpt lat="45.1871" lon="4.01028">
        <ele>843.21</ele>
        <time>2024-02-15T10:06:05Z</time>
      </trkpt>
      <trkpt lat="45.18696" lon="4.01039">
        <ele>841.29</ele>
        <time>2024-02-15T10:06:17Z</time>
      </trkpt>
      <trkpt lat="45.18689" lon="4.01046">
        <ele>838.89</ele>
        <time>2024-02-15T10:06:23Z</time>
      </trkpt>
      <trkpt lat="45.18681" lon="4.01062">
        <ele>836.96</ele>
        <time>2024-02-15T10:06:40Z</time>
      </trkpt>
      <trkpt lat="45.18681" lon="4.01076">
        <ele>836.48</ele>
        <time>2024-02-15T10:06:53Z</time>
      </trkpt>
      <trkpt lat="45.18691" lon="4.01097">
        <ele>834.08</ele>
        <time>2024-02-15T10:07:06Z</time>
      </trkpt>
      <trkpt lat="45.18702" lon="4.0111">
        <ele>831.2</ele>
        <time>2024-02-15T10:07:18Z</time>
      </trkpt>
      <trkpt lat="45.18715" lon="4.01125">
        <ele>828.79</ele>
        <time>2024-02-15T10:07:32Z</time>
      </trkpt>
      <trkpt lat="45.18724" lon="4.01136">
        <ele>827.35</ele>
        <time>2024-02-15T10:07:42Z</time>
      </trkpt>
      <trkpt lat="45.18732" lon="4.01145">
        <ele>825.91</ele>
        <time>2024-02-15T10:07:51Z</time>
      </trkpt>
      <trkpt lat="45.18736" lon="4.01151">
        <ele>825.91</ele>
        <time>2024-02-15T10:07:55Z</time>
      </trkpt>
      <trkpt lat="45.18743" lon="4.01168">
        <ele>822.55</ele>
        <time>2024-02-15T10:08:07Z</time>
      </trkpt>
      <trkpt lat="45.18747" lon="4.01175">
        <ele>821.1</ele>
        <time>2024-02-15T10:08:11Z</time>
      </trkpt>
      <trkpt lat="45.18755" lon="4.01189">
        <ele>817.74</ele>
        <time>2024-02-15T10:08:23Z</time>
      </trkpt>
      <trkpt lat="45.18766" lon="4.01201">
        <ele>815.82</ele>
        <time>2024-02-15T10:08:33Z</time>
      </trkpt>
      <trkpt lat="45.18774" lon="4.01213">
        <ele>813.89</ele>
        <time>2024-02-15T10:08:44Z</time>
      </trkpt>
      <trkpt lat="45.18779" lon="4.01216">
        <ele>813.41</ele>
        <time>2024-02-15T10:08:50Z</time>
      </trkpt>
      <trkpt lat="45.18788" lon="4.01236">
        <ele>811.49</ele>
        <time>2024-02-15T10:09:08Z</time>
      </trkpt>
      <trkpt lat="45.18788" lon="4.01237">
        <ele>811.49</ele>
        <time>2024-02-15T10:09:09Z</time>
      </trkpt>
      <trkpt lat="45.18793" lon="4.01252">
        <ele>808.61</ele>
        <time>2024-02-15T10:09:23Z</time>
      </trkpt>
      <trkpt lat="45.18793" lon="4.01256">
        <ele>807.16</ele>
        <time>2024-02-15T10:09:40Z</time>
      </trkpt>
      <trkpt lat="45.18794" lon="4.01257">
        <ele>807.16</ele>
        <time>2024-02-15T10:10:02Z</time>
      </trkpt>
      <trkpt lat="45.18794" lon="4.01257">
        <ele>807.16</ele>
        <time>2024-02-15T10:10:21Z</time>
      </trkpt>
      <trkpt lat="45.18793" lon="4.01256">
        <ele>807.16</ele>
        <time>2024-02-15T10:10:39Z</time>
      </trkpt>
      <trkpt lat="45.18793" lon="4.01254">
        <ele>807.16</ele>
        <time>2024-02-15T10:10:46Z</time>
      </trkpt>
      <trkpt lat="45.1879" lon="4.01241">
        <ele>807.64</ele>
        <time>2024-02-15T10:10:53Z</time>
      </trkpt>
      <trkpt lat="45.18802" lon="4.01206">
        <ele>807.64</ele>
        <time>2024-02-15T10:11:11Z</time>
      </trkpt>
      <trkpt lat="45.18816" lon="4.01191">
        <ele>807.16</ele>
        <time>2024-02-15T10:11:26Z</time>
      </trkpt>
      <trkpt lat="45.18832" lon="4.01179">
        <ele>804.28</ele>
        <time>2024-02-15T10:11:44Z</time>
      </trkpt>
      <trkpt lat="45.18841" lon="4.01175">
        <ele>802.84</ele>
        <time>2024-02-15T10:12:00Z</time>
      </trkpt>
      <trkpt lat="45.18862" lon="4.01164">
        <ele>801.88</ele>
        <time>2024-02-15T10:12:17Z</time>
      </trkpt>
      <trkpt lat="45.18881" lon="4.01158">
        <ele>801.88</ele>
        <time>2024-02-15T10:12:35Z</time>
      </trkpt>
      <trkpt lat="45.18903" lon="4.01149">
        <ele>799.95</ele>
        <time>2024-02-15T10:12:57Z</time>
      </trkpt>
      <trkpt lat="45.18914" lon="4.01142">
        <ele>798.51</ele>
        <time>2024-02-15T10:13:12Z</time>
      </trkpt>
      <trkpt lat="45.18924" lon="4.0114">
        <ele>797.07</ele>
        <time>2024-02-15T10:13:23Z</time>
      </trkpt>
      <trkpt lat="45.18932" lon="4.01139">
        <ele>796.59</ele>
        <time>2024-02-15T10:13:29Z</time>
      </trkpt>
      <trkpt lat="45.18951" lon="4.0114">
        <ele>796.59</ele>
        <time>2024-02-15T10:13:45Z</time>
      </trkpt>
      <trkpt lat="45.18957" lon="4.01139">
        <ele>796.59</ele>
        <time>2024-02-15T10:13:50Z</time>
      </trkpt>
      <trkpt lat="45.18974" lon="4.01127">
        <ele>796.59</ele>
        <time>2024-02-15T10:14:03Z</time>
      </trkpt>
      <trkpt lat="45.18979" lon="4.01124">
        <ele>796.59</ele>
        <time>2024-02-15T10:14:09Z</time>
      </trkpt>
      <trkpt lat="45.18984" lon="4.0112">
        <ele>796.11</ele>
        <time>2024-02-15T10:14:13Z</time>
      </trkpt>
      <trkpt lat="45.18989" lon="4.01107">
        <ele>795.15</ele>
        <time>2024-02-15T10:14:24Z</time>
      </trkpt>
      <trkpt lat="45.18999" lon="4.01092">
        <ele>793.71</ele>
        <time>2024-02-15T10:14:36Z</time>
      </trkpt>
      <trkpt lat="45.19002" lon="4.01086">
        <ele>792.26</ele>
        <time>2024-02-15T10:14:43Z</time>
      </trkpt>
      <trkpt lat="45.19012" lon="4.01072">
        <ele>791.78</ele>
        <time>2024-02-15T10:14:53Z</time>
      </trkpt>
      <trkpt lat="45.19024" lon="4.01062">
        <ele>791.3</ele>
        <time>2024-02-15T10:15:05Z</time>
      </trkpt>
      <trkpt lat="45.19035" lon="4.01055">
        <ele>791.3</ele>
        <time>2024-02-15T10:15:13Z</time>
      </trkpt>
      <trkpt lat="45.1905" lon="4.01049">
        <ele>791.78</ele>
        <time>2024-02-15T10:15:26Z</time>
      </trkpt>
      <trkpt lat="45.19067" lon="4.01043">
        <ele>792.26</ele>
        <time>2024-02-15T10:15:38Z</time>
      </trkpt>
      <trkpt lat="45.19077" lon="4.0104">
        <ele>792.74</ele>
        <time>2024-02-15T10:15:46Z</time>
      </trkpt>
      <trkpt lat="45.19091" lon="4.01036">
        <ele>794.19</ele>
        <time>2024-02-15T10:15:57Z</time>
      </trkpt>
      <trkpt lat="45.19105" lon="4.01024">
        <ele>794.67</ele>
        <time>2024-02-15T10:16:09Z</time>
      </trkpt>
      <trkpt lat="45.19115" lon="4.0101">
        <ele>794.67</ele>
        <time>2024-02-15T10:16:18Z</time>
      </trkpt>
      <trkpt lat="45.19124" lon="4.00998">
        <ele>794.67</ele>
        <time>2024-02-15T10:16:28Z</time>
      </trkpt>
      <trkpt lat="45.1913" lon="4.0099">
        <ele>794.67</ele>
        <time>2024-02-15T10:16:36Z</time>
      </trkpt>
      <trkpt lat="45.19145" lon="4.00974">
        <ele>795.63</ele>
        <time>2024-02-15T10:16:51Z</time>
      </trkpt>
      <trkpt lat="45.19155" lon="4.00969">
        <ele>796.59</ele>
        <time>2024-02-15T10:17:03Z</time>
      </trkpt>
      <trkpt lat="45.19159" lon="4.00962">
        <ele>796.59</ele>
        <time>2024-02-15T10:17:10Z</time>
      </trkpt>
      <trkpt lat="45.19166" lon="4.0095">
        <ele>798.03</ele>
        <time>2024-02-15T10:17:30Z</time>
      </trkpt>
      <trkpt lat="45.19167" lon="4.00951">
        <ele>799.95</ele>
        <time>2024-02-15T10:17:49Z</time>
      </trkpt>
      <trkpt lat="45.19167" lon="4.0095">
        <ele>801.4</ele>
        <time>2024-02-15T10:18:09Z</time>
      </trkpt>
      <trkpt lat="45.19168" lon="4.0095">
        <ele>801.4</ele>
        <time>2024-02-15T10:18:26Z</time>
      </trkpt>
      <trkpt lat="45.19168" lon="4.0095">
        <ele>801.88</ele>
        <time>2024-02-15T10:18:47Z</time>
      </trkpt>
      <trkpt lat="45.19168" lon="4.0095">
        <ele>802.36</ele>
        <time>2024-02-15T10:19:04Z</time>
      </trkpt>
      <trkpt lat="45.19164" lon="4.00941">
        <ele>801.88</ele>
        <time>2024-02-15T10:19:24Z</time>
      </trkpt>
      <trkpt lat="45.19145" lon="4.00909">
        <ele>807.16</ele>
        <time>2024-02-15T10:19:46Z</time>
      </trkpt>
      <trkpt lat="45.19121" lon="4.00897">
        <ele>810.05</ele>
        <time>2024-02-15T10:20:07Z</time>
      </trkpt>
      <trkpt lat="45.19101" lon="4.00883">
        <ele>814.85</ele>
        <time>2024-02-15T10:20:25Z</time>
      </trkpt>
      <trkpt lat="45.19087" lon="4.00869">
        <ele>817.74</ele>
        <time>2024-02-15T10:20:44Z</time>
      </trkpt>
      <trkpt lat="45.19083" lon="4.00866">
        <ele>817.26</ele>
        <time>2024-02-15T10:20:46Z</time>
      </trkpt>
      <trkpt lat="45.19054" lon="4.00841">
        <ele>811.01</ele>
        <time>2024-02-15T10:21:06Z</time>
      </trkpt>
      <trkpt lat="45.19035" lon="4.00826">
        <ele>808.61</ele>
        <time>2024-02-15T10:21:24Z</time>
      </trkpt>
      <trkpt lat="45.19009" lon="4.00814">
        <ele>811.49</ele>
        <time>2024-02-15T10:21:44Z</time>
      </trkpt>
      <trkpt lat="45.1899" lon="4.0083">
        <ele>815.82</ele>
        <time>2024-02-15T10:22:08Z</time>
      </trkpt>
      <trkpt lat="45.18981" lon="4.00823">
        <ele>821.58</ele>
        <time>2024-02-15T10:22:32Z</time>
      </trkpt>
      <trkpt lat="45.18976" lon="4.00814">
        <ele>827.83</ele>
        <time>2024-02-15T10:22:44Z</time>
      </trkpt>
      <trkpt lat="45.18969" lon="4.00806">
        <ele>833.6</ele>
        <time>2024-02-15T10:23:05Z</time>
      </trkpt>
      <trkpt lat="45.18958" lon="4.00796">
        <ele>836.48</ele>
        <time>2024-02-15T10:23:27Z</time>
      </trkpt>
      <trkpt lat="45.18956" lon="4.00788">
        <ele>835.04</ele>
        <time>2024-02-15T10:23:51Z</time>
      </trkpt>
      <trkpt lat="45.18946" lon="4.00768">
        <ele>834.56</ele>
        <time>2024-02-15T10:24:13Z</time>
      </trkpt>
      <trkpt lat="45.18942" lon="4.00758">
        <ele>836.48</ele>
        <time>2024-02-15T10:24:35Z</time>
      </trkpt>
      <trkpt lat="45.18928" lon="4.00736">
        <ele>846.1</ele>
        <time>2024-02-15T10:24:59Z</time>
      </trkpt>
      <trkpt lat="45.18925" lon="4.00733">
        <ele>846.1</ele>
        <time>2024-02-15T10:25:19Z</time>
      </trkpt>
      <trkpt lat="45.18924" lon="4.00718">
        <ele>853.31</ele>
        <time>2024-02-15T10:25:40Z</time>
      </trkpt>
      <trkpt lat="45.18914" lon="4.00677">
        <ele>860.52</ele>
        <time>2024-02-15T10:26:00Z</time>
      </trkpt>
      <trkpt lat="45.18898" lon="4.00651">
        <ele>869.65</ele>
        <time>2024-02-15T10:26:16Z</time>
      </trkpt>
      <trkpt lat="45.18897" lon="4.00638">
        <ele>874.94</ele>
        <time>2024-02-15T10:26:29Z</time>
      </trkpt>
      <trkpt lat="45.18898" lon="4.00635">
        <ele>876.86</ele>
        <time>2024-02-15T10:26:50Z</time>
      </trkpt>
      <trkpt lat="45.18899" lon="4.00635">
        <ele>876.86</ele>
        <time>2024-02-15T10:27:11Z</time>
      </trkpt>
      <trkpt lat="45.18906" lon="4.00625">
        <ele>880.22</ele>
        <time>2024-02-15T10:27:27Z</time>
      </trkpt>
      <trkpt lat="45.18912" lon="4.00615">
        <ele>884.07</ele>
        <time>2024-02-15T10:27:42Z</time>
      </trkpt>
      <trkpt lat="45.18915" lon="4.00598">
        <ele>887.43</ele>
        <time>2024-02-15T10:28:00Z</time>
      </trkpt>
      <trkpt lat="45.18916" lon="4.00585">
        <ele>892.24</ele>
        <time>2024-02-15T10:28:16Z</time>
      </trkpt>
      <trkpt lat="45.18913" lon="4.00575">
        <ele>895.61</ele>
        <time>2024-02-15T10:28:30Z</time>
      </trkpt>
      <trkpt lat="45.18911" lon="4.00573">
        <ele>897.05</ele>
        <time>2024-02-15T10:28:40Z</time>
      </trkpt>
      <trkpt lat="45.18903" lon="4.00564">
        <ele>900.41</ele>
        <time>2024-02-15T10:28:53Z</time>
      </trkpt>
      <trkpt lat="45.189" lon="4.00559">
        <ele>904.26</ele>
        <time>2024-02-15T10:29:08Z</time>
      </trkpt>
      <trkpt lat="45.18896" lon="4.00547">
        <ele>913.87</ele>
        <time>2024-02-15T10:29:22Z</time>
      </trkpt>
      <trkpt lat="45.18892" lon="4.00538">
        <ele>919.16</ele>
        <time>2024-02-15T10:29:38Z</time>
      </trkpt>
      <trkpt lat="45.1889" lon="4.00536">
        <ele>922.52</ele>
        <time>2024-02-15T10:29:54Z</time>
      </trkpt>
      <trkpt lat="45.18886" lon="4.0053">
        <ele>923.96</ele>
        <time>2024-02-15T10:30:12Z</time>
      </trkpt>
      <trkpt lat="45.1888" lon="4.00527">
        <ele>925.89</ele>
        <time>2024-02-15T10:30:29Z</time>
      </trkpt>
      <trkpt lat="45.18879" lon="4.00519">
        <ele>927.33</ele>
        <time>2024-02-15T10:30:47Z</time>
      </trkpt>
      <trkpt lat="45.18867" lon="4.00491">
        <ele>927.33</ele>
        <time>2024-02-15T10:31:06Z</time>
      </trkpt>
      <trkpt lat="45.18855" lon="4.0047">
        <ele>929.73</ele>
        <time>2024-02-15T10:31:24Z</time>
      </trkpt>
      <trkpt lat="45.18845" lon="4.00463">
        <ele>934.06</ele>
        <time>2024-02-15T10:31:40Z</time>
      </trkpt>
      <trkpt lat="45.1884" lon="4.00458">
        <ele>936.94</ele>
        <time>2024-02-15T10:31:49Z</time>
      </trkpt>
      <trkpt lat="45.18826" lon="4.00453">
        <ele>941.75</ele>
        <time>2024-02-15T10:32:07Z</time>
      </trkpt>
      <trkpt lat="45.18821" lon="4.00444">
        <ele>948</ele>
        <time>2024-02-15T10:32:30Z</time>
      </trkpt>
      <trkpt lat="45.18818" lon="4.00441">
        <ele>948.96</ele>
        <time>2024-02-15T10:32:56Z</time>
      </trkpt>
      <trkpt lat="45.18822" lon="4.00444">
        <ele>949.44</ele>
        <time>2024-02-15T10:33:17Z</time>
      </trkpt>
      <trkpt lat="45.18824" lon="4.00442">
        <ele>950.4</ele>
        <time>2024-02-15T10:33:38Z</time>
      </trkpt>
      <trkpt lat="45.18807" lon="4.00413">
        <ele>950.88</ele>
        <time>2024-02-15T10:33:57Z</time>
      </trkpt>
      <trkpt lat="45.188" lon="4.00405">
        <ele>957.13</ele>
        <time>2024-02-15T10:34:16Z</time>
      </trkpt>
      <trkpt lat="45.18802" lon="4.00403">
        <ele>958.09</ele>
        <time>2024-02-15T10:34:32Z</time>
      </trkpt>
      <trkpt lat="45.18813" lon="4.00398">
        <ele>962.42</ele>
        <time>2024-02-15T10:34:47Z</time>
      </trkpt>
      <trkpt lat="45.18824" lon="4.00392">
        <ele>966.26</ele>
        <time>2024-02-15T10:35:01Z</time>
      </trkpt>
      <trkpt lat="45.18836" lon="4.00379">
        <ele>966.26</ele>
        <time>2024-02-15T10:35:17Z</time>
      </trkpt>
      <trkpt lat="45.18846" lon="4.00369">
        <ele>969.15</ele>
        <time>2024-02-15T10:35:35Z</time>
      </trkpt>
      <trkpt lat="45.18853" lon="4.00365">
        <ele>972.99</ele>
        <time>2024-02-15T10:35:47Z</time>
      </trkpt>
      <trkpt lat="45.18867" lon="4.00353">
        <ele>981.16</ele>
        <time>2024-02-15T10:36:05Z</time>
      </trkpt>
      <trkpt lat="45.18878" lon="4.0034">
        <ele>984.53</ele>
        <time>2024-02-15T10:36:19Z</time>
      </trkpt>
      <trkpt lat="45.18881" lon="4.00332">
        <ele>985.01</ele>
        <time>2024-02-15T10:36:32Z</time>
      </trkpt>
      <trkpt lat="45.18889" lon="4.00324">
        <ele>984.53</ele>
        <time>2024-02-15T10:36:43Z</time>
      </trkpt>
      <trkpt lat="45.18907" lon="4.00327">
        <ele>985.49</ele>
        <time>2024-02-15T10:36:59Z</time>
      </trkpt>
      <trkpt lat="45.18912" lon="4.00325">
        <ele>984.05</ele>
        <time>2024-02-15T10:37:11Z</time>
      </trkpt>
      <trkpt lat="45.18915" lon="4.00324">
        <ele>983.57</ele>
        <time>2024-02-15T10:37:24Z</time>
      </trkpt>
      <trkpt lat="45.18918" lon="4.00321">
        <ele>984.53</ele>
        <time>2024-02-15T10:37:30Z</time>
      </trkpt>
      <trkpt lat="45.18923" lon="4.00317">
        <ele>985.97</ele>
        <time>2024-02-15T10:37:41Z</time>
      </trkpt>
      <trkpt lat="45.18926" lon="4.00312">
        <ele>986.93</ele>
        <time>2024-02-15T10:37:55Z</time>
      </trkpt>
      <trkpt lat="45.18932" lon="4.00302">
        <ele>989.33</ele>
        <time>2024-02-15T10:38:08Z</time>
      </trkpt>
      <trkpt lat="45.18937" lon="4.00297">
        <ele>991.74</ele>
        <time>2024-02-15T10:38:21Z</time>
      </trkpt>
      <trkpt lat="45.18945" lon="4.0029">
        <ele>992.7</ele>
        <time>2024-02-15T10:38:41Z</time>
      </trkpt>
      <trkpt lat="45.1895" lon="4.00286">
        <ele>994.14</ele>
        <time>2024-02-15T10:38:47Z</time>
      </trkpt>
      <trkpt lat="45.18954" lon="4.00281">
        <ele>995.58</ele>
        <time>2024-02-15T10:38:57Z</time>
      </trkpt>
      <trkpt lat="45.18959" lon="4.00279">
        <ele>996.54</ele>
        <time>2024-02-15T10:39:09Z</time>
      </trkpt>
      <trkpt lat="45.18981" lon="4.00263">
        <ele>1001.35</ele>
        <time>2024-02-15T10:39:30Z</time>
      </trkpt>
      <trkpt lat="45.18994" lon="4.00255">
        <ele>1003.75</ele>
        <time>2024-02-15T10:39:49Z</time>
      </trkpt>
      <trkpt lat="45.1901" lon="4.0025">
        <ele>1004.72</ele>
        <time>2024-02-15T10:40:11Z</time>
      </trkpt>
      <trkpt lat="45.19022" lon="4.00231">
        <ele>1010.96</ele>
        <time>2024-02-15T10:40:27Z</time>
      </trkpt>
      <trkpt lat="45.19025" lon="4.00229">
        <ele>1010.96</ele>
        <time>2024-02-15T10:40:29Z</time>
      </trkpt>
      <trkpt lat="45.19032" lon="4.00221">
        <ele>1011.44</ele>
        <time>2024-02-15T10:40:40Z</time>
      </trkpt>
      <trkpt lat="45.19031" lon="4.00224">
        <ele>1012.41</ele>
        <time>2024-02-15T10:41:02Z</time>
      </trkpt>
      <trkpt lat="45.19032" lon="4.00222">
        <ele>1011.44</ele>
        <time>2024-02-15T10:41:24Z</time>
      </trkpt>
      <trkpt lat="45.19042" lon="4.00206">
        <ele>1010.48</ele>
        <time>2024-02-15T10:41:46Z</time>
      </trkpt>
      <trkpt lat="45.19045" lon="4.00202">
        <ele>1010</ele>
        <time>2024-02-15T10:41:52Z</time>
      </trkpt>
      <trkpt lat="45.19048" lon="4.00195">
        <ele>1010.48</ele>
        <time>2024-02-15T10:41:58Z</time>
      </trkpt>
      <trkpt lat="45.19058" lon="4.00182">
        <ele>1011.93</ele>
        <time>2024-02-15T10:42:10Z</time>
      </trkpt>
      <trkpt lat="45.19065" lon="4.0017">
        <ele>1013.37</ele>
        <time>2024-02-15T10:42:20Z</time>
      </trkpt>
      <trkpt lat="45.19077" lon="4.00156">
        <ele>1013.37</ele>
        <time>2024-02-15T10:42:33Z</time>
      </trkpt>
      <trkpt lat="45.19085" lon="4.00141">
        <ele>1013.37</ele>
        <time>2024-02-15T10:42:45Z</time>
      </trkpt>
      <trkpt lat="45.19102" lon="4.00121">
        <ele>1010.48</ele>
        <time>2024-02-15T10:43:01Z</time>
      </trkpt>
      <trkpt lat="45.19111" lon="4.00102">
        <ele>1007.6</ele>
        <time>2024-02-15T10:43:15Z</time>
      </trkpt>
      <trkpt lat="45.19123" lon="4.00084">
        <ele>1007.12</ele>
        <time>2024-02-15T10:43:26Z</time>
      </trkpt>
      <trkpt lat="45.19132" lon="4.00065">
        <ele>1005.68</ele>
        <time>2024-02-15T10:43:38Z</time>
      </trkpt>
      <trkpt lat="45.19139" lon="4.00057">
        <ele>1005.2</ele>
        <time>2024-02-15T10:43:44Z</time>
      </trkpt>
      <trkpt lat="45.19138" lon="4.00041">
        <ele>1004.72</ele>
        <time>2024-02-15T10:43:55Z</time>
      </trkpt>
      <trkpt lat="45.1914" lon="4.0004">
        <ele>1005.2</ele>
        <time>2024-02-15T10:43:58Z</time>
      </trkpt>
      <trkpt lat="45.19143" lon="4.00033">
        <ele>1005.2</ele>
        <time>2024-02-15T10:44:03Z</time>
      </trkpt>
      <trkpt lat="45.19143" lon="4.0002">
        <ele>1004.72</ele>
        <time>2024-02-15T10:44:09Z</time>
      </trkpt>
      <trkpt lat="45.19145" lon="3.99996">
        <ele>1004.23</ele>
        <time>2024-02-15T10:44:20Z</time>
      </trkpt>
      <trkpt lat="45.19146" lon="3.99989">
        <ele>1004.23</ele>
        <time>2024-02-15T10:44:27Z</time>
      </trkpt>
      <trkpt lat="45.19148" lon="3.99987">
        <ele>1004.23</ele>
        <time>2024-02-15T10:44:29Z</time>
      </trkpt>
      <trkpt lat="45.19154" lon="3.99975">
        <ele>1004.23</ele>
        <time>2024-02-15T10:44:45Z</time>
      </trkpt>
      <trkpt lat="45.19157" lon="3.99965">
        <ele>1002.79</ele>
        <time>2024-02-15T10:45:03Z</time>
      </trkpt>
      <trkpt lat="45.19179" lon="3.99948">
        <ele>999.43</ele>
        <time>2024-02-15T10:45:18Z</time>
      </trkpt>
      <trkpt lat="45.1918" lon="3.99939">
        <ele>997.99</ele>
        <time>2024-02-15T10:45:23Z</time>
      </trkpt>
      <trkpt lat="45.1918" lon="3.99932">
        <ele>998.47</ele>
        <time>2024-02-15T10:45:27Z</time>
      </trkpt>
      <trkpt lat="45.19182" lon="3.99925">
        <ele>998.95</ele>
        <time>2024-02-15T10:45:32Z</time>
      </trkpt>
      <trkpt lat="45.19189" lon="3.99916">
        <ele>999.43</ele>
        <time>2024-02-15T10:45:40Z</time>
      </trkpt>
      <trkpt lat="45.19201" lon="3.99906">
        <ele>999.43</ele>
        <time>2024-02-15T10:45:51Z</time>
      </trkpt>
      <trkpt lat="45.19207" lon="3.99901">
        <ele>999.43</ele>
        <time>2024-02-15T10:45:55Z</time>
      </trkpt>
      <trkpt lat="45.19222" lon="3.99899">
        <ele>997.99</ele>
        <time>2024-02-15T10:46:10Z</time>
      </trkpt>
      <trkpt lat="45.19244" lon="3.99906">
        <ele>994.14</ele>
        <time>2024-02-15T10:46:32Z</time>
      </trkpt>
      <trkpt lat="45.19256" lon="3.9991">
        <ele>991.74</ele>
        <time>2024-02-15T10:46:51Z</time>
      </trkpt>
      <trkpt lat="45.19269" lon="3.9991">
        <ele>987.89</ele>
        <time>2024-02-15T10:47:13Z</time>
      </trkpt>
      <trkpt lat="45.19289" lon="3.99906">
        <ele>985.01</ele>
        <time>2024-02-15T10:47:32Z</time>
      </trkpt>
      <trkpt lat="45.19302" lon="3.99895">
        <ele>981.16</ele>
        <time>2024-02-15T10:47:49Z</time>
      </trkpt>
      <trkpt lat="45.19313" lon="3.99885">
        <ele>977.8</ele>
        <time>2024-02-15T10:48:03Z</time>
      </trkpt>
      <trkpt lat="45.19319" lon="3.99878">
        <ele>974.91</ele>
        <time>2024-02-15T10:48:18Z</time>
      </trkpt>
      <trkpt lat="45.19323" lon="3.99879">
        <ele>973.47</ele>
        <time>2024-02-15T10:48:37Z</time>
      </trkpt>
      <trkpt lat="45.19325" lon="3.9988">
        <ele>971.07</ele>
        <time>2024-02-15T10:49:00Z</time>
      </trkpt>
      <trkpt lat="45.19326" lon="3.9988">
        <ele>969.15</ele>
        <time>2024-02-15T10:49:20Z</time>
      </trkpt>
      <trkpt lat="45.19326" lon="3.99879">
        <ele>966.74</ele>
        <time>2024-02-15T10:49:49Z</time>
      </trkpt>
      <trkpt lat="45.19325" lon="3.99877">
        <ele>964.82</ele>
        <time>2024-02-15T10:50:10Z</time>
      </trkpt>
      <trkpt lat="45.19325" lon="3.99878">
        <ele>963.86</ele>
        <time>2024-02-15T10:50:36Z</time>
      </trkpt>
      <trkpt lat="45.19325" lon="3.99877">
        <ele>963.86</ele>
        <time>2024-02-15T10:50:59Z</time>
      </trkpt>
      <trkpt lat="45.19325" lon="3.99877">
        <ele>963.86</ele>
        <time>2024-02-15T10:51:26Z</time>
      </trkpt>
      <trkpt lat="45.19325" lon="3.99877">
        <ele>963.38</ele>
        <time>2024-02-15T10:51:47Z</time>
      </trkpt>
      <trkpt lat="45.19324" lon="3.99878">
        <ele>962.42</ele>
        <time>2024-02-15T10:52:12Z</time>
      </trkpt>
      <trkpt lat="45.19324" lon="3.99876">
        <ele>962.42</ele>
        <time>2024-02-15T10:52:39Z</time>
      </trkpt>
      <trkpt lat="45.19324" lon="3.99876">
        <ele>961.94</ele>
        <time>2024-02-15T10:53:03Z</time>
      </trkpt>
      <trkpt lat="45.19324" lon="3.99876">
        <ele>961.94</ele>
        <time>2024-02-15T10:53:26Z</time>
      </trkpt>
      <trkpt lat="45.19323" lon="3.99876">
        <ele>961.46</ele>
        <time>2024-02-15T10:53:50Z</time>
      </trkpt>
      <trkpt lat="45.19323" lon="3.99878">
        <ele>961.94</ele>
        <time>2024-02-15T10:54:13Z</time>
      </trkpt>
      <trkpt lat="45.19324" lon="3.99879">
        <ele>961.94</ele>
        <time>2024-02-15T10:54:36Z</time>
      </trkpt>
      <trkpt lat="45.19323" lon="3.99877">
        <ele>962.42</ele>
        <time>2024-02-15T10:54:58Z</time>
      </trkpt>
      <trkpt lat="45.19324" lon="3.99877">
        <ele>962.42</ele>
        <time>2024-02-15T10:55:19Z</time>
      </trkpt>
      <trkpt lat="45.19326" lon="3.9988">
        <ele>962.42</ele>
        <time>2024-02-15T10:55:40Z</time>
      </trkpt>
      <trkpt lat="45.19325" lon="3.99878">
        <ele>962.9</ele>
        <time>2024-02-15T10:56:03Z</time>
      </trkpt>
      <trkpt lat="45.19322" lon="3.99878">
        <ele>962.42</ele>
        <time>2024-02-15T10:56:24Z</time>
      </trkpt>
      <trkpt lat="45.19322" lon="3.99879">
        <ele>962.42</ele>
        <time>2024-02-15T10:56:45Z</time>
      </trkpt>
      <trkpt lat="45.19322" lon="3.99879">
        <ele>962.42</ele>
        <time>2024-02-15T10:57:12Z</time>
      </trkpt>
      <trkpt lat="45.19323" lon="3.99878">
        <ele>962.9</ele>
        <time>2024-02-15T10:57:35Z</time>
      </trkpt>
      <trkpt lat="45.19324" lon="3.99877">
        <ele>963.38</ele>
        <time>2024-02-15T10:58:02Z</time>
      </trkpt>
      <trkpt lat="45.19323" lon="3.99877">
        <ele>963.86</ele>
        <time>2024-02-15T10:58:27Z</time>
      </trkpt>
      <trkpt lat="45.19323" lon="3.99876">
        <ele>964.82</ele>
        <time>2024-02-15T10:58:52Z</time>
      </trkpt>
      <trkpt lat="45.19323" lon="3.99875">
        <ele>964.34</ele>
        <time>2024-02-15T10:59:14Z</time>
      </trkpt>
      <trkpt lat="45.19323" lon="3.99876">
        <ele>964.34</ele>
        <time>2024-02-15T10:59:39Z</time>
      </trkpt>
      <trkpt lat="45.19332" lon="3.99873">
        <ele>967.7</ele>
        <time>2024-02-15T10:59:59Z</time>
      </trkpt>
      <trkpt lat="45.19334" lon="3.99874">
        <ele>969.15</ele>
        <time>2024-02-15T11:00:25Z</time>
      </trkpt>
      <trkpt lat="45.19333" lon="3.99876">
        <ele>969.15</ele>
        <time>2024-02-15T11:00:52Z</time>
      </trkpt>
      <trkpt lat="45.19331" lon="3.99877">
        <ele>968.67</ele>
        <time>2024-02-15T11:01:18Z</time>
      </trkpt>
      <trkpt lat="45.19329" lon="3.99878">
        <ele>967.7</ele>
        <time>2024-02-15T11:01:46Z</time>
      </trkpt>
      <trkpt lat="45.1933" lon="3.99878">
        <ele>967.7</ele>
        <time>2024-02-15T11:02:18Z</time>
      </trkpt>
      <trkpt lat="45.19327" lon="3.9988">
        <ele>967.7</ele>
        <time>2024-02-15T11:02:39Z</time>
      </trkpt>
      <trkpt lat="45.19327" lon="3.99878">
        <ele>967.7</ele>
        <time>2024-02-15T11:03:02Z</time>
      </trkpt>
      <trkpt lat="45.19321" lon="3.99883">
        <ele>965.3</ele>
        <time>2024-02-15T11:03:29Z</time>
      </trkpt>
      <trkpt lat="45.19324" lon="3.99883">
        <ele>964.34</ele>
        <time>2024-02-15T11:03:49Z</time>
      </trkpt>
      <trkpt lat="45.19324" lon="3.99882">
        <ele>964.34</ele>
        <time>2024-02-15T11:04:09Z</time>
      </trkpt>
      <trkpt lat="45.19324" lon="3.99882">
        <ele>963.86</ele>
        <time>2024-02-15T11:04:29Z</time>
      </trkpt>
      <trkpt lat="45.19322" lon="3.99881">
        <ele>963.86</ele>
        <time>2024-02-15T11:04:57Z</time>
      </trkpt>
      <trkpt lat="45.19322" lon="3.99881">
        <ele>963.38</ele>
        <time>2024-02-15T11:05:23Z</time>
      </trkpt>
      <trkpt lat="45.19322" lon="3.9988">
        <ele>963.38</ele>
        <time>2024-02-15T11:05:46Z</time>
      </trkpt>
      <trkpt lat="45.19322" lon="3.99881">
        <ele>963.38</ele>
        <time>2024-02-15T11:06:13Z</time>
      </trkpt>
      <trkpt lat="45.19323" lon="3.99881">
        <ele>963.38</ele>
        <time>2024-02-15T11:06:35Z</time>
      </trkpt>
      <trkpt lat="45.19323" lon="3.99881">
        <ele>963.38</ele>
        <time>2024-02-15T11:06:56Z</time>
      </trkpt>
      <trkpt lat="45.19323" lon="3.9988">
        <ele>963.86</ele>
        <time>2024-02-15T11:07:19Z</time>
      </trkpt>
      <trkpt lat="45.19323" lon="3.9988">
        <ele>963.86</ele>
        <time>2024-02-15T11:07:42Z</time>
      </trkpt>
      <trkpt lat="45.19322" lon="3.99881">
        <ele>963.86</ele>
        <time>2024-02-15T11:07:56Z</time>
      </trkpt>
      <trkpt lat="45.19317" lon="3.99882">
        <ele>964.34</ele>
        <time>2024-02-15T11:08:18Z</time>
      </trkpt>
      <trkpt lat="45.19319" lon="3.99882">
        <ele>964.82</ele>
        <time>2024-02-15T11:08:42Z</time>
      </trkpt>
      <trkpt lat="45.19319" lon="3.99883">
        <ele>963.86</ele>
        <time>2024-02-15T11:09:05Z</time>
      </trkpt>
      <trkpt lat="45.19322" lon="3.99881">
        <ele>964.34</ele>
        <time>2024-02-15T11:09:32Z</time>
      </trkpt>
      <trkpt lat="45.19323" lon="3.99882">
        <ele>963.86</ele>
        <time>2024-02-15T11:09:55Z</time>
      </trkpt>
      <trkpt lat="45.19322" lon="3.9988">
        <ele>963.38</ele>
        <time>2024-02-15T11:10:18Z</time>
      </trkpt>
      <trkpt lat="45.19323" lon="3.99881">
        <ele>962.9</ele>
        <time>2024-02-15T11:10:43Z</time>
      </trkpt>
      <trkpt lat="45.19323" lon="3.99879">
        <ele>962.9</ele>
        <time>2024-02-15T11:11:08Z</time>
      </trkpt>
      <trkpt lat="45.19322" lon="3.99879">
        <ele>962.42</ele>
        <time>2024-02-15T11:11:33Z</time>
      </trkpt>
      <trkpt lat="45.19322" lon="3.99879">
        <ele>962.9</ele>
        <time>2024-02-15T11:11:59Z</time>
      </trkpt>
      <trkpt lat="45.19322" lon="3.99878">
        <ele>962.42</ele>
        <time>2024-02-15T11:12:22Z</time>
      </trkpt>
      <trkpt lat="45.19322" lon="3.99877">
        <ele>962.9</ele>
        <time>2024-02-15T11:12:48Z</time>
      </trkpt>
      <trkpt lat="45.19331" lon="3.9987">
        <ele>963.86</ele>
        <time>2024-02-15T11:13:11Z</time>
      </trkpt>
      <trkpt lat="45.19329" lon="3.99875">
        <ele>964.34</ele>
        <time>2024-02-15T11:13:31Z</time>
      </trkpt>
      <trkpt lat="45.19327" lon="3.99877">
        <ele>962.9</ele>
        <time>2024-02-15T11:13:57Z</time>
      </trkpt>
      <trkpt lat="45.19327" lon="3.99877">
        <ele>963.38</ele>
        <time>2024-02-15T11:14:21Z</time>
      </trkpt>
      <trkpt lat="45.19325" lon="3.99879">
        <ele>963.86</ele>
        <time>2024-02-15T11:14:45Z</time>
      </trkpt>
      <trkpt lat="45.19325" lon="3.99879">
        <ele>964.34</ele>
        <time>2024-02-15T11:15:11Z</time>
      </trkpt>
      <trkpt lat="45.19321" lon="3.99878">
        <ele>964.82</ele>
        <time>2024-02-15T11:15:40Z</time>
      </trkpt>
      <trkpt lat="45.19328" lon="3.99881">
        <ele>963.86</ele>
        <time>2024-02-15T11:16:04Z</time>
      </trkpt>
      <trkpt lat="45.19331" lon="3.99878">
        <ele>963.38</ele>
        <time>2024-02-15T11:16:28Z</time>
      </trkpt>
      <trkpt lat="45.19326" lon="3.9988">
        <ele>961.94</ele>
        <time>2024-02-15T11:17:01Z</time>
      </trkpt>
      <trkpt lat="45.19326" lon="3.9988">
        <ele>961.46</ele>
        <time>2024-02-15T11:17:37Z</time>
      </trkpt>
      <trkpt lat="45.19326" lon="3.9988">
        <ele>960.98</ele>
        <time>2024-02-15T11:18:07Z</time>
      </trkpt>
      <trkpt lat="45.19325" lon="3.9988">
        <ele>962.42</ele>
        <time>2024-02-15T11:18:33Z</time>
      </trkpt>
      <trkpt lat="45.19325" lon="3.9988">
        <ele>961.94</ele>
        <time>2024-02-15T11:19:04Z</time>
      </trkpt>
      <trkpt lat="45.19326" lon="3.9988">
        <ele>962.42</ele>
        <time>2024-02-15T11:19:29Z</time>
      </trkpt>
      <trkpt lat="45.19325" lon="3.9988">
        <ele>962.42</ele>
        <time>2024-02-15T11:19:56Z</time>
      </trkpt>
      <trkpt lat="45.19325" lon="3.9988">
        <ele>962.9</ele>
        <time>2024-02-15T11:20:27Z</time>
      </trkpt>
      <trkpt lat="45.19325" lon="3.9988">
        <ele>963.38</ele>
        <time>2024-02-15T11:20:56Z</time>
      </trkpt>
      <trkpt lat="45.19325" lon="3.99881">
        <ele>963.86</ele>
        <time>2024-02-15T11:21:25Z</time>
      </trkpt>
      <trkpt lat="45.19324" lon="3.99881">
        <ele>963.86</ele>
        <time>2024-02-15T11:21:56Z</time>
      </trkpt>
      <trkpt lat="45.19324" lon="3.99881">
        <ele>963.86</ele>
        <time>2024-02-15T11:22:28Z</time>
      </trkpt>
      <trkpt lat="45.19324" lon="3.9988">
        <ele>963.86</ele>
        <time>2024-02-15T11:22:57Z</time>
      </trkpt>
      <trkpt lat="45.19323" lon="3.99879">
        <ele>964.82</ele>
        <time>2024-02-15T11:23:15Z</time>
      </trkpt>
      <trkpt lat="45.19323" lon="3.99879">
        <ele>965.78</ele>
        <time>2024-02-15T11:23:42Z</time>
      </trkpt>
      <trkpt lat="45.19323" lon="3.99878">
        <ele>965.78</ele>
        <time>2024-02-15T11:24:03Z</time>
      </trkpt>
      <trkpt lat="45.19323" lon="3.99878">
        <ele>966.26</ele>
        <time>2024-02-15T11:24:21Z</time>
      </trkpt>
      <trkpt lat="45.19323" lon="3.99878">
        <ele>966.26</ele>
        <time>2024-02-15T11:24:47Z</time>
      </trkpt>
      <trkpt lat="45.19324" lon="3.99879">
        <ele>966.26</ele>
        <time>2024-02-15T11:25:17Z</time>
      </trkpt>
      <trkpt lat="45.19324" lon="3.99878">
        <ele>966.26</ele>
        <time>2024-02-15T11:25:46Z</time>
      </trkpt>
      <trkpt lat="45.19324" lon="3.99879">
        <ele>965.78</ele>
        <time>2024-02-15T11:26:23Z</time>
      </trkpt>
      <trkpt lat="45.19324" lon="3.99879">
        <ele>965.78</ele>
        <time>2024-02-15T11:27:02Z</time>
      </trkpt>
      <trkpt lat="45.19324" lon="3.99879">
        <ele>965.78</ele>
        <time>2024-02-15T11:27:35Z</time>
      </trkpt>
      <trkpt lat="45.19324" lon="3.99879">
        <ele>965.78</ele>
        <time>2024-02-15T11:28:05Z</time>
      </trkpt>
      <trkpt lat="45.19324" lon="3.9988">
        <ele>966.26</ele>
        <time>2024-02-15T11:28:37Z</time>
      </trkpt>
      <trkpt lat="45.19324" lon="3.9988">
        <ele>966.74</ele>
        <time>2024-02-15T11:29:14Z</time>
      </trkpt>
      <trkpt lat="45.19324" lon="3.9988">
        <ele>966.74</ele>
        <time>2024-02-15T11:29:43Z</time>
      </trkpt>
      <trkpt lat="45.19324" lon="3.9988">
        <ele>966.74</ele>
        <time>2024-02-15T11:30:13Z</time>
      </trkpt>
      <trkpt lat="45.19324" lon="3.9988">
        <ele>966.74</ele>
        <time>2024-02-15T11:30:43Z</time>
      </trkpt>
      <trkpt lat="45.19323" lon="3.99881">
        <ele>966.74</ele>
        <time>2024-02-15T11:31:15Z</time>
      </trkpt>
      <trkpt lat="45.19323" lon="3.99881">
        <ele>967.22</ele>
        <time>2024-02-15T11:31:43Z</time>
      </trkpt>
      <trkpt lat="45.19323" lon="3.9988">
        <ele>967.7</ele>
        <time>2024-02-15T11:32:10Z</time>
      </trkpt>
      <trkpt lat="45.19323" lon="3.99879">
        <ele>967.7</ele>
        <time>2024-02-15T11:32:29Z</time>
      </trkpt>
      <trkpt lat="45.19324" lon="3.99879">
        <ele>967.7</ele>
        <time>2024-02-15T11:32:55Z</time>
      </trkpt>
      <trkpt lat="45.19324" lon="3.99879">
        <ele>967.22</ele>
        <time>2024-02-15T11:33:19Z</time>
      </trkpt>
      <trkpt lat="45.19323" lon="3.99878">
        <ele>966.74</ele>
        <time>2024-02-15T11:33:41Z</time>
      </trkpt>
      <trkpt lat="45.19323" lon="3.99878">
        <ele>966.26</ele>
        <time>2024-02-15T11:34:04Z</time>
      </trkpt>
      <trkpt lat="45.19323" lon="3.99878">
        <ele>966.26</ele>
        <time>2024-02-15T11:34:31Z</time>
      </trkpt>
      <trkpt lat="45.19322" lon="3.99879">
        <ele>966.74</ele>
        <time>2024-02-15T11:34:58Z</time>
      </trkpt>
      <trkpt lat="45.19323" lon="3.99879">
        <ele>966.74</ele>
        <time>2024-02-15T11:35:21Z</time>
      </trkpt>
      <trkpt lat="45.19323" lon="3.99878">
        <ele>966.74</ele>
        <time>2024-02-15T11:35:46Z</time>
      </trkpt>
      <trkpt lat="45.19324" lon="3.99878">
        <ele>966.74</ele>
        <time>2024-02-15T11:36:06Z</time>
      </trkpt>
      <trkpt lat="45.19324" lon="3.99877">
        <ele>966.74</ele>
        <time>2024-02-15T11:36:26Z</time>
      </trkpt>
      <trkpt lat="45.19324" lon="3.99877">
        <ele>966.74</ele>
        <time>2024-02-15T11:36:48Z</time>
      </trkpt>
      <trkpt lat="45.19324" lon="3.99877">
        <ele>967.22</ele>
        <time>2024-02-15T11:37:10Z</time>
      </trkpt>
      <trkpt lat="45.19324" lon="3.99877">
        <ele>966.74</ele>
        <time>2024-02-15T11:37:31Z</time>
      </trkpt>
      <trkpt lat="45.19324" lon="3.99878">
        <ele>966.26</ele>
        <time>2024-02-15T11:37:55Z</time>
      </trkpt>
      <trkpt lat="45.19324" lon="3.99878">
        <ele>965.3</ele>
        <time>2024-02-15T11:38:22Z</time>
      </trkpt>
      <trkpt lat="45.19324" lon="3.99877">
        <ele>965.3</ele>
        <time>2024-02-15T11:38:44Z</time>
      </trkpt>
      <trkpt lat="45.19324" lon="3.99877">
        <ele>965.78</ele>
        <time>2024-02-15T11:39:06Z</time>
      </trkpt>
      <trkpt lat="45.19324" lon="3.99876">
        <ele>965.3</ele>
        <time>2024-02-15T11:39:30Z</time>
      </trkpt>
      <trkpt lat="45.19324" lon="3.99877">
        <ele>965.3</ele>
        <time>2024-02-15T11:39:46Z</time>
      </trkpt>
      <trkpt lat="45.19324" lon="3.99877">
        <ele>964.82</ele>
        <time>2024-02-15T11:40:12Z</time>
      </trkpt>
      <trkpt lat="45.19324" lon="3.99878">
        <ele>965.3</ele>
        <time>2024-02-15T11:40:40Z</time>
      </trkpt>
      <trkpt lat="45.19324" lon="3.99878">
        <ele>965.3</ele>
        <time>2024-02-15T11:41:04Z</time>
      </trkpt>
      <trkpt lat="45.19324" lon="3.99878">
        <ele>965.78</ele>
        <time>2024-02-15T11:41:26Z</time>
      </trkpt>
      <trkpt lat="45.19324" lon="3.99879">
        <ele>965.78</ele>
        <time>2024-02-15T11:41:48Z</time>
      </trkpt>
      <trkpt lat="45.19324" lon="3.99879">
        <ele>966.26</ele>
        <time>2024-02-15T11:42:12Z</time>
      </trkpt>
      <trkpt lat="45.19324" lon="3.99879">
        <ele>966.26</ele>
        <time>2024-02-15T11:42:40Z</time>
      </trkpt>
      <trkpt lat="45.19325" lon="3.99877">
        <ele>966.26</ele>
        <time>2024-02-15T11:43:04Z</time>
      </trkpt>
      <trkpt lat="45.19323" lon="3.99875">
        <ele>966.74</ele>
        <time>2024-02-15T11:43:29Z</time>
      </trkpt>
      <trkpt lat="45.19321" lon="3.99877">
        <ele>965.78</ele>
        <time>2024-02-15T11:43:49Z</time>
      </trkpt>
      <trkpt lat="45.19316" lon="3.99876">
        <ele>964.34</ele>
        <time>2024-02-15T11:44:10Z</time>
      </trkpt>
      <trkpt lat="45.19307" lon="3.99883">
        <ele>964.82</ele>
        <time>2024-02-15T11:44:27Z</time>
      </trkpt>
      <trkpt lat="45.19297" lon="3.99891">
        <ele>965.3</ele>
        <time>2024-02-15T11:44:45Z</time>
      </trkpt>
      <trkpt lat="45.1929" lon="3.99899">
        <ele>965.78</ele>
        <time>2024-02-15T11:45:04Z</time>
      </trkpt>
      <trkpt lat="45.19275" lon="3.99903">
        <ele>967.7</ele>
        <time>2024-02-15T11:45:25Z</time>
      </trkpt>
      <trkpt lat="45.19262" lon="3.99904">
        <ele>970.11</ele>
        <time>2024-02-15T11:45:46Z</time>
      </trkpt>
      <trkpt lat="45.19244" lon="3.99898">
        <ele>973.95</ele>
        <time>2024-02-15T11:46:10Z</time>
      </trkpt>
      <trkpt lat="45.19223" lon="3.99896">
        <ele>975.88</ele>
        <time>2024-02-15T11:46:32Z</time>
      </trkpt>
      <trkpt lat="45.19203" lon="3.99907">
        <ele>981.16</ele>
        <time>2024-02-15T11:46:56Z</time>
      </trkpt>
      <trkpt lat="45.1919" lon="3.99925">
        <ele>996.54</ele>
        <time>2024-02-15T11:47:14Z</time>
      </trkpt>
      <trkpt lat="45.19184" lon="3.99943">
        <ele>999.43</ele>
        <time>2024-02-15T11:47:29Z</time>
      </trkpt>
      <trkpt lat="45.19184" lon="3.99944">
        <ele>999.43</ele>
        <time>2024-02-15T11:47:30Z</time>
      </trkpt>
      <trkpt lat="45.1917" lon="3.99957">
        <ele>995.58</ele>
        <time>2024-02-15T11:47:48Z</time>
      </trkpt>
      <trkpt lat="45.19148" lon="3.99968">
        <ele>993.18</ele>
        <time>2024-02-15T11:48:06Z</time>
      </trkpt>
      <trkpt lat="45.1914" lon="3.99958">
        <ele>993.18</ele>
        <time>2024-02-15T11:48:16Z</time>
      </trkpt>
      <trkpt lat="45.19132" lon="3.99932">
        <ele>998.95</ele>
        <time>2024-02-15T11:48:33Z</time>
      </trkpt>
      <trkpt lat="45.19125" lon="3.99908">
        <ele>1002.31</ele>
        <time>2024-02-15T11:48:52Z</time>
      </trkpt>
      <trkpt lat="45.19115" lon="3.99882">
        <ele>1004.23</ele>
        <time>2024-02-15T11:49:10Z</time>
      </trkpt>
      <trkpt lat="45.19103" lon="3.99857">
        <ele>1005.2</ele>
        <time>2024-02-15T11:49:28Z</time>
      </trkpt>
      <trkpt lat="45.1909" lon="3.99835">
        <ele>1010</ele>
        <time>2024-02-15T11:49:46Z</time>
      </trkpt>
      <trkpt lat="45.19088" lon="3.9983">
        <ele>1010.96</ele>
        <time>2024-02-15T11:49:50Z</time>
      </trkpt>
      <trkpt lat="45.19077" lon="3.99807">
        <ele>1011.44</ele>
        <time>2024-02-15T11:50:07Z</time>
      </trkpt>
      <trkpt lat="45.19067" lon="3.99779">
        <ele>1011.44</ele>
        <time>2024-02-15T11:50:25Z</time>
      </trkpt>
      <trkpt lat="45.19068" lon="3.9977">
        <ele>1012.41</ele>
        <time>2024-02-15T11:50:31Z</time>
      </trkpt>
      <trkpt lat="45.19066" lon="3.99752">
        <ele>1013.37</ele>
        <time>2024-02-15T11:50:42Z</time>
      </trkpt>
      <trkpt lat="45.19063" lon="3.99748">
        <ele>1013.85</ele>
        <time>2024-02-15T11:50:46Z</time>
      </trkpt>
      <trkpt lat="45.19063" lon="3.99731">
        <ele>1013.37</ele>
        <time>2024-02-15T11:50:56Z</time>
      </trkpt>
      <trkpt lat="45.19057" lon="3.99716">
        <ele>1011.44</ele>
        <time>2024-02-15T11:51:07Z</time>
      </trkpt>
      <trkpt lat="45.19048" lon="3.99688">
        <ele>1008.56</ele>
        <time>2024-02-15T11:51:24Z</time>
      </trkpt>
      <trkpt lat="45.19035" lon="3.99662">
        <ele>1005.2</ele>
        <time>2024-02-15T11:51:41Z</time>
      </trkpt>
      <trkpt lat="45.1902" lon="3.99647">
        <ele>1001.83</ele>
        <time>2024-02-15T11:51:57Z</time>
      </trkpt>
      <trkpt lat="45.19" lon="3.99626">
        <ele>995.58</ele>
        <time>2024-02-15T11:52:17Z</time>
      </trkpt>
      <trkpt lat="45.18993" lon="3.99619">
        <ele>994.14</ele>
        <time>2024-02-15T11:52:23Z</time>
      </trkpt>
      <trkpt lat="45.18981" lon="3.99617">
        <ele>1000.39</ele>
        <time>2024-02-15T11:52:35Z</time>
      </trkpt>
      <trkpt lat="45.18954" lon="3.99604">
        <ele>1001.83</ele>
        <time>2024-02-15T11:52:55Z</time>
      </trkpt>
      <trkpt lat="45.18936" lon="3.9961">
        <ele>1005.68</ele>
        <time>2024-02-15T11:53:12Z</time>
      </trkpt>
      <trkpt lat="45.18911" lon="3.99611">
        <ele>1008.08</ele>
        <time>2024-02-15T11:53:32Z</time>
      </trkpt>
      <trkpt lat="45.18895" lon="3.99609">
        <ele>1006.64</ele>
        <time>2024-02-15T11:53:43Z</time>
      </trkpt>
      <trkpt lat="45.1889" lon="3.9961">
        <ele>1006.64</ele>
        <time>2024-02-15T11:53:46Z</time>
      </trkpt>
      <trkpt lat="45.18873" lon="3.99605">
        <ele>1005.68</ele>
        <time>2024-02-15T11:53:59Z</time>
      </trkpt>
      <trkpt lat="45.18851" lon="3.99606">
        <ele>1003.27</ele>
        <time>2024-02-15T11:54:19Z</time>
      </trkpt>
      <trkpt lat="45.1883" lon="3.99604">
        <ele>1011.44</ele>
        <time>2024-02-15T11:54:34Z</time>
      </trkpt>
      <trkpt lat="45.1881" lon="3.99606">
        <ele>1013.37</ele>
        <time>2024-02-15T11:54:50Z</time>
      </trkpt>
      <trkpt lat="45.18792" lon="3.99608">
        <ele>1012.89</ele>
        <time>2024-02-15T11:55:03Z</time>
      </trkpt>
      <trkpt lat="45.18777" lon="3.99613">
        <ele>1009.04</ele>
        <time>2024-02-15T11:55:16Z</time>
      </trkpt>
      <trkpt lat="45.18749" lon="3.99615">
        <ele>1008.56</ele>
        <time>2024-02-15T11:55:35Z</time>
      </trkpt>
      <trkpt lat="45.18732" lon="3.99618">
        <ele>1005.68</ele>
        <time>2024-02-15T11:55:52Z</time>
      </trkpt>
      <trkpt lat="45.18714" lon="3.99629">
        <ele>1000.39</ele>
        <time>2024-02-15T11:56:07Z</time>
      </trkpt>
      <trkpt lat="45.18685" lon="3.99646">
        <ele>989.33</ele>
        <time>2024-02-15T11:56:28Z</time>
      </trkpt>
      <trkpt lat="45.18684" lon="3.99647">
        <ele>989.33</ele>
        <time>2024-02-15T11:56:29Z</time>
      </trkpt>
      <trkpt lat="45.18671" lon="3.99669">
        <ele>985.49</ele>
        <time>2024-02-15T11:56:48Z</time>
      </trkpt>
      <trkpt lat="45.18657" lon="3.99697">
        <ele>992.7</ele>
        <time>2024-02-15T11:57:07Z</time>
      </trkpt>
      <trkpt lat="45.18649" lon="3.99709">
        <ele>994.14</ele>
        <time>2024-02-15T11:57:15Z</time>
      </trkpt>
      <trkpt lat="45.18635" lon="3.9973">
        <ele>993.18</ele>
        <time>2024-02-15T11:57:29Z</time>
      </trkpt>
      <trkpt lat="45.18613" lon="3.99762">
        <ele>987.41</ele>
        <time>2024-02-15T11:57:51Z</time>
      </trkpt>
      <trkpt lat="45.18601" lon="3.99792">
        <ele>989.33</ele>
        <time>2024-02-15T11:58:09Z</time>
      </trkpt>
      <trkpt lat="45.18585" lon="3.99819">
        <ele>982.12</ele>
        <time>2024-02-15T11:58:28Z</time>
      </trkpt>
      <trkpt lat="45.18577" lon="3.99826">
        <ele>979.72</ele>
        <time>2024-02-15T11:58:35Z</time>
      </trkpt>
      <trkpt lat="45.18567" lon="3.99857">
        <ele>972.51</ele>
        <time>2024-02-15T11:58:52Z</time>
      </trkpt>
      <trkpt lat="45.18561" lon="3.99884">
        <ele>970.59</ele>
        <time>2024-02-15T11:59:06Z</time>
      </trkpt>
      <trkpt lat="45.18553" lon="3.99914">
        <ele>968.18</ele>
        <time>2024-02-15T11:59:27Z</time>
      </trkpt>
      <trkpt lat="45.18546" lon="3.99943">
        <ele>968.18</ele>
        <time>2024-02-15T11:59:44Z</time>
      </trkpt>
      <trkpt lat="45.1853" lon="3.99971">
        <ele>965.3</ele>
        <time>2024-02-15T12:00:01Z</time>
      </trkpt>
      <trkpt lat="45.18527" lon="3.99976">
        <ele>964.82</ele>
        <time>2024-02-15T12:00:04Z</time>
      </trkpt>
      <trkpt lat="45.18527" lon="3.99985">
        <ele>967.7</ele>
        <time>2024-02-15T12:00:07Z</time>
      </trkpt>
      <trkpt lat="45.18521" lon="3.99997">
        <ele>967.22</ele>
        <time>2024-02-15T12:00:15Z</time>
      </trkpt>
      <trkpt lat="45.18519" lon="4">
        <ele>966.74</ele>
        <time>2024-02-15T12:00:17Z</time>
      </trkpt>
      <trkpt lat="45.18506" lon="4.00016">
        <ele>966.74</ele>
        <time>2024-02-15T12:00:29Z</time>
      </trkpt>
      <trkpt lat="45.18503" lon="4.00023">
        <ele>966.26</ele>
        <time>2024-02-15T12:00:34Z</time>
      </trkpt>
      <trkpt lat="45.18486" lon="4.00046">
        <ele>964.82</ele>
        <time>2024-02-15T12:00:51Z</time>
      </trkpt>
      <trkpt lat="45.18481" lon="4.00052">
        <ele>964.34</ele>
        <time>2024-02-15T12:00:56Z</time>
      </trkpt>
      <trkpt lat="45.18463" lon="4.00074">
        <ele>960.98</ele>
        <time>2024-02-15T12:01:15Z</time>
      </trkpt>
      <trkpt lat="45.18461" lon="4.00077">
        <ele>960.49</ele>
        <time>2024-02-15T12:01:17Z</time>
      </trkpt>
      <trkpt lat="45.18449" lon="4.00087">
        <ele>958.09</ele>
        <time>2024-02-15T12:01:35Z</time>
      </trkpt>
      <trkpt lat="45.18447" lon="4.00096">
        <ele>960.01</ele>
        <time>2024-02-15T12:01:56Z</time>
      </trkpt>
      <trkpt lat="45.18441" lon="4.00108">
        <ele>963.86</ele>
        <time>2024-02-15T12:02:08Z</time>
      </trkpt>
      <trkpt lat="45.18437" lon="4.00121">
        <ele>964.82</ele>
        <time>2024-02-15T12:02:16Z</time>
      </trkpt>
      <trkpt lat="45.18422" lon="4.00137">
        <ele>965.78</ele>
        <time>2024-02-15T12:02:31Z</time>
      </trkpt>
      <trkpt lat="45.18417" lon="4.00144">
        <ele>966.26</ele>
        <time>2024-02-15T12:02:45Z</time>
      </trkpt>
      <trkpt lat="45.18414" lon="4.00149">
        <ele>966.74</ele>
        <time>2024-02-15T12:03:07Z</time>
      </trkpt>
      <trkpt lat="45.18405" lon="4.00164">
        <ele>961.46</ele>
        <time>2024-02-15T12:03:19Z</time>
      </trkpt>
      <trkpt lat="45.18393" lon="4.00182">
        <ele>955.21</ele>
        <time>2024-02-15T12:03:33Z</time>
      </trkpt>
      <trkpt lat="45.1838" lon="4.00199">
        <ele>948.96</ele>
        <time>2024-02-15T12:03:48Z</time>
      </trkpt>
      <trkpt lat="45.18372" lon="4.00236">
        <ele>941.27</ele>
        <time>2024-02-15T12:04:07Z</time>
      </trkpt>
      <trkpt lat="45.18372" lon="4.00265">
        <ele>938.86</ele>
        <time>2024-02-15T12:04:23Z</time>
      </trkpt>
      <trkpt lat="45.18372" lon="4.0027">
        <ele>937.9</ele>
        <time>2024-02-15T12:04:26Z</time>
      </trkpt>
      <trkpt lat="45.18371" lon="4.00275">
        <ele>938.38</ele>
        <time>2024-02-15T12:04:28Z</time>
      </trkpt>
      <trkpt lat="45.18372" lon="4.00314">
        <ele>937.9</ele>
        <time>2024-02-15T12:04:47Z</time>
      </trkpt>
      <trkpt lat="45.18375" lon="4.00342">
        <ele>941.75</ele>
        <time>2024-02-15T12:05:02Z</time>
      </trkpt>
      <trkpt lat="45.18379" lon="4.00375">
        <ele>944.63</ele>
        <time>2024-02-15T12:05:19Z</time>
      </trkpt>
      <trkpt lat="45.18385" lon="4.00409">
        <ele>946.07</ele>
        <time>2024-02-15T12:05:37Z</time>
      </trkpt>
      <trkpt lat="45.18389" lon="4.00445">
        <ele>948.48</ele>
        <time>2024-02-15T12:05:56Z</time>
      </trkpt>
      <trkpt lat="45.18396" lon="4.00479">
        <ele>948</ele>
        <time>2024-02-15T12:06:13Z</time>
      </trkpt>
      <trkpt lat="45.18396" lon="4.00504">
        <ele>948.96</ele>
        <time>2024-02-15T12:06:25Z</time>
      </trkpt>
      <trkpt lat="45.18389" lon="4.0053">
        <ele>948.96</ele>
        <time>2024-02-15T12:06:40Z</time>
      </trkpt>
      <trkpt lat="45.18374" lon="4.00557">
        <ele>948.96</ele>
        <time>2024-02-15T12:06:56Z</time>
      </trkpt>
      <trkpt lat="45.18359" lon="4.00582">
        <ele>947.52</ele>
        <time>2024-02-15T12:07:13Z</time>
      </trkpt>
      <trkpt lat="45.1834" lon="4.00609">
        <ele>945.11</ele>
        <time>2024-02-15T12:07:32Z</time>
      </trkpt>
      <trkpt lat="45.18326" lon="4.00636">
        <ele>943.19</ele>
        <time>2024-02-15T12:07:48Z</time>
      </trkpt>
      <trkpt lat="45.18314" lon="4.00657">
        <ele>940.79</ele>
        <time>2024-02-15T12:08:02Z</time>
      </trkpt>
      <trkpt lat="45.18305" lon="4.00677">
        <ele>939.83</ele>
        <time>2024-02-15T12:08:13Z</time>
      </trkpt>
      <trkpt lat="45.18293" lon="4.00702">
        <ele>941.27</ele>
        <time>2024-02-15T12:08:28Z</time>
      </trkpt>
      <trkpt lat="45.18279" lon="4.00729">
        <ele>939.35</ele>
        <time>2024-02-15T12:08:44Z</time>
      </trkpt>
      <trkpt lat="45.1827" lon="4.00764">
        <ele>937.9</ele>
        <time>2024-02-15T12:09:02Z</time>
      </trkpt>
      <trkpt lat="45.18264" lon="4.00798">
        <ele>937.9</ele>
        <time>2024-02-15T12:09:18Z</time>
      </trkpt>
      <trkpt lat="45.18264" lon="4.00827">
        <ele>936.46</ele>
        <time>2024-02-15T12:09:33Z</time>
      </trkpt>
      <trkpt lat="45.18251" lon="4.00829">
        <ele>934.54</ele>
        <time>2024-02-15T12:09:44Z</time>
      </trkpt>
      <trkpt lat="45.18243" lon="4.00821">
        <ele>933.58</ele>
        <time>2024-02-15T12:09:51Z</time>
      </trkpt>
      <trkpt lat="45.18222" lon="4.0081">
        <ele>932.62</ele>
        <time>2024-02-15T12:10:08Z</time>
      </trkpt>
      <trkpt lat="45.18195" lon="4.00796">
        <ele>936.94</ele>
        <time>2024-02-15T12:10:28Z</time>
      </trkpt>
      <trkpt lat="45.18176" lon="4.00793">
        <ele>941.27</ele>
        <time>2024-02-15T12:10:44Z</time>
      </trkpt>
      <trkpt lat="45.18175" lon="4.00792">
        <ele>941.27</ele>
        <time>2024-02-15T12:10:45Z</time>
      </trkpt>
      <trkpt lat="45.18173" lon="4.00791">
        <ele>941.75</ele>
        <time>2024-02-15T12:10:47Z</time>
      </trkpt>
      <trkpt lat="45.18149" lon="4.0078">
        <ele>941.27</ele>
        <time>2024-02-15T12:11:05Z</time>
      </trkpt>
      <trkpt lat="45.18122" lon="4.0076">
        <ele>943.67</ele>
        <time>2024-02-15T12:11:27Z</time>
      </trkpt>
      <trkpt lat="45.18101" lon="4.00752">
        <ele>945.59</ele>
        <time>2024-02-15T12:11:42Z</time>
      </trkpt>
      <trkpt lat="45.18072" lon="4.00746">
        <ele>946.56</ele>
        <time>2024-02-15T12:12:01Z</time>
      </trkpt>
      <trkpt lat="45.18051" lon="4.00739">
        <ele>948.48</ele>
        <time>2024-02-15T12:12:20Z</time>
      </trkpt>
      <trkpt lat="45.18025" lon="4.00732">
        <ele>946.56</ele>
        <time>2024-02-15T12:12:38Z</time>
      </trkpt>
      <trkpt lat="45.17999" lon="4.00731">
        <ele>946.07</ele>
        <time>2024-02-15T12:12:57Z</time>
      </trkpt>
      <trkpt lat="45.17974" lon="4.00729">
        <ele>949.44</ele>
        <time>2024-02-15T12:13:17Z</time>
      </trkpt>
      <trkpt lat="45.17949" lon="4.00733">
        <ele>957.13</ele>
        <time>2024-02-15T12:13:33Z</time>
      </trkpt>
      <trkpt lat="45.17938" lon="4.0073">
        <ele>960.01</ele>
        <time>2024-02-15T12:13:42Z</time>
      </trkpt>
      <trkpt lat="45.17934" lon="4.00727">
        <ele>961.94</ele>
        <time>2024-02-15T12:13:46Z</time>
      </trkpt>
      <trkpt lat="45.17921" lon="4.00719">
        <ele>962.42</ele>
        <time>2024-02-15T12:13:56Z</time>
      </trkpt>
      <trkpt lat="45.17911" lon="4.00708">
        <ele>963.86</ele>
        <time>2024-02-15T12:14:07Z</time>
      </trkpt>
      <trkpt lat="45.17899" lon="4.00694">
        <ele>964.34</ele>
        <time>2024-02-15T12:14:18Z</time>
      </trkpt>
      <trkpt lat="45.17896" lon="4.00688">
        <ele>962.9</ele>
        <time>2024-02-15T12:14:31Z</time>
      </trkpt>
      <trkpt lat="45.17892" lon="4.00688">
        <ele>962.42</ele>
        <time>2024-02-15T12:14:43Z</time>
      </trkpt>
      <trkpt lat="45.17885" lon="4.00684">
        <ele>961.46</ele>
        <time>2024-02-15T12:14:49Z</time>
      </trkpt>
      <trkpt lat="45.17876" lon="4.00682">
        <ele>960.49</ele>
        <time>2024-02-15T12:15:02Z</time>
      </trkpt>
      <trkpt lat="45.17876" lon="4.00678">
        <ele>959.53</ele>
        <time>2024-02-15T12:15:08Z</time>
      </trkpt>
      <trkpt lat="45.17869" lon="4.00658">
        <ele>958.57</ele>
        <time>2024-02-15T12:15:19Z</time>
      </trkpt>
      <trkpt lat="45.17862" lon="4.00645">
        <ele>958.09</ele>
        <time>2024-02-15T12:15:27Z</time>
      </trkpt>
      <trkpt lat="45.17854" lon="4.00637">
        <ele>959.05</ele>
        <time>2024-02-15T12:15:36Z</time>
      </trkpt>
      <trkpt lat="45.17845" lon="4.00622">
        <ele>957.13</ele>
        <time>2024-02-15T12:15:48Z</time>
      </trkpt>
      <trkpt lat="45.17843" lon="4.00617">
        <ele>956.65</ele>
        <time>2024-02-15T12:15:57Z</time>
      </trkpt>
      <trkpt lat="45.17842" lon="4.00606">
        <ele>956.65</ele>
        <time>2024-02-15T12:16:02Z</time>
      </trkpt>
      <trkpt lat="45.17843" lon="4.0059">
        <ele>956.17</ele>
        <time>2024-02-15T12:16:14Z</time>
      </trkpt>
      <trkpt lat="45.17843" lon="4.00589">
        <ele>956.17</ele>
        <time>2024-02-15T12:16:15Z</time>
      </trkpt>
      <trkpt lat="45.17833" lon="4.00568">
        <ele>955.69</ele>
        <time>2024-02-15T12:16:28Z</time>
      </trkpt>
      <trkpt lat="45.17829" lon="4.0056">
        <ele>956.17</ele>
        <time>2024-02-15T12:16:34Z</time>
      </trkpt>
      <trkpt lat="45.17828" lon="4.00558">
        <ele>956.65</ele>
        <time>2024-02-15T12:16:36Z</time>
      </trkpt>
      <trkpt lat="45.17816" lon="4.00541">
        <ele>958.57</ele>
        <time>2024-02-15T12:16:48Z</time>
      </trkpt>
      <trkpt lat="45.17811" lon="4.00531">
        <ele>957.61</ele>
        <time>2024-02-15T12:17:02Z</time>
      </trkpt>
      <trkpt lat="45.17808" lon="4.0052">
        <ele>957.61</ele>
        <time>2024-02-15T12:17:08Z</time>
      </trkpt>
      <trkpt lat="45.17806" lon="4.00516">
        <ele>957.13</ele>
        <time>2024-02-15T12:17:10Z</time>
      </trkpt>
      <trkpt lat="45.17804" lon="4.00502">
        <ele>955.69</ele>
        <time>2024-02-15T12:17:18Z</time>
      </trkpt>
      <trkpt lat="45.17801" lon="4.00484">
        <ele>952.8</ele>
        <time>2024-02-15T12:17:29Z</time>
      </trkpt>
      <trkpt lat="45.17784" lon="4.00454">
        <ele>948.48</ele>
        <time>2024-02-15T12:17:50Z</time>
      </trkpt>
      <trkpt lat="45.17765" lon="4.00424">
        <ele>947.04</ele>
        <time>2024-02-15T12:18:08Z</time>
      </trkpt>
      <trkpt lat="45.17754" lon="4.00399">
        <ele>944.15</ele>
        <time>2024-02-15T12:18:26Z</time>
      </trkpt>
      <trkpt lat="45.17756" lon="4.00377">
        <ele>948</ele>
        <time>2024-02-15T12:18:39Z</time>
      </trkpt>
      <trkpt lat="45.17765" lon="4.00338">
        <ele>944.15</ele>
        <time>2024-02-15T12:18:58Z</time>
      </trkpt>
      <trkpt lat="45.1777" lon="4.00312">
        <ele>940.79</ele>
        <time>2024-02-15T12:19:13Z</time>
      </trkpt>
      <trkpt lat="45.17774" lon="4.00292">
        <ele>941.75</ele>
        <time>2024-02-15T12:19:24Z</time>
      </trkpt>
      <trkpt lat="45.17773" lon="4.00288">
        <ele>941.75</ele>
        <time>2024-02-15T12:19:26Z</time>
      </trkpt>
      <trkpt lat="45.17762" lon="4.00259">
        <ele>939.83</ele>
        <time>2024-02-15T12:19:40Z</time>
      </trkpt>
      <trkpt lat="45.17751" lon="4.00239">
        <ele>937.9</ele>
        <time>2024-02-15T12:19:54Z</time>
      </trkpt>
      <trkpt lat="45.17748" lon="4.00222">
        <ele>937.42</ele>
        <time>2024-02-15T12:20:03Z</time>
      </trkpt>
      <trkpt lat="45.17748" lon="4.00199">
        <ele>933.58</ele>
        <time>2024-02-15T12:20:14Z</time>
      </trkpt>
      <trkpt lat="45.17748" lon="4.00192">
        <ele>931.65</ele>
        <time>2024-02-15T12:20:19Z</time>
      </trkpt>
      <trkpt lat="45.17748" lon="4.0018">
        <ele>929.73</ele>
        <time>2024-02-15T12:20:28Z</time>
      </trkpt>
      <trkpt lat="45.1775" lon="4.00161">
        <ele>931.17</ele>
        <time>2024-02-15T12:20:38Z</time>
      </trkpt>
      <trkpt lat="45.1775" lon="4.00141">
        <ele>928.29</ele>
        <time>2024-02-15T12:20:50Z</time>
      </trkpt>
      <trkpt lat="45.1775" lon="4.00131">
        <ele>928.29</ele>
        <time>2024-02-15T12:20:55Z</time>
      </trkpt>
      <trkpt lat="45.17757" lon="4.00119">
        <ele>928.29</ele>
        <time>2024-02-15T12:21:03Z</time>
      </trkpt>
      <trkpt lat="45.17759" lon="4.00113">
        <ele>927.33</ele>
        <time>2024-02-15T12:21:07Z</time>
      </trkpt>
      <trkpt lat="45.17764" lon="4.00092">
        <ele>925.41</ele>
        <time>2024-02-15T12:21:20Z</time>
      </trkpt>
      <trkpt lat="45.17758" lon="4.00075">
        <ele>924.93</ele>
        <time>2024-02-15T12:21:31Z</time>
      </trkpt>
      <trkpt lat="45.17757" lon="4.00058">
        <ele>923</ele>
        <time>2024-02-15T12:21:41Z</time>
      </trkpt>
      <trkpt lat="45.17758" lon="4.00049">
        <ele>922.52</ele>
        <time>2024-02-15T12:21:46Z</time>
      </trkpt>
      <trkpt lat="45.17757" lon="4.0004">
        <ele>920.6</ele>
        <time>2024-02-15T12:21:53Z</time>
      </trkpt>
      <trkpt lat="45.17756" lon="4.0003">
        <ele>919.16</ele>
        <time>2024-02-15T12:21:57Z</time>
      </trkpt>
      <trkpt lat="45.17757" lon="4.00022">
        <ele>916.75</ele>
        <time>2024-02-15T12:22:04Z</time>
      </trkpt>
      <trkpt lat="45.17756" lon="4.00001">
        <ele>912.91</ele>
        <time>2024-02-15T12:22:14Z</time>
      </trkpt>
      <trkpt lat="45.17755" lon="3.99982">
        <ele>910.03</ele>
        <time>2024-02-15T12:22:24Z</time>
      </trkpt>
      <trkpt lat="45.17753" lon="3.99975">
        <ele>909.06</ele>
        <time>2024-02-15T12:22:28Z</time>
      </trkpt>
      <trkpt lat="45.17749" lon="3.99954">
        <ele>906.66</ele>
        <time>2024-02-15T12:22:39Z</time>
      </trkpt>
      <trkpt lat="45.17746" lon="3.99938">
        <ele>903.78</ele>
        <time>2024-02-15T12:22:49Z</time>
      </trkpt>
      <trkpt lat="45.17737" lon="3.9993">
        <ele>903.3</ele>
        <time>2024-02-15T12:22:57Z</time>
      </trkpt>
      <trkpt lat="45.17721" lon="3.99927">
        <ele>902.82</ele>
        <time>2024-02-15T12:23:09Z</time>
      </trkpt>
      <trkpt lat="45.17709" lon="3.99924">
        <ele>902.82</ele>
        <time>2024-02-15T12:23:21Z</time>
      </trkpt>
      <trkpt lat="45.17697" lon="3.99909">
        <ele>900.89</ele>
        <time>2024-02-15T12:23:34Z</time>
      </trkpt>
      <trkpt lat="45.1768" lon="3.99884">
        <ele>896.57</ele>
        <time>2024-02-15T12:23:53Z</time>
      </trkpt>
      <trkpt lat="45.17666" lon="3.99875">
        <ele>897.53</ele>
        <time>2024-02-15T12:24:06Z</time>
      </trkpt>
      <trkpt lat="45.17645" lon="3.99863">
        <ele>896.57</ele>
        <time>2024-02-15T12:24:24Z</time>
      </trkpt>
      <trkpt lat="45.17624" lon="3.99853">
        <ele>895.12</ele>
        <time>2024-02-15T12:24:44Z</time>
      </trkpt>
      <trkpt lat="45.17607" lon="3.99846">
        <ele>895.12</ele>
        <time>2024-02-15T12:24:59Z</time>
      </trkpt>
      <trkpt lat="45.17601" lon="3.99843">
        <ele>896.09</ele>
        <time>2024-02-15T12:25:18Z</time>
      </trkpt>
      <trkpt lat="45.17572" lon="3.99819">
        <ele>898.01</ele>
        <time>2024-02-15T12:25:37Z</time>
      </trkpt>
      <trkpt lat="45.17561" lon="3.99803">
        <ele>897.05</ele>
        <time>2024-02-15T12:25:53Z</time>
      </trkpt>
      <trkpt lat="45.17544" lon="3.99786">
        <ele>894.64</ele>
        <time>2024-02-15T12:26:10Z</time>
      </trkpt>
      <trkpt lat="45.17525" lon="3.99767">
        <ele>893.68</ele>
        <time>2024-02-15T12:26:28Z</time>
      </trkpt>
      <trkpt lat="45.175" lon="3.99752">
        <ele>886.47</ele>
        <time>2024-02-15T12:26:47Z</time>
      </trkpt>
      <trkpt lat="45.17494" lon="3.99751">
        <ele>885.03</ele>
        <time>2024-02-15T12:26:51Z</time>
      </trkpt>
      <trkpt lat="45.17471" lon="3.99741">
        <ele>883.11</ele>
        <time>2024-02-15T12:27:10Z</time>
      </trkpt>
      <trkpt lat="45.17465" lon="3.99743">
        <ele>884.07</ele>
        <time>2024-02-15T12:27:28Z</time>
      </trkpt>
      <trkpt lat="45.1747" lon="3.99737">
        <ele>884.55</ele>
        <time>2024-02-15T12:27:52Z</time>
      </trkpt>
      <trkpt lat="45.17475" lon="3.99729">
        <ele>884.55</ele>
        <time>2024-02-15T12:28:15Z</time>
      </trkpt>
      <trkpt lat="45.17475" lon="3.9973">
        <ele>884.07</ele>
        <time>2024-02-15T12:28:38Z</time>
      </trkpt>
      <trkpt lat="45.17472" lon="3.99738">
        <ele>884.07</ele>
        <time>2024-02-15T12:28:56Z</time>
      </trkpt>
      <trkpt lat="45.17472" lon="3.9974">
        <ele>884.55</ele>
        <time>2024-02-15T12:29:16Z</time>
      </trkpt>
      <trkpt lat="45.17473" lon="3.99742">
        <ele>885.03</ele>
        <time>2024-02-15T12:29:44Z</time>
      </trkpt>
      <trkpt lat="45.17472" lon="3.99743">
        <ele>884.55</ele>
        <time>2024-02-15T12:30:07Z</time>
      </trkpt>
      <trkpt lat="45.17467" lon="3.99741">
        <ele>884.07</ele>
        <time>2024-02-15T12:30:29Z</time>
      </trkpt>
      <trkpt lat="45.17467" lon="3.99743">
        <ele>884.55</ele>
        <time>2024-02-15T12:30:51Z</time>
      </trkpt>
      <trkpt lat="45.1746" lon="3.99744">
        <ele>885.99</ele>
        <time>2024-02-15T12:31:06Z</time>
      </trkpt>
      <trkpt lat="45.17443" lon="3.99736">
        <ele>890.8</ele>
        <time>2024-02-15T12:31:25Z</time>
      </trkpt>
      <trkpt lat="45.17428" lon="3.99731">
        <ele>893.68</ele>
        <time>2024-02-15T12:31:40Z</time>
      </trkpt>
      <trkpt lat="45.17414" lon="3.99728">
        <ele>895.12</ele>
        <time>2024-02-15T12:31:55Z</time>
      </trkpt>
      <trkpt lat="45.17403" lon="3.99723">
        <ele>898.97</ele>
        <time>2024-02-15T12:32:10Z</time>
      </trkpt>
      <trkpt lat="45.17395" lon="3.99718">
        <ele>899.45</ele>
        <time>2024-02-15T12:32:15Z</time>
      </trkpt>
      <trkpt lat="45.17388" lon="3.99715">
        <ele>899.93</ele>
        <time>2024-02-15T12:32:21Z</time>
      </trkpt>
      <trkpt lat="45.1738" lon="3.9971">
        <ele>899.93</ele>
        <time>2024-02-15T12:32:28Z</time>
      </trkpt>
      <trkpt lat="45.17367" lon="3.99704">
        <ele>899.45</ele>
        <time>2024-02-15T12:32:40Z</time>
      </trkpt>
      <trkpt lat="45.17352" lon="3.99696">
        <ele>899.93</ele>
        <time>2024-02-15T12:32:58Z</time>
      </trkpt>
      <trkpt lat="45.17341" lon="3.99685">
        <ele>900.89</ele>
        <time>2024-02-15T12:33:11Z</time>
      </trkpt>
      <trkpt lat="45.1733" lon="3.99679">
        <ele>901.37</ele>
        <time>2024-02-15T12:33:22Z</time>
      </trkpt>
      <trkpt lat="45.17311" lon="3.99672">
        <ele>901.37</ele>
        <time>2024-02-15T12:33:35Z</time>
      </trkpt>
      <trkpt lat="45.17294" lon="3.9967">
        <ele>901.37</ele>
        <time>2024-02-15T12:33:50Z</time>
      </trkpt>
      <trkpt lat="45.17293" lon="3.9967">
        <ele>901.37</ele>
        <time>2024-02-15T12:33:51Z</time>
      </trkpt>
      <trkpt lat="45.1728" lon="3.99656">
        <ele>901.85</ele>
        <time>2024-02-15T12:34:05Z</time>
      </trkpt>
      <trkpt lat="45.17274" lon="3.99646">
        <ele>900.41</ele>
        <time>2024-02-15T12:34:13Z</time>
      </trkpt>
      <trkpt lat="45.17266" lon="3.99633">
        <ele>895.61</ele>
        <time>2024-02-15T12:34:22Z</time>
      </trkpt>
      <trkpt lat="45.17259" lon="3.99611">
        <ele>892.72</ele>
        <time>2024-02-15T12:34:37Z</time>
      </trkpt>
      <trkpt lat="45.17259" lon="3.99604">
        <ele>891.76</ele>
        <time>2024-02-15T12:34:42Z</time>
      </trkpt>
      <trkpt lat="45.17257" lon="3.99589">
        <ele>891.28</ele>
        <time>2024-02-15T12:34:52Z</time>
      </trkpt>
      <trkpt lat="45.17252" lon="3.99568">
        <ele>887.43</ele>
        <time>2024-02-15T12:35:04Z</time>
      </trkpt>
      <trkpt lat="45.17242" lon="3.99551">
        <ele>884.55</ele>
        <time>2024-02-15T12:35:17Z</time>
      </trkpt>
      <trkpt lat="45.17239" lon="3.99546">
        <ele>884.07</ele>
        <time>2024-02-15T12:35:26Z</time>
      </trkpt>
      <trkpt lat="45.1724" lon="3.99528">
        <ele>883.11</ele>
        <time>2024-02-15T12:35:41Z</time>
      </trkpt>
      <trkpt lat="45.17238" lon="3.99508">
        <ele>881.67</ele>
        <time>2024-02-15T12:35:56Z</time>
      </trkpt>
      <trkpt lat="45.17229" lon="3.99497">
        <ele>881.67</ele>
        <time>2024-02-15T12:36:09Z</time>
      </trkpt>
      <trkpt lat="45.17223" lon="3.99493">
        <ele>880.71</ele>
        <time>2024-02-15T12:36:16Z</time>
      </trkpt>
      <trkpt lat="45.17208" lon="3.99485">
        <ele>880.22</ele>
        <time>2024-02-15T12:36:32Z</time>
      </trkpt>
      <trkpt lat="45.17189" lon="3.99469">
        <ele>879.26</ele>
        <time>2024-02-15T12:36:48Z</time>
      </trkpt>
      <trkpt lat="45.17179" lon="3.99454">
        <ele>878.3</ele>
        <time>2024-02-15T12:37:02Z</time>
      </trkpt>
      <trkpt lat="45.1717" lon="3.99434">
        <ele>876.38</ele>
        <time>2024-02-15T12:37:15Z</time>
      </trkpt>
      <trkpt lat="45.1717" lon="3.99433">
        <ele>875.9</ele>
        <time>2024-02-15T12:37:16Z</time>
      </trkpt>
      <trkpt lat="45.17167" lon="3.99404">
        <ele>874.46</ele>
        <time>2024-02-15T12:37:35Z</time>
      </trkpt>
      <trkpt lat="45.17158" lon="3.99376">
        <ele>869.17</ele>
        <time>2024-02-15T12:37:52Z</time>
      </trkpt>
      <trkpt lat="45.17143" lon="3.99348">
        <ele>866.77</ele>
        <time>2024-02-15T12:38:11Z</time>
      </trkpt>
      <trkpt lat="45.17139" lon="3.99328">
        <ele>861.48</ele>
        <time>2024-02-15T12:38:32Z</time>
      </trkpt>
      <trkpt lat="45.17135" lon="3.99319">
        <ele>860.52</ele>
        <time>2024-02-15T12:38:49Z</time>
      </trkpt>
      <trkpt lat="45.17125" lon="3.9929">
        <ele>859.08</ele>
        <time>2024-02-15T12:39:05Z</time>
      </trkpt>
      <trkpt lat="45.17114" lon="3.99266">
        <ele>858.11</ele>
        <time>2024-02-15T12:39:21Z</time>
      </trkpt>
      <trkpt lat="45.17109" lon="3.99259">
        <ele>857.15</ele>
        <time>2024-02-15T12:39:25Z</time>
      </trkpt>
      <trkpt lat="45.17105" lon="3.99244">
        <ele>856.67</ele>
        <time>2024-02-15T12:39:42Z</time>
      </trkpt>
      <trkpt lat="45.17109" lon="3.99244">
        <ele>855.23</ele>
        <time>2024-02-15T12:40:08Z</time>
      </trkpt>
      <trkpt lat="45.17109" lon="3.99247">
        <ele>856.19</ele>
        <time>2024-02-15T12:40:36Z</time>
      </trkpt>
      <trkpt lat="45.1711" lon="3.99245">
        <ele>855.71</ele>
        <time>2024-02-15T12:41:03Z</time>
      </trkpt>
      <trkpt lat="45.17111" lon="3.99245">
        <ele>857.15</ele>
        <time>2024-02-15T12:41:30Z</time>
      </trkpt>
      <trkpt lat="45.17109" lon="3.99245">
        <ele>858.11</ele>
        <time>2024-02-15T12:41:58Z</time>
      </trkpt>
      <trkpt lat="45.17108" lon="3.99244">
        <ele>857.15</ele>
        <time>2024-02-15T12:42:27Z</time>
      </trkpt>
      <trkpt lat="45.17107" lon="3.99243">
        <ele>856.19</ele>
        <time>2024-02-15T12:42:49Z</time>
      </trkpt>
      <trkpt lat="45.17098" lon="3.99217">
        <ele>856.19</ele>
        <time>2024-02-15T12:43:08Z</time>
      </trkpt>
      <trkpt lat="45.17086" lon="3.99196">
        <ele>854.75</ele>
        <time>2024-02-15T12:43:22Z</time>
      </trkpt>
      <trkpt lat="45.17084" lon="3.99184">
        <ele>853.79</ele>
        <time>2024-02-15T12:43:31Z</time>
      </trkpt>
      <trkpt lat="45.17086" lon="3.99163">
        <ele>852.83</ele>
        <time>2024-02-15T12:43:50Z</time>
      </trkpt>
      <trkpt lat="45.17083" lon="3.99119">
        <ele>851.87</ele>
        <time>2024-02-15T12:44:06Z</time>
      </trkpt>
      <trkpt lat="45.17079" lon="3.99106">
        <ele>851.38</ele>
        <time>2024-02-15T12:44:21Z</time>
      </trkpt>
      <trkpt lat="45.17071" lon="3.99083">
        <ele>849.46</ele>
        <time>2024-02-15T12:44:35Z</time>
      </trkpt>
      <trkpt lat="45.17068" lon="3.99065">
        <ele>849.46</ele>
        <time>2024-02-15T12:44:44Z</time>
      </trkpt>
      <trkpt lat="45.17059" lon="3.99043">
        <ele>848.5</ele>
        <time>2024-02-15T12:44:55Z</time>
      </trkpt>
      <trkpt lat="45.17048" lon="3.99025">
        <ele>846.58</ele>
        <time>2024-02-15T12:45:07Z</time>
      </trkpt>
      <trkpt lat="45.17044" lon="3.99017">
        <ele>846.1</ele>
        <time>2024-02-15T12:45:22Z</time>
      </trkpt>
      <trkpt lat="45.17035" lon="3.99005">
        <ele>846.58</ele>
        <time>2024-02-15T12:45:37Z</time>
      </trkpt>
      <trkpt lat="45.17025" lon="3.98993">
        <ele>845.62</ele>
        <time>2024-02-15T12:45:57Z</time>
      </trkpt>
      <trkpt lat="45.17012" lon="3.98969">
        <ele>845.14</ele>
        <time>2024-02-15T12:46:17Z</time>
      </trkpt>
      <trkpt lat="45.16991" lon="3.9893">
        <ele>843.21</ele>
        <time>2024-02-15T12:46:38Z</time>
      </trkpt>
      <trkpt lat="45.16978" lon="3.98906">
        <ele>840.33</ele>
        <time>2024-02-15T12:46:55Z</time>
      </trkpt>
      <trkpt lat="45.16969" lon="3.98902">
        <ele>839.85</ele>
        <time>2024-02-15T12:47:01Z</time>
      </trkpt>
      <trkpt lat="45.16956" lon="3.98886">
        <ele>839.37</ele>
        <time>2024-02-15T12:47:16Z</time>
      </trkpt>
      <trkpt lat="45.16943" lon="3.98871">
        <ele>839.37</ele>
        <time>2024-02-15T12:47:29Z</time>
      </trkpt>
      <trkpt lat="45.16928" lon="3.98857">
        <ele>838.41</ele>
        <time>2024-02-15T12:47:44Z</time>
      </trkpt>
      <trkpt lat="45.16914" lon="3.98843">
        <ele>837.93</ele>
        <time>2024-02-15T12:48:00Z</time>
      </trkpt>
      <trkpt lat="45.16893" lon="3.98839">
        <ele>837.93</ele>
        <time>2024-02-15T12:48:17Z</time>
      </trkpt>
      <trkpt lat="45.16887" lon="3.98838">
        <ele>837.93</ele>
        <time>2024-02-15T12:48:23Z</time>
      </trkpt>
      <trkpt lat="45.16866" lon="3.98829">
        <ele>836.96</ele>
        <time>2024-02-15T12:48:38Z</time>
      </trkpt>
      <trkpt lat="45.16863" lon="3.98826">
        <ele>836.48</ele>
        <time>2024-02-15T12:48:41Z</time>
      </trkpt>
      <trkpt lat="45.16859" lon="3.98824">
        <ele>836</ele>
        <time>2024-02-15T12:48:44Z</time>
      </trkpt>
      <trkpt lat="45.1685" lon="3.98823">
        <ele>834.08</ele>
        <time>2024-02-15T12:48:52Z</time>
      </trkpt>
      <trkpt lat="45.16831" lon="3.98825">
        <ele>830.24</ele>
        <time>2024-02-15T12:49:07Z</time>
      </trkpt>
      <trkpt lat="45.16829" lon="3.98825">
        <ele>829.27</ele>
        <time>2024-02-15T12:49:09Z</time>
      </trkpt>
      <trkpt lat="45.16817" lon="3.98843">
        <ele>827.83</ele>
        <time>2024-02-15T12:49:23Z</time>
      </trkpt>
      <trkpt lat="45.16814" lon="3.98853">
        <ele>827.83</ele>
        <time>2024-02-15T12:49:33Z</time>
      </trkpt>
      <trkpt lat="45.16811" lon="3.98861">
        <ele>828.31</ele>
        <time>2024-02-15T12:49:40Z</time>
      </trkpt>
      <trkpt lat="45.16807" lon="3.98867">
        <ele>828.79</ele>
        <time>2024-02-15T12:49:45Z</time>
      </trkpt>
      <trkpt lat="45.16807" lon="3.98885">
        <ele>829.76</ele>
        <time>2024-02-15T12:49:55Z</time>
      </trkpt>
      <trkpt lat="45.16803" lon="3.98909">
        <ele>828.79</ele>
        <time>2024-02-15T12:50:08Z</time>
      </trkpt>
      <trkpt lat="45.16802" lon="3.98928">
        <ele>828.79</ele>
        <time>2024-02-15T12:50:20Z</time>
      </trkpt>
      <trkpt lat="45.16799" lon="3.98947">
        <ele>830.72</ele>
        <time>2024-02-15T12:50:34Z</time>
      </trkpt>
      <trkpt lat="45.16797" lon="3.98952">
        <ele>831.2</ele>
        <time>2024-02-15T12:50:38Z</time>
      </trkpt>
      <trkpt lat="45.16789" lon="3.98965">
        <ele>834.08</ele>
        <time>2024-02-15T12:50:50Z</time>
      </trkpt>
      <trkpt lat="45.16785" lon="3.98975">
        <ele>836</ele>
        <time>2024-02-15T12:51:10Z</time>
      </trkpt>
      <trkpt lat="45.16779" lon="3.98984">
        <ele>837.45</ele>
        <time>2024-02-15T12:51:32Z</time>
      </trkpt>
      <trkpt lat="45.16764" lon="3.98994">
        <ele>843.21</ele>
        <time>2024-02-15T12:51:51Z</time>
      </trkpt>
      <trkpt lat="45.16762" lon="3.99015">
        <ele>845.14</ele>
        <time>2024-02-15T12:52:11Z</time>
      </trkpt>
      <trkpt lat="45.16762" lon="3.99031">
        <ele>846.1</ele>
        <time>2024-02-15T12:52:31Z</time>
      </trkpt>
      <trkpt lat="45.16755" lon="3.99049">
        <ele>846.58</ele>
        <time>2024-02-15T12:52:43Z</time>
      </trkpt>
      <trkpt lat="45.16751" lon="3.99059">
        <ele>846.58</ele>
        <time>2024-02-15T12:52:46Z</time>
      </trkpt>
      <trkpt lat="45.16747" lon="3.9907">
        <ele>851.38</ele>
        <time>2024-02-15T12:53:00Z</time>
      </trkpt>
      <trkpt lat="45.16753" lon="3.99076">
        <ele>852.83</ele>
        <time>2024-02-15T12:53:19Z</time>
      </trkpt>
      <trkpt lat="45.16773" lon="3.99077">
        <ele>854.27</ele>
        <time>2024-02-15T12:53:38Z</time>
      </trkpt>
      <trkpt lat="45.16789" lon="3.991">
        <ele>857.63</ele>
        <time>2024-02-15T12:53:59Z</time>
      </trkpt>
      <trkpt lat="45.16789" lon="3.99111">
        <ele>859.56</ele>
        <time>2024-02-15T12:54:11Z</time>
      </trkpt>
      <trkpt lat="45.16788" lon="3.99119">
        <ele>861.96</ele>
        <time>2024-02-15T12:54:26Z</time>
      </trkpt>
      <trkpt lat="45.16789" lon="3.99121">
        <ele>863.88</ele>
        <time>2024-02-15T12:54:56Z</time>
      </trkpt>
      <trkpt lat="45.16788" lon="3.99124">
        <ele>865.32</ele>
        <time>2024-02-15T12:55:17Z</time>
      </trkpt>
      <trkpt lat="45.16785" lon="3.99126">
        <ele>867.25</ele>
        <time>2024-02-15T12:55:36Z</time>
      </trkpt>
      <trkpt lat="45.16781" lon="3.99131">
        <ele>868.21</ele>
        <time>2024-02-15T12:55:54Z</time>
      </trkpt>
      <trkpt lat="45.16778" lon="3.99136">
        <ele>867.73</ele>
        <time>2024-02-15T12:56:10Z</time>
      </trkpt>
      <trkpt lat="45.16773" lon="3.99146">
        <ele>866.29</ele>
        <time>2024-02-15T12:56:34Z</time>
      </trkpt>
      <trkpt lat="45.16772" lon="3.99152">
        <ele>864.36</ele>
        <time>2024-02-15T12:57:03Z</time>
      </trkpt>
      <trkpt lat="45.16769" lon="3.99155">
        <ele>864.84</ele>
        <time>2024-02-15T12:57:25Z</time>
      </trkpt>
      <trkpt lat="45.16766" lon="3.99156">
        <ele>864.36</ele>
        <time>2024-02-15T12:57:50Z</time>
      </trkpt>
      <trkpt lat="45.16764" lon="3.99156">
        <ele>863.88</ele>
        <time>2024-02-15T12:58:10Z</time>
      </trkpt>
      <trkpt lat="45.16761" lon="3.99157">
        <ele>862.92</ele>
        <time>2024-02-15T12:58:38Z</time>
      </trkpt>
      <trkpt lat="45.16759" lon="3.99158">
        <ele>862.44</ele>
        <time>2024-02-15T12:58:54Z</time>
      </trkpt>
      <trkpt lat="45.16757" lon="3.99161">
        <ele>861.96</ele>
        <time>2024-02-15T12:59:16Z</time>
      </trkpt>
      <trkpt lat="45.16743" lon="3.99178">
        <ele>860.04</ele>
        <time>2024-02-15T12:59:34Z</time>
      </trkpt>
      <trkpt lat="45.16728" lon="3.99196">
        <ele>858.59</ele>
        <time>2024-02-15T12:59:55Z</time>
      </trkpt>
      <trkpt lat="45.16719" lon="3.99206">
        <ele>858.11</ele>
        <time>2024-02-15T13:00:14Z</time>
      </trkpt>
      <trkpt lat="45.16696" lon="3.99245">
        <ele>856.19</ele>
        <time>2024-02-15T13:00:37Z</time>
      </trkpt>
      <trkpt lat="45.16669" lon="3.99287">
        <ele>853.79</ele>
        <time>2024-02-15T13:00:58Z</time>
      </trkpt>
      <trkpt lat="45.16657" lon="3.99305">
        <ele>853.79</ele>
        <time>2024-02-15T13:01:16Z</time>
      </trkpt>
      <trkpt lat="45.16632" lon="3.99329">
        <ele>855.71</ele>
        <time>2024-02-15T13:01:34Z</time>
      </trkpt>
      <trkpt lat="45.16606" lon="3.99374">
        <ele>858.59</ele>
        <time>2024-02-15T13:01:55Z</time>
      </trkpt>
      <trkpt lat="45.16594" lon="3.99384">
        <ele>858.59</ele>
        <time>2024-02-15T13:02:02Z</time>
      </trkpt>
      <trkpt lat="45.1658" lon="3.99395">
        <ele>857.63</ele>
        <time>2024-02-15T13:02:16Z</time>
      </trkpt>
      <trkpt lat="45.16565" lon="3.99431">
        <ele>857.63</ele>
        <time>2024-02-15T13:02:37Z</time>
      </trkpt>
      <trkpt lat="45.16558" lon="3.99461">
        <ele>861</ele>
        <time>2024-02-15T13:02:58Z</time>
      </trkpt>
      <trkpt lat="45.16549" lon="3.99508">
        <ele>860.52</ele>
        <time>2024-02-15T13:03:19Z</time>
      </trkpt>
      <trkpt lat="45.1655" lon="3.99542">
        <ele>860.04</ele>
        <time>2024-02-15T13:03:39Z</time>
      </trkpt>
      <trkpt lat="45.16554" lon="3.99559">
        <ele>870.13</ele>
        <time>2024-02-15T13:03:53Z</time>
      </trkpt>
      <trkpt lat="45.16544" lon="3.99581">
        <ele>867.25</ele>
        <time>2024-02-15T13:04:12Z</time>
      </trkpt>
      <trkpt lat="45.16523" lon="3.99607">
        <ele>864.84</ele>
        <time>2024-02-15T13:04:33Z</time>
      </trkpt>
      <trkpt lat="45.16502" lon="3.99612">
        <ele>860.04</ele>
        <time>2024-02-15T13:04:57Z</time>
      </trkpt>
      <trkpt lat="45.16485" lon="3.99612">
        <ele>857.15</ele>
        <time>2024-02-15T13:05:20Z</time>
      </trkpt>
      <trkpt lat="45.16461" lon="3.99603">
        <ele>850.42</ele>
        <time>2024-02-15T13:05:42Z</time>
      </trkpt>
      <trkpt lat="45.16435" lon="3.99616">
        <ele>840.33</ele>
        <time>2024-02-15T13:06:07Z</time>
      </trkpt>
      <trkpt lat="45.16418" lon="3.99632">
        <ele>836.96</ele>
        <time>2024-02-15T13:06:30Z</time>
      </trkpt>
      <trkpt lat="45.16402" lon="3.99676">
        <ele>826.87</ele>
        <time>2024-02-15T13:06:53Z</time>
      </trkpt>
      <trkpt lat="45.16392" lon="3.997">
        <ele>823.99</ele>
        <time>2024-02-15T13:07:10Z</time>
      </trkpt>
      <trkpt lat="45.16389" lon="3.99698">
        <ele>823.51</ele>
        <time>2024-02-15T13:07:18Z</time>
      </trkpt>
      <trkpt lat="45.16383" lon="3.99695">
        <ele>824.95</ele>
        <time>2024-02-15T13:07:24Z</time>
      </trkpt>
      <trkpt lat="45.16378" lon="3.99692">
        <ele>824.47</ele>
        <time>2024-02-15T13:07:28Z</time>
      </trkpt>
      <trkpt lat="45.16368" lon="3.99684">
        <ele>824.95</ele>
        <time>2024-02-15T13:07:37Z</time>
      </trkpt>
      <trkpt lat="45.16349" lon="3.99687">
        <ele>825.43</ele>
        <time>2024-02-15T13:07:52Z</time>
      </trkpt>
      <trkpt lat="45.16339" lon="3.99681">
        <ele>825.91</ele>
        <time>2024-02-15T13:08:04Z</time>
      </trkpt>
      <trkpt lat="45.16335" lon="3.99677">
        <ele>825.91</ele>
        <time>2024-02-15T13:08:09Z</time>
      </trkpt>
      <trkpt lat="45.16327" lon="3.99657">
        <ele>822.55</ele>
        <time>2024-02-15T13:08:23Z</time>
      </trkpt>
      <trkpt lat="45.16325" lon="3.9964">
        <ele>821.1</ele>
        <time>2024-02-15T13:08:36Z</time>
      </trkpt>
      <trkpt lat="45.16323" lon="3.99624">
        <ele>822.06</ele>
        <time>2024-02-15T13:08:49Z</time>
      </trkpt>
      <trkpt lat="45.16309" lon="3.99598">
        <ele>820.14</ele>
        <time>2024-02-15T13:09:04Z</time>
      </trkpt>
      <trkpt lat="45.16308" lon="3.99596">
        <ele>819.66</ele>
        <time>2024-02-15T13:09:06Z</time>
      </trkpt>
      <trkpt lat="45.16302" lon="3.99574">
        <ele>819.18</ele>
        <time>2024-02-15T13:09:20Z</time>
      </trkpt>
      <trkpt lat="45.16293" lon="3.99552">
        <ele>818.22</ele>
        <time>2024-02-15T13:09:32Z</time>
      </trkpt>
      <trkpt lat="45.16285" lon="3.99534">
        <ele>814.85</ele>
        <time>2024-02-15T13:09:48Z</time>
      </trkpt>
      <trkpt lat="45.16284" lon="3.99534">
        <ele>814.37</ele>
        <time>2024-02-15T13:09:49Z</time>
      </trkpt>
      <trkpt lat="45.16281" lon="3.99536">
        <ele>813.41</ele>
        <time>2024-02-15T13:09:54Z</time>
      </trkpt>
      <trkpt lat="45.16273" lon="3.99547">
        <ele>812.45</ele>
        <time>2024-02-15T13:10:05Z</time>
      </trkpt>
      <trkpt lat="45.16271" lon="3.99551">
        <ele>812.45</ele>
        <time>2024-02-15T13:10:09Z</time>
      </trkpt>
      <trkpt lat="45.16263" lon="3.99567">
        <ele>813.89</ele>
        <time>2024-02-15T13:10:20Z</time>
      </trkpt>
      <trkpt lat="45.16261" lon="3.99578">
        <ele>815.34</ele>
        <time>2024-02-15T13:10:28Z</time>
      </trkpt>
      <trkpt lat="45.16259" lon="3.99589">
        <ele>816.3</ele>
        <time>2024-02-15T13:10:37Z</time>
      </trkpt>
      <trkpt lat="45.16255" lon="3.996">
        <ele>818.7</ele>
        <time>2024-02-15T13:10:50Z</time>
      </trkpt>
      <trkpt lat="45.16251" lon="3.99619">
        <ele>821.1</ele>
        <time>2024-02-15T13:11:00Z</time>
      </trkpt>
      <trkpt lat="45.16249" lon="3.9964">
        <ele>823.51</ele>
        <time>2024-02-15T13:11:14Z</time>
      </trkpt>
      <trkpt lat="45.16248" lon="3.99647">
        <ele>823.03</ele>
        <time>2024-02-15T13:11:39Z</time>
      </trkpt>
      <trkpt lat="45.16247" lon="3.99681">
        <ele>817.26</ele>
        <time>2024-02-15T13:11:58Z</time>
      </trkpt>
      <trkpt lat="45.16251" lon="3.99705">
        <ele>814.37</ele>
        <time>2024-02-15T13:12:18Z</time>
      </trkpt>
      <trkpt lat="45.16253" lon="3.99733">
        <ele>815.34</ele>
        <time>2024-02-15T13:12:39Z</time>
      </trkpt>
      <trkpt lat="45.16253" lon="3.99777">
        <ele>812.93</ele>
        <time>2024-02-15T13:13:02Z</time>
      </trkpt>
      <trkpt lat="45.16253" lon="3.99792">
        <ele>813.41</ele>
        <time>2024-02-15T13:13:22Z</time>
      </trkpt>
      <trkpt lat="45.16251" lon="3.99821">
        <ele>811.97</ele>
        <time>2024-02-15T13:13:42Z</time>
      </trkpt>
      <trkpt lat="45.16245" lon="3.99866">
        <ele>815.82</ele>
        <time>2024-02-15T13:14:00Z</time>
      </trkpt>
      <trkpt lat="45.16231" lon="3.99866">
        <ele>816.3</ele>
        <time>2024-02-15T13:14:19Z</time>
      </trkpt>
      <trkpt lat="45.16215" lon="3.99865">
        <ele>815.34</ele>
        <time>2024-02-15T13:14:36Z</time>
      </trkpt>
      <trkpt lat="45.16201" lon="3.99865">
        <ele>818.7</ele>
        <time>2024-02-15T13:14:47Z</time>
      </trkpt>
      <trkpt lat="45.16196" lon="3.99869">
        <ele>819.18</ele>
        <time>2024-02-15T13:14:51Z</time>
      </trkpt>
      <trkpt lat="45.16189" lon="3.99878">
        <ele>819.66</ele>
        <time>2024-02-15T13:14:59Z</time>
      </trkpt>
      <trkpt lat="45.1617" lon="3.99893">
        <ele>824.95</ele>
        <time>2024-02-15T13:15:14Z</time>
      </trkpt>
      <trkpt lat="45.16151" lon="3.99901">
        <ele>827.83</ele>
        <time>2024-02-15T13:15:28Z</time>
      </trkpt>
      <trkpt lat="45.16135" lon="3.99908">
        <ele>828.31</ele>
        <time>2024-02-15T13:15:39Z</time>
      </trkpt>
      <trkpt lat="45.16123" lon="3.99914">
        <ele>827.83</ele>
        <time>2024-02-15T13:15:51Z</time>
      </trkpt>
      <trkpt lat="45.16112" lon="3.99917">
        <ele>829.27</ele>
        <time>2024-02-15T13:16:01Z</time>
      </trkpt>
      <trkpt lat="45.161" lon="3.99925">
        <ele>831.68</ele>
        <time>2024-02-15T13:16:13Z</time>
      </trkpt>
      <trkpt lat="45.16099" lon="3.99923">
        <ele>832.16</ele>
        <time>2024-02-15T13:16:20Z</time>
      </trkpt>
      <trkpt lat="45.16084" lon="3.99932">
        <ele>836</ele>
        <time>2024-02-15T13:16:31Z</time>
      </trkpt>
      <trkpt lat="45.1607" lon="3.99941">
        <ele>837.93</ele>
        <time>2024-02-15T13:16:41Z</time>
      </trkpt>
      <trkpt lat="45.16068" lon="3.99942">
        <ele>837.93</ele>
        <time>2024-02-15T13:16:45Z</time>
      </trkpt>
      <trkpt lat="45.16055" lon="3.99952">
        <ele>838.89</ele>
        <time>2024-02-15T13:16:57Z</time>
      </trkpt>
      <trkpt lat="45.16051" lon="3.99954">
        <ele>839.37</ele>
        <time>2024-02-15T13:17:02Z</time>
      </trkpt>
      <trkpt lat="45.16045" lon="3.99955">
        <ele>840.33</ele>
        <time>2024-02-15T13:17:07Z</time>
      </trkpt>
      <trkpt lat="45.16026" lon="3.99966">
        <ele>842.73</ele>
        <time>2024-02-15T13:17:25Z</time>
      </trkpt>
      <trkpt lat="45.16011" lon="3.99975">
        <ele>844.18</ele>
        <time>2024-02-15T13:17:36Z</time>
      </trkpt>
      <trkpt lat="45.16001" lon="3.9998">
        <ele>844.18</ele>
        <time>2024-02-15T13:17:48Z</time>
      </trkpt>
      <trkpt lat="45.15985" lon="3.99997">
        <ele>845.62</ele>
        <time>2024-02-15T13:18:04Z</time>
      </trkpt>
      <trkpt lat="45.15975" lon="4.00013">
        <ele>847.54</ele>
        <time>2024-02-15T13:18:15Z</time>
      </trkpt>
      <trkpt lat="45.15964" lon="4.00035">
        <ele>847.54</ele>
        <time>2024-02-15T13:18:28Z</time>
      </trkpt>
      <trkpt lat="45.15965" lon="4.00037">
        <ele>848.02</ele>
        <time>2024-02-15T13:18:29Z</time>
      </trkpt>
      <trkpt lat="45.15963" lon="4.00043">
        <ele>848.5</ele>
        <time>2024-02-15T13:18:34Z</time>
      </trkpt>
      <trkpt lat="45.15957" lon="4.00066">
        <ele>851.38</ele>
        <time>2024-02-15T13:18:48Z</time>
      </trkpt>
      <trkpt lat="45.15946" lon="4.0008">
        <ele>851.87</ele>
        <time>2024-02-15T13:18:59Z</time>
      </trkpt>
      <trkpt lat="45.1594" lon="4.00102">
        <ele>853.31</ele>
        <time>2024-02-15T13:19:12Z</time>
      </trkpt>
      <trkpt lat="45.15942" lon="4.00128">
        <ele>857.15</ele>
        <time>2024-02-15T13:19:24Z</time>
      </trkpt>
      <trkpt lat="45.15944" lon="4.00153">
        <ele>861.48</ele>
        <time>2024-02-15T13:19:36Z</time>
      </trkpt>
      <trkpt lat="45.1594" lon="4.00171">
        <ele>861</ele>
        <time>2024-02-15T13:19:45Z</time>
      </trkpt>
      <trkpt lat="45.1594" lon="4.00175">
        <ele>861</ele>
        <time>2024-02-15T13:19:48Z</time>
      </trkpt>
      <trkpt lat="45.1594" lon="4.00193">
        <ele>861.48</ele>
        <time>2024-02-15T13:19:59Z</time>
      </trkpt>
      <trkpt lat="45.15939" lon="4.00197">
        <ele>861.48</ele>
        <time>2024-02-15T13:20:02Z</time>
      </trkpt>
      <trkpt lat="45.15934" lon="4.00201">
        <ele>861.48</ele>
        <time>2024-02-15T13:20:07Z</time>
      </trkpt>
      <trkpt lat="45.15927" lon="4.0022">
        <ele>861</ele>
        <time>2024-02-15T13:20:17Z</time>
      </trkpt>
      <trkpt lat="45.1592" lon="4.00247">
        <ele>861</ele>
        <time>2024-02-15T13:20:31Z</time>
      </trkpt>
      <trkpt lat="45.15914" lon="4.00262">
        <ele>861.48</ele>
        <time>2024-02-15T13:20:41Z</time>
      </trkpt>
      <trkpt lat="45.15912" lon="4.00274">
        <ele>861.48</ele>
        <time>2024-02-15T13:20:48Z</time>
      </trkpt>
      <trkpt lat="45.15911" lon="4.00287">
        <ele>861.48</ele>
        <time>2024-02-15T13:20:55Z</time>
      </trkpt>
      <trkpt lat="45.15911" lon="4.00298">
        <ele>861.48</ele>
        <time>2024-02-15T13:21:01Z</time>
      </trkpt>
      <trkpt lat="45.1591" lon="4.00312">
        <ele>863.4</ele>
        <time>2024-02-15T13:21:09Z</time>
      </trkpt>
      <trkpt lat="45.15907" lon="4.00318">
        <ele>863.4</ele>
        <time>2024-02-15T13:21:14Z</time>
      </trkpt>
      <trkpt lat="45.15904" lon="4.0034">
        <ele>864.36</ele>
        <time>2024-02-15T13:21:26Z</time>
      </trkpt>
      <trkpt lat="45.15904" lon="4.00345">
        <ele>864.36</ele>
        <time>2024-02-15T13:21:29Z</time>
      </trkpt>
      <trkpt lat="45.15901" lon="4.00366">
        <ele>865.32</ele>
        <time>2024-02-15T13:21:41Z</time>
      </trkpt>
      <trkpt lat="45.15894" lon="4.00388">
        <ele>866.77</ele>
        <time>2024-02-15T13:21:52Z</time>
      </trkpt>
      <trkpt lat="45.15889" lon="4.00405">
        <ele>867.25</ele>
        <time>2024-02-15T13:22:01Z</time>
      </trkpt>
      <trkpt lat="45.15883" lon="4.00419">
        <ele>867.25</ele>
        <time>2024-02-15T13:22:09Z</time>
      </trkpt>
      <trkpt lat="45.15882" lon="4.00428">
        <ele>868.21</ele>
        <time>2024-02-15T13:22:16Z</time>
      </trkpt>
      <trkpt lat="45.15878" lon="4.00441">
        <ele>869.17</ele>
        <time>2024-02-15T13:22:24Z</time>
      </trkpt>
      <trkpt lat="45.15874" lon="4.00457">
        <ele>870.61</ele>
        <time>2024-02-15T13:22:32Z</time>
      </trkpt>
      <trkpt lat="45.15872" lon="4.00467">
        <ele>871.09</ele>
        <time>2024-02-15T13:22:36Z</time>
      </trkpt>
      <trkpt lat="45.15867" lon="4.00483">
        <ele>871.09</ele>
        <time>2024-02-15T13:22:48Z</time>
      </trkpt>
      <trkpt lat="45.15865" lon="4.00493">
        <ele>870.61</ele>
        <time>2024-02-15T13:22:52Z</time>
      </trkpt>
      <trkpt lat="45.15863" lon="4.00498">
        <ele>871.09</ele>
        <time>2024-02-15T13:22:56Z</time>
      </trkpt>
      <trkpt lat="45.15862" lon="4.00509">
        <ele>871.57</ele>
        <time>2024-02-15T13:23:02Z</time>
      </trkpt>
      <trkpt lat="45.15859" lon="4.00525">
        <ele>872.05</ele>
        <time>2024-02-15T13:23:11Z</time>
      </trkpt>
      <trkpt lat="45.15855" lon="4.00535">
        <ele>873.01</ele>
        <time>2024-02-15T13:23:17Z</time>
      </trkpt>
      <trkpt lat="45.15851" lon="4.00556">
        <ele>874.94</ele>
        <time>2024-02-15T13:23:28Z</time>
      </trkpt>
      <trkpt lat="45.15847" lon="4.00573">
        <ele>875.9</ele>
        <time>2024-02-15T13:23:38Z</time>
      </trkpt>
      <trkpt lat="45.15844" lon="4.00588">
        <ele>875.9</ele>
        <time>2024-02-15T13:23:48Z</time>
      </trkpt>
      <trkpt lat="45.15838" lon="4.00608">
        <ele>877.34</ele>
        <time>2024-02-15T13:23:58Z</time>
      </trkpt>
      <trkpt lat="45.15832" lon="4.00624">
        <ele>879.74</ele>
        <time>2024-02-15T13:24:08Z</time>
      </trkpt>
      <trkpt lat="45.15824" lon="4.00637">
        <ele>882.15</ele>
        <time>2024-02-15T13:24:19Z</time>
      </trkpt>
      <trkpt lat="45.15811" lon="4.00641">
        <ele>883.59</ele>
        <time>2024-02-15T13:24:30Z</time>
      </trkpt>
      <trkpt lat="45.15798" lon="4.0064">
        <ele>885.99</ele>
        <time>2024-02-15T13:24:39Z</time>
      </trkpt>
      <trkpt lat="45.15787" lon="4.00639">
        <ele>888.4</ele>
        <time>2024-02-15T13:24:49Z</time>
      </trkpt>
      <trkpt lat="45.15772" lon="4.00639">
        <ele>891.28</ele>
        <time>2024-02-15T13:25:00Z</time>
      </trkpt>
      <trkpt lat="45.15756" lon="4.00638">
        <ele>892.24</ele>
        <time>2024-02-15T13:25:11Z</time>
      </trkpt>
      <trkpt lat="45.15745" lon="4.00638">
        <ele>892.72</ele>
        <time>2024-02-15T13:25:19Z</time>
      </trkpt>
      <trkpt lat="45.15736" lon="4.00639">
        <ele>893.2</ele>
        <time>2024-02-15T13:25:29Z</time>
      </trkpt>
      <trkpt lat="45.15729" lon="4.00644">
        <ele>894.16</ele>
        <time>2024-02-15T13:25:36Z</time>
      </trkpt>
      <trkpt lat="45.15718" lon="4.00649">
        <ele>894.16</ele>
        <time>2024-02-15T13:25:46Z</time>
      </trkpt>
      <trkpt lat="45.15716" lon="4.00646">
        <ele>894.16</ele>
        <time>2024-02-15T13:25:50Z</time>
      </trkpt>
      <trkpt lat="45.15713" lon="4.00638">
        <ele>894.16</ele>
        <time>2024-02-15T13:26:05Z</time>
      </trkpt>
      <trkpt lat="45.15706" lon="4.00632">
        <ele>894.64</ele>
        <time>2024-02-15T13:26:20Z</time>
      </trkpt>
      <trkpt lat="45.15705" lon="4.0063">
        <ele>895.12</ele>
        <time>2024-02-15T13:26:40Z</time>
      </trkpt>
      <trkpt lat="45.15704" lon="4.0063">
        <ele>895.61</ele>
        <time>2024-02-15T13:27:04Z</time>
      </trkpt>
      <trkpt lat="45.15704" lon="4.00629">
        <ele>896.09</ele>
        <time>2024-02-15T13:27:23Z</time>
      </trkpt>
      <trkpt lat="45.15703" lon="4.00626">
        <ele>898.49</ele>
        <time>2024-02-15T13:27:44Z</time>
      </trkpt>
      <trkpt lat="45.15703" lon="4.00624">
        <ele>898.49</ele>
        <time>2024-02-15T13:27:47Z</time>
      </trkpt>
      <trkpt lat="45.15701" lon="4.00617">
        <ele>898.97</ele>
        <time>2024-02-15T13:27:52Z</time>
      </trkpt>
      <trkpt lat="45.157" lon="4.00609">
        <ele>898.97</ele>
        <time>2024-02-15T13:27:57Z</time>
      </trkpt>
      <trkpt lat="45.15701" lon="4.00595">
        <ele>899.45</ele>
        <time>2024-02-15T13:28:06Z</time>
      </trkpt>
      <trkpt lat="45.15704" lon="4.0058">
        <ele>900.89</ele>
        <time>2024-02-15T13:28:15Z</time>
      </trkpt>
      <trkpt lat="45.15708" lon="4.00569">
        <ele>900.89</ele>
        <time>2024-02-15T13:28:22Z</time>
      </trkpt>
      <trkpt lat="45.1571" lon="4.00557">
        <ele>900.89</ele>
        <time>2024-02-15T13:28:27Z</time>
      </trkpt>
      <trkpt lat="45.15711" lon="4.00552">
        <ele>901.37</ele>
        <time>2024-02-15T13:28:29Z</time>
      </trkpt>
      <trkpt lat="45.15716" lon="4.00524">
        <ele>902.33</ele>
        <time>2024-02-15T13:28:44Z</time>
      </trkpt>
      <trkpt lat="45.15719" lon="4.00511">
        <ele>902.82</ele>
        <time>2024-02-15T13:28:52Z</time>
      </trkpt>
      <trkpt lat="45.15726" lon="4.0049">
        <ele>903.3</ele>
        <time>2024-02-15T13:29:04Z</time>
      </trkpt>
      <trkpt lat="45.15726" lon="4.00488">
        <ele>903.3</ele>
        <time>2024-02-15T13:29:06Z</time>
      </trkpt>
      <trkpt lat="45.15727" lon="4.00464">
        <ele>903.78</ele>
        <time>2024-02-15T13:29:18Z</time>
      </trkpt>
      <trkpt lat="45.15726" lon="4.00446">
        <ele>903.78</ele>
        <time>2024-02-15T13:29:27Z</time>
      </trkpt>
      <trkpt lat="45.15726" lon="4.00444">
        <ele>903.78</ele>
        <time>2024-02-15T13:29:29Z</time>
      </trkpt>
      <trkpt lat="45.1572" lon="4.00423">
        <ele>903.78</ele>
        <time>2024-02-15T13:29:40Z</time>
      </trkpt>
      <trkpt lat="45.15718" lon="4.00408">
        <ele>904.26</ele>
        <time>2024-02-15T13:29:50Z</time>
      </trkpt>
      <trkpt lat="45.15717" lon="4.00386">
        <ele>904.74</ele>
        <time>2024-02-15T13:30:02Z</time>
      </trkpt>
      <trkpt lat="45.15718" lon="4.00382">
        <ele>904.74</ele>
        <time>2024-02-15T13:30:06Z</time>
      </trkpt>
      <trkpt lat="45.15719" lon="4.00373">
        <ele>904.74</ele>
        <time>2024-02-15T13:30:10Z</time>
      </trkpt>
      <trkpt lat="45.1572" lon="4.00353">
        <ele>905.7</ele>
        <time>2024-02-15T13:30:22Z</time>
      </trkpt>
      <trkpt lat="45.15722" lon="4.00344">
        <ele>905.22</ele>
        <time>2024-02-15T13:30:27Z</time>
      </trkpt>
      <trkpt lat="45.15725" lon="4.00321">
        <ele>905.22</ele>
        <time>2024-02-15T13:30:39Z</time>
      </trkpt>
      <trkpt lat="45.15729" lon="4.00302">
        <ele>906.18</ele>
        <time>2024-02-15T13:30:48Z</time>
      </trkpt>
      <trkpt lat="45.15733" lon="4.00296">
        <ele>906.66</ele>
        <time>2024-02-15T13:30:52Z</time>
      </trkpt>
      <trkpt lat="45.15741" lon="4.0027">
        <ele>907.14</ele>
        <time>2024-02-15T13:31:06Z</time>
      </trkpt>
      <trkpt lat="45.15741" lon="4.00268">
        <ele>907.14</ele>
        <time>2024-02-15T13:31:07Z</time>
      </trkpt>
      <trkpt lat="45.15741" lon="4.00254">
        <ele>906.66</ele>
        <time>2024-02-15T13:31:18Z</time>
      </trkpt>
      <trkpt lat="45.15742" lon="4.0023">
        <ele>906.66</ele>
        <time>2024-02-15T13:31:30Z</time>
      </trkpt>
      <trkpt lat="45.15742" lon="4.00216">
        <ele>906.18</ele>
        <time>2024-02-15T13:31:38Z</time>
      </trkpt>
      <trkpt lat="45.15744" lon="4.0019">
        <ele>906.18</ele>
        <time>2024-02-15T13:31:50Z</time>
      </trkpt>
      <trkpt lat="45.15746" lon="4.00169">
        <ele>906.66</ele>
        <time>2024-02-15T13:32:04Z</time>
      </trkpt>
      <trkpt lat="45.15744" lon="4.0015">
        <ele>906.18</ele>
        <time>2024-02-15T13:32:13Z</time>
      </trkpt>
      <trkpt lat="45.15749" lon="4.00125">
        <ele>905.7</ele>
        <time>2024-02-15T13:32:28Z</time>
      </trkpt>
      <trkpt lat="45.15749" lon="4.00114">
        <ele>904.74</ele>
        <time>2024-02-15T13:32:34Z</time>
      </trkpt>
      <trkpt lat="45.15744" lon="4.00102">
        <ele>903.3</ele>
        <time>2024-02-15T13:32:43Z</time>
      </trkpt>
      <trkpt lat="45.15735" lon="4.00072">
        <ele>901.37</ele>
        <time>2024-02-15T13:33:00Z</time>
      </trkpt>
      <trkpt lat="45.15725" lon="4.00051">
        <ele>901.85</ele>
        <time>2024-02-15T13:33:12Z</time>
      </trkpt>
      <trkpt lat="45.15721" lon="4.00044">
        <ele>901.85</ele>
        <time>2024-02-15T13:33:16Z</time>
      </trkpt>
      <trkpt lat="45.15718" lon="4.00014">
        <ele>902.33</ele>
        <time>2024-02-15T13:33:31Z</time>
      </trkpt>
      <trkpt lat="45.15717" lon="3.99989">
        <ele>903.3</ele>
        <time>2024-02-15T13:33:45Z</time>
      </trkpt>
      <trkpt lat="45.15716" lon="3.99961">
        <ele>904.26</ele>
        <time>2024-02-15T13:34:00Z</time>
      </trkpt>
      <trkpt lat="45.15714" lon="3.99946">
        <ele>904.74</ele>
        <time>2024-02-15T13:34:07Z</time>
      </trkpt>
      <trkpt lat="45.1571" lon="3.99931">
        <ele>904.74</ele>
        <time>2024-02-15T13:34:17Z</time>
      </trkpt>
      <trkpt lat="45.15703" lon="3.99917">
        <ele>905.7</ele>
        <time>2024-02-15T13:34:33Z</time>
      </trkpt>
      <trkpt lat="45.15694" lon="3.99905">
        <ele>909.54</ele>
        <time>2024-02-15T13:34:52Z</time>
      </trkpt>
      <trkpt lat="45.15679" lon="3.99879">
        <ele>913.39</ele>
        <time>2024-02-15T13:35:12Z</time>
      </trkpt>
      <trkpt lat="45.15675" lon="3.99863">
        <ele>913.87</ele>
        <time>2024-02-15T13:35:29Z</time>
      </trkpt>
      <trkpt lat="45.15668" lon="3.99848">
        <ele>913.39</ele>
        <time>2024-02-15T13:35:46Z</time>
      </trkpt>
      <trkpt lat="45.15654" lon="3.99814">
        <ele>910.03</ele>
        <time>2024-02-15T13:36:04Z</time>
      </trkpt>
      <trkpt lat="45.15644" lon="3.99781">
        <ele>910.03</ele>
        <time>2024-02-15T13:36:21Z</time>
      </trkpt>
      <trkpt lat="45.1563" lon="3.99741">
        <ele>910.03</ele>
        <time>2024-02-15T13:36:38Z</time>
      </trkpt>
      <trkpt lat="45.15624" lon="3.99723">
        <ele>911.47</ele>
        <time>2024-02-15T13:36:50Z</time>
      </trkpt>
      <trkpt lat="45.15608" lon="3.99701">
        <ele>915.31</ele>
        <time>2024-02-15T13:37:11Z</time>
      </trkpt>
      <trkpt lat="45.15595" lon="3.99681">
        <ele>920.12</ele>
        <time>2024-02-15T13:37:36Z</time>
      </trkpt>
      <trkpt lat="45.15582" lon="3.99658">
        <ele>922.04</ele>
        <time>2024-02-15T13:37:56Z</time>
      </trkpt>
      <trkpt lat="45.15566" lon="3.99641">
        <ele>922.52</ele>
        <time>2024-02-15T13:38:17Z</time>
      </trkpt>
      <trkpt lat="45.15543" lon="3.99623">
        <ele>924.45</ele>
        <time>2024-02-15T13:38:34Z</time>
      </trkpt>
      <trkpt lat="45.15514" lon="3.99599">
        <ele>923.48</ele>
        <time>2024-02-15T13:38:55Z</time>
      </trkpt>
      <trkpt lat="45.15494" lon="3.99596">
        <ele>922.52</ele>
        <time>2024-02-15T13:39:07Z</time>
      </trkpt>
      <trkpt lat="45.15455" lon="3.99592">
        <ele>918.68</ele>
        <time>2024-02-15T13:39:29Z</time>
      </trkpt>
      <trkpt lat="45.1543" lon="3.99599">
        <ele>912.43</ele>
        <time>2024-02-15T13:39:50Z</time>
      </trkpt>
      <trkpt lat="45.15416" lon="3.99621">
        <ele>904.74</ele>
        <time>2024-02-15T13:40:10Z</time>
      </trkpt>
      <trkpt lat="45.15407" lon="3.99622">
        <ele>902.33</ele>
        <time>2024-02-15T13:40:28Z</time>
      </trkpt>
      <trkpt lat="45.15399" lon="3.99623">
        <ele>899.45</ele>
        <time>2024-02-15T13:40:52Z</time>
      </trkpt>
      <trkpt lat="45.15389" lon="3.99624">
        <ele>898.97</ele>
        <time>2024-02-15T13:41:13Z</time>
      </trkpt>
      <trkpt lat="45.15373" lon="3.99623">
        <ele>896.09</ele>
        <time>2024-02-15T13:41:33Z</time>
      </trkpt>
      <trkpt lat="45.15369" lon="3.99621">
        <ele>896.09</ele>
        <time>2024-02-15T13:41:41Z</time>
      </trkpt>
      <trkpt lat="45.15362" lon="3.99618">
        <ele>894.16</ele>
        <time>2024-02-15T13:42:00Z</time>
      </trkpt>
      <trkpt lat="45.1536" lon="3.99618">
        <ele>894.16</ele>
        <time>2024-02-15T13:42:05Z</time>
      </trkpt>
      <trkpt lat="45.15345" lon="3.99617">
        <ele>893.2</ele>
        <time>2024-02-15T13:42:25Z</time>
      </trkpt>
      <trkpt lat="45.1534" lon="3.99616">
        <ele>892.72</ele>
        <time>2024-02-15T13:42:50Z</time>
      </trkpt>
      <trkpt lat="45.1534" lon="3.99617">
        <ele>892.24</ele>
        <time>2024-02-15T13:43:18Z</time>
      </trkpt>
      <trkpt lat="45.15332" lon="3.99623">
        <ele>892.24</ele>
        <time>2024-02-15T13:43:38Z</time>
      </trkpt>
      <trkpt lat="45.15314" lon="3.99621">
        <ele>892.72</ele>
        <time>2024-02-15T13:43:55Z</time>
      </trkpt>
      <trkpt lat="45.15298" lon="3.99622">
        <ele>893.2</ele>
        <time>2024-02-15T13:44:11Z</time>
      </trkpt>
      <trkpt lat="45.15292" lon="3.99622">
        <ele>892.24</ele>
        <time>2024-02-15T13:44:30Z</time>
      </trkpt>
      <trkpt lat="45.15289" lon="3.99624">
        <ele>892.24</ele>
        <time>2024-02-15T13:44:54Z</time>
      </trkpt>
      <trkpt lat="45.1528" lon="3.99637">
        <ele>892.24</ele>
        <time>2024-02-15T13:45:09Z</time>
      </trkpt>
      <trkpt lat="45.15277" lon="3.99641">
        <ele>891.76</ele>
        <time>2024-02-15T13:45:28Z</time>
      </trkpt>
      <trkpt lat="45.15264" lon="3.99653">
        <ele>890.8</ele>
        <time>2024-02-15T13:45:46Z</time>
      </trkpt>
      <trkpt lat="45.15253" lon="3.9967">
        <ele>887.91</ele>
        <time>2024-02-15T13:46:01Z</time>
      </trkpt>
      <trkpt lat="45.15231" lon="3.99683">
        <ele>887.43</ele>
        <time>2024-02-15T13:46:20Z</time>
      </trkpt>
      <trkpt lat="45.15207" lon="3.99692">
        <ele>886.47</ele>
        <time>2024-02-15T13:46:38Z</time>
      </trkpt>
      <trkpt lat="45.15192" lon="3.99705">
        <ele>886.95</ele>
        <time>2024-02-15T13:46:56Z</time>
      </trkpt>
      <trkpt lat="45.15175" lon="3.99732">
        <ele>888.4</ele>
        <time>2024-02-15T13:47:16Z</time>
      </trkpt>
      <trkpt lat="45.15173" lon="3.99738">
        <ele>888.4</ele>
        <time>2024-02-15T13:47:19Z</time>
      </trkpt>
      <trkpt lat="45.1517" lon="3.99764">
        <ele>886.47</ele>
        <time>2024-02-15T13:47:36Z</time>
      </trkpt>
      <trkpt lat="45.15158" lon="3.99789">
        <ele>887.91</ele>
        <time>2024-02-15T13:47:52Z</time>
      </trkpt>
      <trkpt lat="45.15142" lon="3.9981">
        <ele>888.88</ele>
        <time>2024-02-15T13:48:10Z</time>
      </trkpt>
      <trkpt lat="45.15128" lon="3.99825">
        <ele>890.32</ele>
        <time>2024-02-15T13:48:26Z</time>
      </trkpt>
      <trkpt lat="45.15127" lon="3.99825">
        <ele>890.8</ele>
        <time>2024-02-15T13:48:27Z</time>
      </trkpt>
      <trkpt lat="45.15115" lon="3.99826">
        <ele>892.72</ele>
        <time>2024-02-15T13:48:36Z</time>
      </trkpt>
      <trkpt lat="45.15093" lon="3.99825">
        <ele>894.64</ele>
        <time>2024-02-15T13:48:53Z</time>
      </trkpt>
      <trkpt lat="45.15073" lon="3.99819">
        <ele>898.01</ele>
        <time>2024-02-15T13:49:08Z</time>
      </trkpt>
      <trkpt lat="45.15058" lon="3.99822">
        <ele>899.45</ele>
        <time>2024-02-15T13:49:21Z</time>
      </trkpt>
      <trkpt lat="45.15051" lon="3.99823">
        <ele>899.93</ele>
        <time>2024-02-15T13:49:36Z</time>
      </trkpt>
      <trkpt lat="45.15048" lon="3.99823">
        <ele>900.89</ele>
        <time>2024-02-15T13:49:50Z</time>
      </trkpt>
      <trkpt lat="45.15046" lon="3.99827">
        <ele>901.85</ele>
        <time>2024-02-15T13:50:07Z</time>
      </trkpt>
      <trkpt lat="45.15036" lon="3.99851">
        <ele>904.74</ele>
        <time>2024-02-15T13:50:24Z</time>
      </trkpt>
      <trkpt lat="45.15023" lon="3.99872">
        <ele>908.1</ele>
        <time>2024-02-15T13:50:41Z</time>
      </trkpt>
      <trkpt lat="45.15023" lon="3.99873">
        <ele>908.1</ele>
        <time>2024-02-15T13:50:42Z</time>
      </trkpt>
      <trkpt lat="45.15016" lon="3.99904">
        <ele>911.47</ele>
        <time>2024-02-15T13:51:02Z</time>
      </trkpt>
      <trkpt lat="45.1501" lon="3.99931">
        <ele>912.91</ele>
        <time>2024-02-15T13:51:18Z</time>
      </trkpt>
      <trkpt lat="45.15001" lon="3.99955">
        <ele>911.47</ele>
        <time>2024-02-15T13:51:34Z</time>
      </trkpt>
      <trkpt lat="45.14992" lon="3.99982">
        <ele>910.51</ele>
        <time>2024-02-15T13:51:50Z</time>
      </trkpt>
      <trkpt lat="45.14983" lon="4.00006">
        <ele>910.51</ele>
        <time>2024-02-15T13:52:06Z</time>
      </trkpt>
      <trkpt lat="45.14978" lon="4.00033">
        <ele>910.51</ele>
        <time>2024-02-15T13:52:22Z</time>
      </trkpt>
      <trkpt lat="45.14977" lon="4.00034">
        <ele>910.51</ele>
        <time>2024-02-15T13:52:23Z</time>
      </trkpt>
      <trkpt lat="45.14975" lon="4.00051">
        <ele>909.06</ele>
        <time>2024-02-15T13:52:33Z</time>
      </trkpt>
      <trkpt lat="45.14974" lon="4.00061">
        <ele>908.58</ele>
        <time>2024-02-15T13:52:39Z</time>
      </trkpt>
      <trkpt lat="45.14974" lon="4.00065">
        <ele>908.58</ele>
        <time>2024-02-15T13:52:41Z</time>
      </trkpt>
      <trkpt lat="45.14972" lon="4.00092">
        <ele>908.1</ele>
        <time>2024-02-15T13:52:57Z</time>
      </trkpt>
      <trkpt lat="45.14973" lon="4.00119">
        <ele>908.58</ele>
        <time>2024-02-15T13:53:12Z</time>
      </trkpt>
      <trkpt lat="45.14975" lon="4.00137">
        <ele>909.06</ele>
        <time>2024-02-15T13:53:26Z</time>
      </trkpt>
      <trkpt lat="45.14977" lon="4.00172">
        <ele>910.03</ele>
        <time>2024-02-15T13:53:46Z</time>
      </trkpt>
      <trkpt lat="45.14986" lon="4.00199">
        <ele>911.47</ele>
        <time>2024-02-15T13:54:06Z</time>
      </trkpt>
      <trkpt lat="45.14993" lon="4.00222">
        <ele>913.87</ele>
        <time>2024-02-15T13:54:23Z</time>
      </trkpt>
      <trkpt lat="45.14993" lon="4.00246">
        <ele>916.27</ele>
        <time>2024-02-15T13:54:41Z</time>
      </trkpt>
      <trkpt lat="45.1499" lon="4.00259">
        <ele>917.24</ele>
        <time>2024-02-15T13:54:48Z</time>
      </trkpt>
      <trkpt lat="45.14975" lon="4.00287">
        <ele>918.68</ele>
        <time>2024-02-15T13:55:05Z</time>
      </trkpt>
      <trkpt lat="45.14966" lon="4.00296">
        <ele>919.64</ele>
        <time>2024-02-15T13:55:20Z</time>
      </trkpt>
      <trkpt lat="45.14962" lon="4.003">
        <ele>920.12</ele>
        <time>2024-02-15T13:55:38Z</time>
      </trkpt>
      <trkpt lat="45.14958" lon="4.00302">
        <ele>920.6</ele>
        <time>2024-02-15T13:55:59Z</time>
      </trkpt>
      <trkpt lat="45.14953" lon="4.00304">
        <ele>921.56</ele>
        <time>2024-02-15T13:56:25Z</time>
      </trkpt>
      <trkpt lat="45.14951" lon="4.00306">
        <ele>922.04</ele>
        <time>2024-02-15T13:56:52Z</time>
      </trkpt>
      <trkpt lat="45.1495" lon="4.00309">
        <ele>923</ele>
        <time>2024-02-15T13:57:20Z</time>
      </trkpt>
      <trkpt lat="45.14952" lon="4.00303">
        <ele>923.48</ele>
        <time>2024-02-15T13:57:50Z</time>
      </trkpt>
      <trkpt lat="45.14953" lon="4.00303">
        <ele>922.52</ele>
        <time>2024-02-15T13:58:15Z</time>
      </trkpt>
      <trkpt lat="45.14954" lon="4.00304">
        <ele>923.48</ele>
        <time>2024-02-15T13:58:39Z</time>
      </trkpt>
      <trkpt lat="45.14952" lon="4.00301">
        <ele>923.48</ele>
        <time>2024-02-15T13:58:57Z</time>
      </trkpt>
      <trkpt lat="45.14943" lon="4.00304">
        <ele>921.56</ele>
        <time>2024-02-15T13:59:13Z</time>
      </trkpt>
      <trkpt lat="45.14931" lon="4.00316">
        <ele>921.08</ele>
        <time>2024-02-15T13:59:28Z</time>
      </trkpt>
      <trkpt lat="45.1492" lon="4.00331">
        <ele>919.64</ele>
        <time>2024-02-15T13:59:42Z</time>
      </trkpt>
      <trkpt lat="45.14904" lon="4.00338">
        <ele>920.12</ele>
        <time>2024-02-15T13:59:58Z</time>
      </trkpt>
      <trkpt lat="45.14887" lon="4.00346">
        <ele>918.2</ele>
        <time>2024-02-15T14:00:14Z</time>
      </trkpt>
      <trkpt lat="45.14871" lon="4.00365">
        <ele>915.79</ele>
        <time>2024-02-15T14:00:31Z</time>
      </trkpt>
      <trkpt lat="45.14858" lon="4.00378">
        <ele>911.95</ele>
        <time>2024-02-15T14:00:46Z</time>
      </trkpt>
      <trkpt lat="45.1484" lon="4.00382">
        <ele>907.14</ele>
        <time>2024-02-15T14:00:59Z</time>
      </trkpt>
      <trkpt lat="45.14821" lon="4.00354">
        <ele>903.3</ele>
        <time>2024-02-15T14:01:18Z</time>
      </trkpt>
      <trkpt lat="45.1482" lon="4.00351">
        <ele>902.82</ele>
        <time>2024-02-15T14:01:20Z</time>
      </trkpt>
      <trkpt lat="45.148" lon="4.00327">
        <ele>899.93</ele>
        <time>2024-02-15T14:01:37Z</time>
      </trkpt>
      <trkpt lat="45.1478" lon="4.00309">
        <ele>897.05</ele>
        <time>2024-02-15T14:01:56Z</time>
      </trkpt>
      <trkpt lat="45.14777" lon="4.00308">
        <ele>896.57</ele>
        <time>2024-02-15T14:02:15Z</time>
      </trkpt>
      <trkpt lat="45.14764" lon="4.00303">
        <ele>896.09</ele>
        <time>2024-02-15T14:02:33Z</time>
      </trkpt>
      <trkpt lat="45.14751" lon="4.00301">
        <ele>895.12</ele>
        <time>2024-02-15T14:02:43Z</time>
      </trkpt>
      <trkpt lat="45.14746" lon="4.00308">
        <ele>894.64</ele>
        <time>2024-02-15T14:02:49Z</time>
      </trkpt>
      <trkpt lat="45.14746" lon="4.00316">
        <ele>894.64</ele>
        <time>2024-02-15T14:02:53Z</time>
      </trkpt>
      <trkpt lat="45.14751" lon="4.00343">
        <ele>895.12</ele>
        <time>2024-02-15T14:03:09Z</time>
      </trkpt>
      <trkpt lat="45.14754" lon="4.00357">
        <ele>894.64</ele>
        <time>2024-02-15T14:03:19Z</time>
      </trkpt>
      <trkpt lat="45.14744" lon="4.00393">
        <ele>892.72</ele>
        <time>2024-02-15T14:03:38Z</time>
      </trkpt>
      <trkpt lat="45.14731" lon="4.00421">
        <ele>892.24</ele>
        <time>2024-02-15T14:03:54Z</time>
      </trkpt>
      <trkpt lat="45.14721" lon="4.00443">
        <ele>892.72</ele>
        <time>2024-02-15T14:04:09Z</time>
      </trkpt>
      <trkpt lat="45.14721" lon="4.00447">
        <ele>892.24</ele>
        <time>2024-02-15T14:04:11Z</time>
      </trkpt>
      <trkpt lat="45.14721" lon="4.0047">
        <ele>890.8</ele>
        <time>2024-02-15T14:04:24Z</time>
      </trkpt>
      <trkpt lat="45.14723" lon="4.00497">
        <ele>889.36</ele>
        <time>2024-02-15T14:04:41Z</time>
      </trkpt>
      <trkpt lat="45.1472" lon="4.00521">
        <ele>890.32</ele>
        <time>2024-02-15T14:04:59Z</time>
      </trkpt>
      <trkpt lat="45.14711" lon="4.00541">
        <ele>889.36</ele>
        <time>2024-02-15T14:05:17Z</time>
      </trkpt>
      <trkpt lat="45.14699" lon="4.00539">
        <ele>886.95</ele>
        <time>2024-02-15T14:05:29Z</time>
      </trkpt>
      <trkpt lat="45.14675" lon="4.00539">
        <ele>882.63</ele>
        <time>2024-02-15T14:05:46Z</time>
      </trkpt>
      <trkpt lat="45.14653" lon="4.00547">
        <ele>878.78</ele>
        <time>2024-02-15T14:06:01Z</time>
      </trkpt>
      <trkpt lat="45.14635" lon="4.00555">
        <ele>876.86</ele>
        <time>2024-02-15T14:06:19Z</time>
      </trkpt>
      <trkpt lat="45.14615" lon="4.00579">
        <ele>872.53</ele>
        <time>2024-02-15T14:06:35Z</time>
      </trkpt>
      <trkpt lat="45.1461" lon="4.00609">
        <ele>871.09</ele>
        <time>2024-02-15T14:06:51Z</time>
      </trkpt>
      <trkpt lat="45.14614" lon="4.00623">
        <ele>871.09</ele>
        <time>2024-02-15T14:07:00Z</time>
      </trkpt>
      <trkpt lat="45.14619" lon="4.00641">
        <ele>871.57</ele>
        <time>2024-02-15T14:07:18Z</time>
      </trkpt>
      <trkpt lat="45.14618" lon="4.00643">
        <ele>871.57</ele>
        <time>2024-02-15T14:07:22Z</time>
      </trkpt>
      <trkpt lat="45.14615" lon="4.00653">
        <ele>871.57</ele>
        <time>2024-02-15T14:07:29Z</time>
      </trkpt>
      <trkpt lat="45.14601" lon="4.00677">
        <ele>870.13</ele>
        <time>2024-02-15T14:07:47Z</time>
      </trkpt>
      <trkpt lat="45.14587" lon="4.00701">
        <ele>868.21</ele>
        <time>2024-02-15T14:08:04Z</time>
      </trkpt>
      <trkpt lat="45.14581" lon="4.0071">
        <ele>868.21</ele>
        <time>2024-02-15T14:08:11Z</time>
      </trkpt>
      <trkpt lat="45.14573" lon="4.00717">
        <ele>866.77</ele>
        <time>2024-02-15T14:08:18Z</time>
      </trkpt>
      <trkpt lat="45.14567" lon="4.00745">
        <ele>863.88</ele>
        <time>2024-02-15T14:08:33Z</time>
      </trkpt>
      <trkpt lat="45.14563" lon="4.00764">
        <ele>862.92</ele>
        <time>2024-02-15T14:08:45Z</time>
      </trkpt>
      <trkpt lat="45.14559" lon="4.00793">
        <ele>861.48</ele>
        <time>2024-02-15T14:09:02Z</time>
      </trkpt>
      <trkpt lat="45.14551" lon="4.00812">
        <ele>861.96</ele>
        <time>2024-02-15T14:09:16Z</time>
      </trkpt>
      <trkpt lat="45.14539" lon="4.00835">
        <ele>861.96</ele>
        <time>2024-02-15T14:09:31Z</time>
      </trkpt>
      <trkpt lat="45.14528" lon="4.00862">
        <ele>861.48</ele>
        <time>2024-02-15T14:09:47Z</time>
      </trkpt>
      <trkpt lat="45.14517" lon="4.00888">
        <ele>861</ele>
        <time>2024-02-15T14:10:03Z</time>
      </trkpt>
      <trkpt lat="45.14506" lon="4.00905">
        <ele>861</ele>
        <time>2024-02-15T14:10:16Z</time>
      </trkpt>
      <trkpt lat="45.14495" lon="4.00929">
        <ele>861</ele>
        <time>2024-02-15T14:10:32Z</time>
      </trkpt>
      <trkpt lat="45.14501" lon="4.00943">
        <ele>861.48</ele>
        <time>2024-02-15T14:10:40Z</time>
      </trkpt>
      <trkpt lat="45.14516" lon="4.00976">
        <ele>865.8</ele>
        <time>2024-02-15T14:10:59Z</time>
      </trkpt>
      <trkpt lat="45.14532" lon="4.01">
        <ele>866.77</ele>
        <time>2024-02-15T14:11:17Z</time>
      </trkpt>
      <trkpt lat="45.14547" lon="4.0103">
        <ele>869.17</ele>
        <time>2024-02-15T14:11:36Z</time>
      </trkpt>
      <trkpt lat="45.14561" lon="4.01059">
        <ele>871.57</ele>
        <time>2024-02-15T14:11:54Z</time>
      </trkpt>
      <trkpt lat="45.14571" lon="4.01078">
        <ele>872.05</ele>
        <time>2024-02-15T14:12:07Z</time>
      </trkpt>
      <trkpt lat="45.14582" lon="4.01099">
        <ele>873.01</ele>
        <time>2024-02-15T14:12:21Z</time>
      </trkpt>
      <trkpt lat="45.14594" lon="4.01124">
        <ele>873.5</ele>
        <time>2024-02-15T14:12:35Z</time>
      </trkpt>
      <trkpt lat="45.14609" lon="4.01151">
        <ele>873.5</ele>
        <time>2024-02-15T14:12:53Z</time>
      </trkpt>
      <trkpt lat="45.14625" lon="4.01176">
        <ele>872.05</ele>
        <time>2024-02-15T14:13:09Z</time>
      </trkpt>
      <trkpt lat="45.14642" lon="4.01195">
        <ele>871.57</ele>
        <time>2024-02-15T14:13:25Z</time>
      </trkpt>
      <trkpt lat="45.14661" lon="4.01217">
        <ele>869.65</ele>
        <time>2024-02-15T14:13:42Z</time>
      </trkpt>
      <trkpt lat="45.14677" lon="4.01234">
        <ele>873.98</ele>
        <time>2024-02-15T14:13:55Z</time>
      </trkpt>
      <trkpt lat="45.14691" lon="4.01247">
        <ele>877.34</ele>
        <time>2024-02-15T14:14:07Z</time>
      </trkpt>
      <trkpt lat="45.14708" lon="4.01256">
        <ele>879.74</ele>
        <time>2024-02-15T14:14:21Z</time>
      </trkpt>
      <trkpt lat="45.14728" lon="4.01269">
        <ele>881.19</ele>
        <time>2024-02-15T14:14:35Z</time>
      </trkpt>
      <trkpt lat="45.14737" lon="4.01275">
        <ele>882.63</ele>
        <time>2024-02-15T14:14:43Z</time>
      </trkpt>
      <trkpt lat="45.14756" lon="4.01286">
        <ele>884.07</ele>
        <time>2024-02-15T14:14:58Z</time>
      </trkpt>
      <trkpt lat="45.1476" lon="4.01288">
        <ele>884.07</ele>
        <time>2024-02-15T14:15:09Z</time>
      </trkpt>
      <trkpt lat="45.14771" lon="4.01299">
        <ele>885.51</ele>
        <time>2024-02-15T14:15:19Z</time>
      </trkpt>
      <trkpt lat="45.14783" lon="4.01309">
        <ele>885.51</ele>
        <time>2024-02-15T14:15:31Z</time>
      </trkpt>
      <trkpt lat="45.14797" lon="4.01322">
        <ele>886.47</ele>
        <time>2024-02-15T14:15:45Z</time>
      </trkpt>
      <trkpt lat="45.14818" lon="4.01331">
        <ele>885.03</ele>
        <time>2024-02-15T14:16:02Z</time>
      </trkpt>
      <trkpt lat="45.14823" lon="4.01332">
        <ele>883.59</ele>
        <time>2024-02-15T14:16:07Z</time>
      </trkpt>
      <trkpt lat="45.14844" lon="4.01341">
        <ele>882.63</ele>
        <time>2024-02-15T14:16:23Z</time>
      </trkpt>
      <trkpt lat="45.14868" lon="4.01348">
        <ele>881.67</ele>
        <time>2024-02-15T14:16:42Z</time>
      </trkpt>
      <trkpt lat="45.14892" lon="4.01359">
        <ele>881.19</ele>
        <time>2024-02-15T14:16:59Z</time>
      </trkpt>
      <trkpt lat="45.14914" lon="4.01367">
        <ele>881.19</ele>
        <time>2024-02-15T14:17:16Z</time>
      </trkpt>
      <trkpt lat="45.14936" lon="4.01374">
        <ele>882.15</ele>
        <time>2024-02-15T14:17:34Z</time>
      </trkpt>
      <trkpt lat="45.14951" lon="4.01379">
        <ele>883.11</ele>
        <time>2024-02-15T14:17:45Z</time>
      </trkpt>
      <trkpt lat="45.14974" lon="4.01393">
        <ele>884.55</ele>
        <time>2024-02-15T14:18:02Z</time>
      </trkpt>
      <trkpt lat="45.14995" lon="4.01406">
        <ele>885.99</ele>
        <time>2024-02-15T14:18:18Z</time>
      </trkpt>
      <trkpt lat="45.15013" lon="4.01422">
        <ele>885.99</ele>
        <time>2024-02-15T14:18:33Z</time>
      </trkpt>
      <trkpt lat="45.15032" lon="4.01443">
        <ele>886.47</ele>
        <time>2024-02-15T14:18:51Z</time>
      </trkpt>
      <trkpt lat="45.15055" lon="4.01463">
        <ele>886.95</ele>
        <time>2024-02-15T14:19:11Z</time>
      </trkpt>
      <trkpt lat="45.15082" lon="4.01476">
        <ele>887.43</ele>
        <time>2024-02-15T14:19:30Z</time>
      </trkpt>
      <trkpt lat="45.15103" lon="4.01482">
        <ele>887.91</ele>
        <time>2024-02-15T14:19:46Z</time>
      </trkpt>
      <trkpt lat="45.15127" lon="4.01491">
        <ele>887.91</ele>
        <time>2024-02-15T14:20:04Z</time>
      </trkpt>
      <trkpt lat="45.15148" lon="4.01506">
        <ele>887.91</ele>
        <time>2024-02-15T14:20:22Z</time>
      </trkpt>
      <trkpt lat="45.15166" lon="4.01521">
        <ele>889.36</ele>
        <time>2024-02-15T14:20:41Z</time>
      </trkpt>
      <trkpt lat="45.15183" lon="4.0153">
        <ele>890.32</ele>
        <time>2024-02-15T14:20:58Z</time>
      </trkpt>
      <trkpt lat="45.15204" lon="4.01526">
        <ele>891.76</ele>
        <time>2024-02-15T14:21:15Z</time>
      </trkpt>
      <trkpt lat="45.15226" lon="4.01522">
        <ele>892.24</ele>
        <time>2024-02-15T14:21:32Z</time>
      </trkpt>
      <trkpt lat="45.15246" lon="4.0151">
        <ele>893.2</ele>
        <time>2024-02-15T14:21:50Z</time>
      </trkpt>
      <trkpt lat="45.15262" lon="4.01496">
        <ele>892.72</ele>
        <time>2024-02-15T14:22:06Z</time>
      </trkpt>
      <trkpt lat="45.15281" lon="4.01481">
        <ele>892.24</ele>
        <time>2024-02-15T14:22:22Z</time>
      </trkpt>
      <trkpt lat="45.15299" lon="4.01469">
        <ele>894.64</ele>
        <time>2024-02-15T14:22:38Z</time>
      </trkpt>
      <trkpt lat="45.15317" lon="4.01458">
        <ele>896.09</ele>
        <time>2024-02-15T14:22:54Z</time>
      </trkpt>
      <trkpt lat="45.15327" lon="4.01445">
        <ele>896.09</ele>
        <time>2024-02-15T14:23:12Z</time>
      </trkpt>
      <trkpt lat="45.15326" lon="4.01445">
        <ele>895.12</ele>
        <time>2024-02-15T14:23:30Z</time>
      </trkpt>
      <trkpt lat="45.15331" lon="4.01449">
        <ele>896.57</ele>
        <time>2024-02-15T14:23:37Z</time>
      </trkpt>
      <trkpt lat="45.15353" lon="4.01436">
        <ele>898.49</ele>
        <time>2024-02-15T14:23:55Z</time>
      </trkpt>
      <trkpt lat="45.15355" lon="4.01435">
        <ele>899.93</ele>
        <time>2024-02-15T14:23:57Z</time>
      </trkpt>
      <trkpt lat="45.15365" lon="4.01434">
        <ele>901.37</ele>
        <time>2024-02-15T14:24:06Z</time>
      </trkpt>
      <trkpt lat="45.15377" lon="4.01437">
        <ele>903.78</ele>
        <time>2024-02-15T14:24:16Z</time>
      </trkpt>
      <trkpt lat="45.15377" lon="4.01438">
        <ele>904.26</ele>
        <time>2024-02-15T14:24:18Z</time>
      </trkpt>
      <trkpt lat="45.15381" lon="4.01444">
        <ele>905.7</ele>
        <time>2024-02-15T14:24:24Z</time>
      </trkpt>
      <trkpt lat="45.15396" lon="4.01456">
        <ele>907.14</ele>
        <time>2024-02-15T14:24:36Z</time>
      </trkpt>
      <trkpt lat="45.15399" lon="4.01463">
        <ele>905.7</ele>
        <time>2024-02-15T14:24:42Z</time>
      </trkpt>
      <trkpt lat="45.15412" lon="4.01482">
        <ele>905.7</ele>
        <time>2024-02-15T14:24:55Z</time>
      </trkpt>
      <trkpt lat="45.15416" lon="4.01487">
        <ele>906.18</ele>
        <time>2024-02-15T14:24:59Z</time>
      </trkpt>
      <trkpt lat="45.15427" lon="4.01504">
        <ele>907.14</ele>
        <time>2024-02-15T14:25:12Z</time>
      </trkpt>
      <trkpt lat="45.15439" lon="4.01522">
        <ele>907.62</ele>
        <time>2024-02-15T14:25:24Z</time>
      </trkpt>
      <trkpt lat="45.15448" lon="4.01536">
        <ele>908.58</ele>
        <time>2024-02-15T14:25:36Z</time>
      </trkpt>
      <trkpt lat="45.15458" lon="4.01552">
        <ele>909.54</ele>
        <time>2024-02-15T14:25:47Z</time>
      </trkpt>
      <trkpt lat="45.15469" lon="4.01568">
        <ele>910.51</ele>
        <time>2024-02-15T14:25:58Z</time>
      </trkpt>
      <trkpt lat="45.15478" lon="4.01581">
        <ele>909.54</ele>
        <time>2024-02-15T14:26:11Z</time>
      </trkpt>
      <trkpt lat="45.1549" lon="4.016">
        <ele>906.18</ele>
        <time>2024-02-15T14:26:23Z</time>
      </trkpt>
      <trkpt lat="45.15502" lon="4.01616">
        <ele>907.14</ele>
        <time>2024-02-15T14:26:34Z</time>
      </trkpt>
      <trkpt lat="45.15512" lon="4.01632">
        <ele>906.66</ele>
        <time>2024-02-15T14:26:45Z</time>
      </trkpt>
      <trkpt lat="45.15521" lon="4.01646">
        <ele>908.58</ele>
        <time>2024-02-15T14:26:56Z</time>
      </trkpt>
      <trkpt lat="45.15532" lon="4.01662">
        <ele>909.06</ele>
        <time>2024-02-15T14:27:07Z</time>
      </trkpt>
      <trkpt lat="45.15543" lon="4.0168">
        <ele>909.54</ele>
        <time>2024-02-15T14:27:18Z</time>
      </trkpt>
      <trkpt lat="45.15551" lon="4.01695">
        <ele>910.03</ele>
        <time>2024-02-15T14:27:29Z</time>
      </trkpt>
      <trkpt lat="45.1556" lon="4.01712">
        <ele>910.51</ele>
        <time>2024-02-15T14:27:40Z</time>
      </trkpt>
      <trkpt lat="45.1557" lon="4.01732">
        <ele>909.54</ele>
        <time>2024-02-15T14:27:52Z</time>
      </trkpt>
      <trkpt lat="45.15579" lon="4.01749">
        <ele>910.99</ele>
        <time>2024-02-15T14:28:07Z</time>
      </trkpt>
      <trkpt lat="45.15588" lon="4.01767">
        <ele>911.47</ele>
        <time>2024-02-15T14:28:17Z</time>
      </trkpt>
      <trkpt lat="45.15598" lon="4.01786">
        <ele>911.95</ele>
        <time>2024-02-15T14:28:27Z</time>
      </trkpt>
      <trkpt lat="45.15609" lon="4.01807">
        <ele>911.95</ele>
        <time>2024-02-15T14:28:39Z</time>
      </trkpt>
      <trkpt lat="45.15622" lon="4.01831">
        <ele>909.54</ele>
        <time>2024-02-15T14:28:56Z</time>
      </trkpt>
      <trkpt lat="45.15638" lon="4.01863">
        <ele>910.51</ele>
        <time>2024-02-15T14:29:15Z</time>
      </trkpt>
      <trkpt lat="45.15651" lon="4.01892">
        <ele>910.99</ele>
        <time>2024-02-15T14:29:33Z</time>
      </trkpt>
      <trkpt lat="45.15661" lon="4.01919">
        <ele>910.03</ele>
        <time>2024-02-15T14:29:50Z</time>
      </trkpt>
      <trkpt lat="45.15671" lon="4.01938">
        <ele>908.1</ele>
        <time>2024-02-15T14:30:05Z</time>
      </trkpt>
      <trkpt lat="45.15682" lon="4.01954">
        <ele>905.7</ele>
        <time>2024-02-15T14:30:19Z</time>
      </trkpt>
      <trkpt lat="45.15707" lon="4.01941">
        <ele>903.78</ele>
        <time>2024-02-15T14:30:38Z</time>
      </trkpt>
      <trkpt lat="45.15727" lon="4.01921">
        <ele>903.3</ele>
        <time>2024-02-15T14:30:57Z</time>
      </trkpt>
      <trkpt lat="45.15731" lon="4.01921">
        <ele>903.3</ele>
        <time>2024-02-15T14:31:12Z</time>
      </trkpt>
      <trkpt lat="45.15734" lon="4.01915">
        <ele>903.3</ele>
        <time>2024-02-15T14:31:16Z</time>
      </trkpt>
      <trkpt lat="45.15738" lon="4.01898">
        <ele>903.3</ele>
        <time>2024-02-15T14:31:26Z</time>
      </trkpt>
      <trkpt lat="45.15754" lon="4.0187">
        <ele>901.85</ele>
        <time>2024-02-15T14:31:47Z</time>
      </trkpt>
      <trkpt lat="45.1576" lon="4.01859">
        <ele>900.89</ele>
        <time>2024-02-15T14:31:55Z</time>
      </trkpt>
      <trkpt lat="45.15765" lon="4.01826">
        <ele>898.49</ele>
        <time>2024-02-15T14:32:12Z</time>
      </trkpt>
      <trkpt lat="45.15767" lon="4.01809">
        <ele>898.01</ele>
        <time>2024-02-15T14:32:21Z</time>
      </trkpt>
      <trkpt lat="45.15769" lon="4.01794">
        <ele>897.05</ele>
        <time>2024-02-15T14:32:30Z</time>
      </trkpt>
      <trkpt lat="45.15769" lon="4.01779">
        <ele>897.53</ele>
        <time>2024-02-15T14:32:39Z</time>
      </trkpt>
      <trkpt lat="45.15773" lon="4.01763">
        <ele>896.57</ele>
        <time>2024-02-15T14:32:50Z</time>
      </trkpt>
      <trkpt lat="45.15775" lon="4.01764">
        <ele>896.09</ele>
        <time>2024-02-15T14:32:54Z</time>
      </trkpt>
      <trkpt lat="45.15789" lon="4.01771">
        <ele>897.05</ele>
        <time>2024-02-15T14:33:06Z</time>
      </trkpt>
      <trkpt lat="45.15799" lon="4.01777">
        <ele>898.49</ele>
        <time>2024-02-15T14:33:17Z</time>
      </trkpt>
      <trkpt lat="45.15805" lon="4.01784">
        <ele>898.49</ele>
        <time>2024-02-15T14:33:25Z</time>
      </trkpt>
      <trkpt lat="45.15816" lon="4.01793">
        <ele>898.97</ele>
        <time>2024-02-15T14:33:36Z</time>
      </trkpt>
      <trkpt lat="45.1583" lon="4.01805">
        <ele>900.41</ele>
        <time>2024-02-15T14:33:50Z</time>
      </trkpt>
      <trkpt lat="45.15843" lon="4.01814">
        <ele>902.33</ele>
        <time>2024-02-15T14:34:01Z</time>
      </trkpt>
      <trkpt lat="45.15851" lon="4.01822">
        <ele>903.78</ele>
        <time>2024-02-15T14:34:09Z</time>
      </trkpt>
      <trkpt lat="45.15857" lon="4.01828">
        <ele>905.22</ele>
        <time>2024-02-15T14:34:16Z</time>
      </trkpt>
      <trkpt lat="45.15861" lon="4.01832">
        <ele>905.7</ele>
        <time>2024-02-15T14:34:21Z</time>
      </trkpt>
      <trkpt lat="45.15878" lon="4.01846">
        <ele>908.1</ele>
        <time>2024-02-15T14:34:35Z</time>
      </trkpt>
      <trkpt lat="45.15885" lon="4.01852">
        <ele>910.03</ele>
        <time>2024-02-15T14:34:42Z</time>
      </trkpt>
      <trkpt lat="45.15889" lon="4.01855">
        <ele>910.51</ele>
        <time>2024-02-15T14:34:46Z</time>
      </trkpt>
      <trkpt lat="45.15903" lon="4.01867">
        <ele>912.43</ele>
        <time>2024-02-15T14:34:59Z</time>
      </trkpt>
      <trkpt lat="45.15916" lon="4.01878">
        <ele>915.31</ele>
        <time>2024-02-15T14:35:11Z</time>
      </trkpt>
      <trkpt lat="45.15928" lon="4.01888">
        <ele>917.72</ele>
        <time>2024-02-15T14:35:22Z</time>
      </trkpt>
      <trkpt lat="45.1594" lon="4.019">
        <ele>920.12</ele>
        <time>2024-02-15T14:35:35Z</time>
      </trkpt>
      <trkpt lat="45.15951" lon="4.01911">
        <ele>923.48</ele>
        <time>2024-02-15T14:35:48Z</time>
      </trkpt>
      <trkpt lat="45.15961" lon="4.01916">
        <ele>925.89</ele>
        <time>2024-02-15T14:35:57Z</time>
      </trkpt>
      <trkpt lat="45.15962" lon="4.01918">
        <ele>926.37</ele>
        <time>2024-02-15T14:35:59Z</time>
      </trkpt>
      <trkpt lat="45.15972" lon="4.01927">
        <ele>928.29</ele>
        <time>2024-02-15T14:36:11Z</time>
      </trkpt>
      <trkpt lat="45.15973" lon="4.01932">
        <ele>928.29</ele>
        <time>2024-02-15T14:36:15Z</time>
      </trkpt>
      <trkpt lat="45.15976" lon="4.01936">
        <ele>928.77</ele>
        <time>2024-02-15T14:36:21Z</time>
      </trkpt>
      <trkpt lat="45.15982" lon="4.01914">
        <ele>929.73</ele>
        <time>2024-02-15T14:36:35Z</time>
      </trkpt>
      <trkpt lat="45.15989" lon="4.01896">
        <ele>931.65</ele>
        <time>2024-02-15T14:36:49Z</time>
      </trkpt>
      <trkpt lat="45.15991" lon="4.01893">
        <ele>931.65</ele>
        <time>2024-02-15T14:36:51Z</time>
      </trkpt>
      <trkpt lat="45.15995" lon="4.01872">
        <ele>932.14</ele>
        <time>2024-02-15T14:37:03Z</time>
      </trkpt>
      <trkpt lat="45.16001" lon="4.01856">
        <ele>931.65</ele>
        <time>2024-02-15T14:37:16Z</time>
      </trkpt>
      <trkpt lat="45.16001" lon="4.01857">
        <ele>931.17</ele>
        <time>2024-02-15T14:37:32Z</time>
      </trkpt>
      <trkpt lat="45.16015" lon="4.01849">
        <ele>933.1</ele>
        <time>2024-02-15T14:37:46Z</time>
      </trkpt>
      <trkpt lat="45.16023" lon="4.01846">
        <ele>934.06</ele>
        <time>2024-02-15T14:37:53Z</time>
      </trkpt>
      <trkpt lat="45.16043" lon="4.01852">
        <ele>937.42</ele>
        <time>2024-02-15T14:38:08Z</time>
      </trkpt>
      <trkpt lat="45.16058" lon="4.01857">
        <ele>940.31</ele>
        <time>2024-02-15T14:38:20Z</time>
      </trkpt>
      <trkpt lat="45.16062" lon="4.01865">
        <ele>941.75</ele>
        <time>2024-02-15T14:38:26Z</time>
      </trkpt>
      <trkpt lat="45.16068" lon="4.01889">
        <ele>943.67</ele>
        <time>2024-02-15T14:38:42Z</time>
      </trkpt>
      <trkpt lat="45.1607" lon="4.01894">
        <ele>944.63</ele>
        <time>2024-02-15T14:38:46Z</time>
      </trkpt>
      <trkpt lat="45.16073" lon="4.01901">
        <ele>945.59</ele>
        <time>2024-02-15T14:38:56Z</time>
      </trkpt>
      <trkpt lat="45.16069" lon="4.01912">
        <ele>948.96</ele>
        <time>2024-02-15T14:39:11Z</time>
      </trkpt>
      <trkpt lat="45.16058" lon="4.0192">
        <ele>951.84</ele>
        <time>2024-02-15T14:39:25Z</time>
      </trkpt>
      <trkpt lat="45.16056" lon="4.0192">
        <ele>951.84</ele>
        <time>2024-02-15T14:39:27Z</time>
      </trkpt>
      <trkpt lat="45.16052" lon="4.01922">
        <ele>951.84</ele>
        <time>2024-02-15T14:39:31Z</time>
      </trkpt>
      <trkpt lat="45.16041" lon="4.0193">
        <ele>952.32</ele>
        <time>2024-02-15T14:39:43Z</time>
      </trkpt>
      <trkpt lat="45.16037" lon="4.01932">
        <ele>952.8</ele>
        <time>2024-02-15T14:39:48Z</time>
      </trkpt>
      <trkpt lat="45.16034" lon="4.01932">
        <ele>952.32</ele>
        <time>2024-02-15T14:40:04Z</time>
      </trkpt>
      <trkpt lat="45.16034" lon="4.01932">
        <ele>951.84</ele>
        <time>2024-02-15T14:40:22Z</time>
      </trkpt>
      <trkpt lat="45.16029" lon="4.0193">
        <ele>949.44</ele>
        <time>2024-02-15T14:40:41Z</time>
      </trkpt>
      <trkpt lat="45.16029" lon="4.01933">
        <ele>949.92</ele>
        <time>2024-02-15T14:40:57Z</time>
      </trkpt>
      <trkpt lat="45.1603" lon="4.01932">
        <ele>949.92</ele>
        <time>2024-02-15T14:41:17Z</time>
      </trkpt>
      <trkpt lat="45.1603" lon="4.01932">
        <ele>949.92</ele>
        <time>2024-02-15T14:41:20Z</time>
      </trkpt>
      <trkpt lat="45.16032" lon="4.0193">
        <ele>949.44</ele>
        <time>2024-02-15T14:41:31Z</time>
      </trkpt>
      <trkpt lat="45.16031" lon="4.0193">
        <ele>950.4</ele>
        <time>2024-02-15T14:41:53Z</time>
      </trkpt>
      <trkpt lat="45.16031" lon="4.0193">
        <ele>950.4</ele>
        <time>2024-02-15T14:42:20Z</time>
      </trkpt>
      <trkpt lat="45.16031" lon="4.0193">
        <ele>950.4</ele>
        <time>2024-02-15T14:42:47Z</time>
      </trkpt>
      <trkpt lat="45.16032" lon="4.0193">
        <ele>951.84</ele>
        <time>2024-02-15T14:43:09Z</time>
      </trkpt>
      <trkpt lat="45.1603" lon="4.01932">
        <ele>953.28</ele>
        <time>2024-02-15T14:43:32Z</time>
      </trkpt>
      <trkpt lat="45.16032" lon="4.01932">
        <ele>953.77</ele>
        <time>2024-02-15T14:44:05Z</time>
      </trkpt>
      <trkpt lat="45.16032" lon="4.01933">
        <ele>953.28</ele>
        <time>2024-02-15T14:44:31Z</time>
      </trkpt>
      <trkpt lat="45.16032" lon="4.01933">
        <ele>953.28</ele>
        <time>2024-02-15T14:44:59Z</time>
      </trkpt>
      <trkpt lat="45.16031" lon="4.01931">
        <ele>953.28</ele>
        <time>2024-02-15T14:45:27Z</time>
      </trkpt>
      <trkpt lat="45.16031" lon="4.01931">
        <ele>950.88</ele>
        <time>2024-02-15T14:45:40Z</time>
      </trkpt>
      <trkpt lat="45.1603" lon="4.01928">
        <ele>950.88</ele>
        <time>2024-02-15T14:45:47Z</time>
      </trkpt>
      <trkpt lat="45.16024" lon="4.01911">
        <ele>948.96</ele>
        <time>2024-02-15T14:46:02Z</time>
      </trkpt>
      <trkpt lat="45.16024" lon="4.0191">
        <ele>948.96</ele>
        <time>2024-02-15T14:46:03Z</time>
      </trkpt>
      <trkpt lat="45.16022" lon="4.01906">
        <ele>948.96</ele>
        <time>2024-02-15T14:46:08Z</time>
      </trkpt>
      <trkpt lat="45.16033" lon="4.01889">
        <ele>947.52</ele>
        <time>2024-02-15T14:46:24Z</time>
      </trkpt>
      <trkpt lat="45.1603" lon="4.01885">
        <ele>946.56</ele>
        <time>2024-02-15T14:46:39Z</time>
      </trkpt>
      <trkpt lat="45.16028" lon="4.0188">
        <ele>945.59</ele>
        <time>2024-02-15T14:46:56Z</time>
      </trkpt>
      <trkpt lat="45.1602" lon="4.01869">
        <ele>944.15</ele>
        <time>2024-02-15T14:47:10Z</time>
      </trkpt>
      <trkpt lat="45.16008" lon="4.01871">
        <ele>941.75</ele>
        <time>2024-02-15T14:47:27Z</time>
      </trkpt>
      <trkpt lat="45.16006" lon="4.0187">
        <ele>941.75</ele>
        <time>2024-02-15T14:47:36Z</time>
      </trkpt>
      <trkpt lat="45.16002" lon="4.01866">
        <ele>940.79</ele>
        <time>2024-02-15T14:47:42Z</time>
      </trkpt>
      <trkpt lat="45.15996" lon="4.01887">
        <ele>938.38</ele>
        <time>2024-02-15T14:47:56Z</time>
      </trkpt>
      <trkpt lat="45.15986" lon="4.0191">
        <ele>933.1</ele>
        <time>2024-02-15T14:48:13Z</time>
      </trkpt>
      <trkpt lat="45.1598" lon="4.01936">
        <ele>931.17</ele>
        <time>2024-02-15T14:48:28Z</time>
      </trkpt>
      <trkpt lat="45.15983" lon="4.01958">
        <ele>930.21</ele>
        <time>2024-02-15T14:48:42Z</time>
      </trkpt>
      <trkpt lat="45.15987" lon="4.01971">
        <ele>931.17</ele>
        <time>2024-02-15T14:48:55Z</time>
      </trkpt>
      <trkpt lat="45.15994" lon="4.01988">
        <ele>930.69</ele>
        <time>2024-02-15T14:49:07Z</time>
      </trkpt>
      <trkpt lat="45.16006" lon="4.02005">
        <ele>932.62</ele>
        <time>2024-02-15T14:49:21Z</time>
      </trkpt>
      <trkpt lat="45.16012" lon="4.02031">
        <ele>935.98</ele>
        <time>2024-02-15T14:49:39Z</time>
      </trkpt>
      <trkpt lat="45.16013" lon="4.02044">
        <ele>936.46</ele>
        <time>2024-02-15T14:49:49Z</time>
      </trkpt>
      <trkpt lat="45.16015" lon="4.02053">
        <ele>935.98</ele>
        <time>2024-02-15T14:49:55Z</time>
      </trkpt>
      <trkpt lat="45.16029" lon="4.02065">
        <ele>936.94</ele>
        <time>2024-02-15T14:50:08Z</time>
      </trkpt>
      <trkpt lat="45.16036" lon="4.02075">
        <ele>935.98</ele>
        <time>2024-02-15T14:50:23Z</time>
      </trkpt>
    </trkseg>
  </trk>
</gpx>